Time,TemperatureF,DewpointF,PressureIn,WindDirection,WindDirectionDegrees,WindSpeedMPH,WindSpeedGustMPH,Humidity,HourlyPrecipIn,Conditions,Clouds,dailyrainin,SoftwareType,DateUTC
2013-02-20 00:00:00,14.2,10.0,29.06,WNW,292,10.3,12.8,83,0.00,,,0.00,VWS V14.01,2013-02-20 05:00:00,
2013-02-20 00:01:00,14.0,9.8,29.06,West,270,2.9,11.0,83,0.00,,,0.00,VWS V14.01,2013-02-20 05:01:00,
2013-02-20 00:02:00,14.0,9.8,29.06,West,270,2.9,11.0,83,0.00,,,0.00,VWS V14.01,2013-02-20 05:02:00,
2013-02-20 00:03:00,14.0,9.5,29.06,NW,315,3.6,12.5,82,0.00,,,0.00,VWS V14.01,2013-02-20 05:03:00,
2013-02-20 00:04:00,14.0,9.5,29.06,West,270,6.0,6.0,82,0.00,,,0.00,VWS V14.01,2013-02-20 05:04:00,
2013-02-20 00:05:00,14.0,9.5,29.06,North,0,13.0,13.0,82,0.00,,,0.00,VWS V14.01,2013-02-20 05:05:00,
2013-02-20 00:06:00,14.0,9.5,29.06,NW,315,12.1,13.2,82,0.00,,,0.00,VWS V14.01,2013-02-20 05:06:00,
2013-02-20 00:07:00,14.0,9.5,29.06,NW,315,7.6,12.1,82,0.00,,,0.00,VWS V14.01,2013-02-20 05:07:00,
2013-02-20 00:08:00,14.0,9.5,29.06,NW,315,6.0,13.0,82,0.00,,,0.00,VWS V14.01,2013-02-20 05:08:00,
2013-02-20 00:09:00,14.0,9.5,29.06,WNW,292,6.0,7.2,82,0.00,,,0.00,VWS V14.01,2013-02-20 05:09:00,
2013-02-20 00:10:00,14.0,9.3,29.06,WNW,292,10.1,10.1,81,0.00,,,0.00,VWS V14.01,2013-02-20 05:10:00,
2013-02-20 00:11:00,14.0,9.3,29.06,WSW,248,9.2,10.7,81,0.00,,,0.00,VWS V14.01,2013-02-20 05:11:00,
2013-02-20 00:12:00,14.2,9.2,29.06,WNW,292,3.6,9.2,80,0.00,,,0.00,VWS V14.01,2013-02-20 05:12:00,
2013-02-20 00:13:00,14.2,9.2,29.06,NW,315,14.1,14.1,80,0.00,,,0.00,VWS V14.01,2013-02-20 05:13:00,
2013-02-20 00:14:00,14.0,9.3,29.06,ENE,68,5.6,14.1,81,0.00,,,0.00,VWS V14.01,2013-02-20 05:14:00,
2013-02-20 00:15:00,14.0,9.3,29.06,WNW,292,4.5,8.5,81,0.00,,,0.00,VWS V14.01,2013-02-20 05:15:00,
2013-02-20 00:16:00,14.0,9.0,29.06,WSW,248,7.8,7.8,80,0.00,,,0.00,VWS V14.01,2013-02-20 05:16:00,
2013-02-20 00:17:00,14.0,9.0,29.06,NW,315,6.3,10.1,80,0.00,,,0.00,VWS V14.01,2013-02-20 05:17:00,
2013-02-20 00:18:00,14.0,9.0,29.06,WNW,292,4.0,10.1,80,0.00,,,0.00,VWS V14.01,2013-02-20 05:18:00,
2013-02-20 00:19:00,14.2,9.2,29.06,WNW,292,7.4,7.4,80,0.00,,,0.00,VWS V14.01,2013-02-20 05:19:00,
2013-02-20 00:20:00,14.2,9.2,29.06,WNW,292,7.4,7.4,80,0.00,,,0.00,VWS V14.01,2013-02-20 05:20:00,
2013-02-20 00:21:00,14.2,9.2,29.06,NNW,338,3.1,7.4,80,0.00,,,0.00,VWS V14.01,2013-02-20 05:21:00,
2013-02-20 00:22:00,14.4,9.6,29.06,NNW,338,5.4,7.6,81,0.00,,,0.00,VWS V14.01,2013-02-20 05:22:00,
2013-02-20 00:23:00,12.7,8.0,29.09,North,0,10.1,10.1,81,0.00,,,0.00,VWS V14.01,2013-02-20 05:23:00,
2013-02-20 00:24:00,14.2,9.4,29.06,WSW,248,7.4,10.7,81,0.00,,,0.00,VWS V14.01,2013-02-20 05:24:00,
2013-02-20 00:25:00,14.2,9.4,29.06,NNW,338,6.5,7.6,81,0.00,,,0.00,VWS V14.01,2013-02-20 05:25:00,
2013-02-20 00:26:00,14.2,9.2,29.06,NNW,338,7.6,8.1,80,0.00,,,0.00,VWS V14.01,2013-02-20 05:26:00,
2013-02-20 00:27:00,14.2,9.2,29.06,WNW,292,6.5,6.5,80,0.00,,,0.00,VWS V14.01,2013-02-20 05:27:00,
2013-02-20 00:28:00,14.2,9.2,29.06,North,0,6.0,6.5,80,0.00,,,0.00,VWS V14.01,2013-02-20 05:28:00,
2013-02-20 00:29:00,14.0,9.3,29.06,NW,315,5.6,8.1,81,0.00,,,0.00,VWS V14.01,2013-02-20 05:29:00,
2013-02-20 00:30:00,14.0,9.3,29.06,WNW,292,4.7,5.6,81,0.00,,,0.00,VWS V14.01,2013-02-20 05:30:00,
2013-02-20 00:31:00,14.0,9.3,29.06,West,270,4.3,7.6,81,0.00,,,0.00,VWS V14.01,2013-02-20 05:31:00,
2013-02-20 00:32:00,14.0,9.3,29.06,NNW,338,6.3,8.5,81,0.00,,,0.00,VWS V14.01,2013-02-20 05:32:00,
2013-02-20 00:33:00,13.8,9.1,29.06,NW,315,4.9,12.5,81,0.00,,,0.00,VWS V14.01,2013-02-20 05:33:00,
2013-02-20 00:34:00,13.8,9.1,29.06,WSW,248,6.3,6.3,81,0.00,,,0.00,VWS V14.01,2013-02-20 05:34:00,
2013-02-20 00:35:00,13.8,9.1,29.06,WNW,292,6.0,8.1,81,0.00,,,0.00,VWS V14.01,2013-02-20 05:35:00,
2013-02-20 00:36:00,12.7,8.0,29.09,WNW,292,10.1,10.1,81,0.00,,,0.00,VWS V14.01,2013-02-20 05:36:00,
2013-02-20 00:37:00,13.8,9.1,29.06,NNW,338,8.1,8.1,81,0.00,,,0.00,VWS V14.01,2013-02-20 05:37:00,
2013-02-20 00:38:00,13.8,9.1,29.09,North,0,3.8,8.1,81,0.00,,,0.00,VWS V14.01,2013-02-20 05:38:00,
2013-02-20 00:39:00,13.8,9.1,29.09,WNW,292,7.6,7.6,81,0.00,,,0.00,VWS V14.01,2013-02-20 05:39:00,
2013-02-20 00:40:00,12.7,8.0,29.12,WNW,292,7.6,10.7,81,0.00,,,0.00,VWS V14.01,2013-02-20 05:40:00,
2013-02-20 00:41:00,13.6,8.9,29.09,NW,315,4.9,7.6,81,0.00,,,0.00,VWS V14.01,2013-02-20 05:41:00,
2013-02-20 00:42:00,13.6,8.9,29.09,NW,315,8.5,8.5,81,0.00,,,0.00,VWS V14.01,2013-02-20 05:42:00,
2013-02-20 00:43:00,13.6,8.9,29.09,NNW,338,12.3,12.3,81,0.00,,,0.00,VWS V14.01,2013-02-20 05:43:00,
2013-02-20 00:44:00,13.6,8.9,29.09,NW,315,4.9,12.3,81,0.00,,,0.00,VWS V14.01,2013-02-20 05:44:00,
2013-02-20 00:45:00,13.6,8.9,29.09,WNW,292,10.7,10.7,81,0.00,,,0.00,VWS V14.01,2013-02-20 05:45:00,
2013-02-20 00:46:00,12.7,8.0,29.12,WNW,292,10.7,10.7,81,0.00,,,0.00,VWS V14.01,2013-02-20 05:46:00,
2013-02-20 00:47:00,13.6,8.9,29.09,NW,315,7.8,7.8,81,0.00,,,0.00,VWS V14.01,2013-02-20 05:47:00,
2013-02-20 00:48:00,13.6,8.9,29.09,WNW,292,4.0,7.8,81,0.00,,,0.00,VWS V14.01,2013-02-20 05:48:00,
2013-02-20 00:49:00,13.6,8.9,29.09,North,0,6.0,10.7,81,0.00,,,0.00,VWS V14.01,2013-02-20 05:49:00,
2013-02-20 00:50:00,13.6,8.9,29.09,WNW,292,10.3,10.3,81,0.00,,,0.00,VWS V14.01,2013-02-20 05:50:00,
2013-02-20 00:51:00,13.5,8.7,29.09,WSW,248,6.3,10.3,81,0.00,,,0.00,VWS V14.01,2013-02-20 05:51:00,
2013-02-20 00:52:00,13.5,8.7,29.09,NNW,338,6.0,6.9,81,0.00,,,0.00,VWS V14.01,2013-02-20 05:52:00,
2013-02-20 00:53:00,13.5,8.7,29.09,North,0,3.8,7.6,81,0.00,,,0.00,VWS V14.01,2013-02-20 05:53:00,
2013-02-20 00:54:00,13.5,8.7,29.09,SSW,202,6.0,6.0,81,0.00,,,0.00,VWS V14.01,2013-02-20 05:54:00,
2013-02-20 00:55:00,13.3,8.6,29.09,NNW,338,6.3,8.1,81,0.00,,,0.00,VWS V14.01,2013-02-20 05:55:00,
2013-02-20 00:56:00,13.3,8.6,29.09,NNW,338,4.9,7.8,81,0.00,,,0.00,VWS V14.01,2013-02-20 05:56:00,
2013-02-20 00:57:00,13.3,8.6,29.09,NW,315,5.6,8.5,81,0.00,,,0.00,VWS V14.01,2013-02-20 05:57:00,
2013-02-20 00:58:00,13.3,8.6,29.09,WNW,292,7.4,9.8,81,0.00,,,0.00,VWS V14.01,2013-02-20 05:58:00,
2013-02-20 00:59:00,13.3,8.6,29.09,NNW,338,19.5,19.5,81,0.00,,,0.00,VWS V14.01,2013-02-20 05:59:00,
2013-02-20 01:00:00,13.3,8.6,29.09,NW,315,9.0,19.5,81,0.00,,,0.00,VWS V14.01,2013-02-20 06:00:00,
2013-02-20 01:01:00,13.1,8.4,29.09,NW,315,6.0,10.1,81,0.00,,,0.00,VWS V14.01,2013-02-20 06:01:00,
2013-02-20 01:02:00,13.1,8.4,29.09,NW,315,6.0,6.0,81,0.00,,,0.00,VWS V14.01,2013-02-20 06:02:00,
2013-02-20 01:03:00,13.1,8.4,29.09,NW,315,3.4,3.4,81,0.00,,,0.00,VWS V14.01,2013-02-20 06:03:00,
2013-02-20 01:04:00,13.1,8.4,29.09,NNW,338,6.7,6.7,81,0.00,,,0.00,VWS V14.01,2013-02-20 06:04:00,
2013-02-20 01:05:00,13.3,8.6,29.09,NW,315,8.7,8.7,81,0.00,,,0.00,VWS V14.01,2013-02-20 06:05:00,
2013-02-20 01:06:00,13.1,8.4,29.09,WNW,292,9.0,9.0,81,0.00,,,0.00,VWS V14.01,2013-02-20 06:06:00,
2013-02-20 01:07:00,13.1,8.4,29.09,WNW,292,3.4,9.0,81,0.00,,,0.00,VWS V14.01,2013-02-20 06:07:00,
2013-02-20 01:08:00,13.1,8.4,29.09,North,0,10.1,10.7,81,0.00,,,0.00,VWS V14.01,2013-02-20 06:08:00,
2013-02-20 01:09:00,13.1,8.4,29.09,NW,315,6.0,10.1,81,0.00,,,0.00,VWS V14.01,2013-02-20 06:09:00,
2013-02-20 01:10:00,13.1,8.4,29.09,WSW,248,8.1,14.1,81,0.00,,,0.00,VWS V14.01,2013-02-20 06:10:00,
2013-02-20 01:11:00,13.1,8.4,29.09,WSW,248,8.1,8.1,81,0.00,,,0.00,VWS V14.01,2013-02-20 06:11:00,
2013-02-20 01:12:00,13.1,8.4,29.09,WNW,292,10.7,10.7,81,0.00,,,0.00,VWS V14.01,2013-02-20 06:12:00,
2013-02-20 01:13:00,13.1,8.4,29.09,WNW,292,10.5,10.5,81,0.00,,,0.00,VWS V14.01,2013-02-20 06:13:00,
2013-02-20 01:14:00,13.1,8.4,29.09,WNW,292,6.0,10.5,81,0.00,,,0.00,VWS V14.01,2013-02-20 06:14:00,
2013-02-20 01:15:00,13.1,8.4,29.09,NNE,22,10.3,10.3,81,0.00,,,0.00,VWS V14.01,2013-02-20 06:15:00,
2013-02-20 01:16:00,12.9,8.2,29.09,WNW,292,11.9,11.9,81,0.00,,,0.00,VWS V14.01,2013-02-20 06:16:00,
2013-02-20 01:17:00,12.9,8.2,29.09,NW,315,5.4,11.9,81,0.00,,,0.00,VWS V14.01,2013-02-20 06:17:00,
2013-02-20 01:18:00,12.7,8.0,29.09,WNW,292,8.7,16.6,81,0.00,,,0.00,VWS V14.01,2013-02-20 06:18:00,
2013-02-20 01:19:00,12.7,8.0,29.09,NW,315,10.1,16.6,81,0.00,,,0.00,VWS V14.01,2013-02-20 06:19:00,
2013-02-20 01:20:00,12.7,8.0,29.09,West,270,7.2,10.1,81,0.00,,,0.00,VWS V14.01,2013-02-20 06:20:00,
2013-02-20 01:21:00,12.7,8.0,29.09,NNE,22,6.5,10.3,81,0.00,,,0.00,VWS V14.01,2013-02-20 06:21:00,
2013-02-20 01:22:00,12.7,8.0,29.09,NNW,338,5.4,6.5,81,0.00,,,0.00,VWS V14.01,2013-02-20 06:22:00,
2013-02-20 01:23:00,12.7,8.0,29.09,NNW,338,11.9,12.3,81,0.00,,,0.00,VWS V14.01,2013-02-20 06:23:00,
2013-02-20 01:24:00,12.7,8.0,29.09,WNW,292,3.8,12.3,81,0.00,,,0.00,VWS V14.01,2013-02-20 06:24:00,
2013-02-20 01:25:00,12.7,8.0,29.09,NNW,338,4.3,8.1,81,0.00,,,0.00,VWS V14.01,2013-02-20 06:25:00,
2013-02-20 01:26:00,12.6,7.8,29.09,NW,315,4.0,8.7,81,0.00,,,0.00,VWS V14.01,2013-02-20 06:26:00,
2013-02-20 01:27:00,12.6,7.8,29.09,North,0,6.0,6.0,81,0.00,,,0.00,VWS V14.01,2013-02-20 06:27:00,
2013-02-20 01:28:00,12.6,7.8,29.09,West,270,7.6,7.6,81,0.00,,,0.00,VWS V14.01,2013-02-20 06:28:00,
2013-02-20 01:29:00,12.6,7.8,29.09,NNW,338,5.6,12.3,81,0.00,,,0.00,VWS V14.01,2013-02-20 06:29:00,
2013-02-20 01:30:00,12.6,7.8,29.09,SSW,202,7.6,12.8,81,0.00,,,0.00,VWS V14.01,2013-02-20 06:30:00,
2013-02-20 01:31:00,12.7,8.0,29.09,WNW,292,6.3,9.8,81,0.00,,,0.00,VWS V14.01,2013-02-20 06:31:00,
2013-02-20 01:32:00,12.7,8.0,29.09,WNW,292,4.3,8.1,81,0.00,,,0.00,VWS V14.01,2013-02-20 06:32:00,
2013-02-20 01:33:00,12.7,8.0,29.09,NW,315,15.9,16.8,81,0.00,,,0.00,VWS V14.01,2013-02-20 06:33:00,
2013-02-20 01:34:00,12.7,8.0,29.09,NNW,338,13.2,16.8,81,0.00,,,0.00,VWS V14.01,2013-02-20 06:34:00,
2013-02-20 01:35:00,12.7,8.0,29.09,WNW,292,5.4,14.1,81,0.00,,,0.00,VWS V14.01,2013-02-20 06:35:00,
2013-02-20 01:36:00,12.7,8.0,29.09,WNW,292,10.1,10.1,81,0.00,,,0.00,VWS V14.01,2013-02-20 06:36:00,
2013-02-20 01:37:00,12.7,8.0,29.12,NNW,338,5.4,10.1,81,0.00,,,0.00,VWS V14.01,2013-02-20 06:37:00,
2013-02-20 01:38:00,12.7,8.0,29.12,WNW,292,4.3,4.9,81,0.00,,,0.00,VWS V14.01,2013-02-20 06:38:00,
2013-02-20 01:39:00,12.7,8.0,29.12,West,270,4.9,6.9,81,0.00,,,0.00,VWS V14.01,2013-02-20 06:39:00,
2013-02-20 01:40:00,12.7,8.0,29.12,WNW,292,7.6,10.7,81,0.00,,,0.00,VWS V14.01,2013-02-20 06:40:00,
2013-02-20 01:41:00,12.7,8.0,29.12,NW,315,4.3,7.6,81,0.00,,,0.00,VWS V14.01,2013-02-20 06:41:00,
2013-02-20 01:42:00,12.6,7.8,29.12,North,0,5.6,6.7,81,0.00,,,0.00,VWS V14.01,2013-02-20 06:42:00,
2013-02-20 01:43:00,12.6,7.8,29.12,WNW,292,10.1,11.0,81,0.00,,,0.00,VWS V14.01,2013-02-20 06:43:00,
2013-02-20 01:44:00,12.6,7.8,29.12,WNW,292,10.1,11.0,81,0.00,,,0.00,VWS V14.01,2013-02-20 06:44:00,
2013-02-20 01:45:00,12.6,7.8,29.12,NW,315,7.2,10.1,81,0.00,,,0.00,VWS V14.01,2013-02-20 06:45:00,
2013-02-20 01:46:00,12.7,8.0,29.12,WNW,292,10.7,10.7,81,0.00,,,0.00,VWS V14.01,2013-02-20 06:46:00,
2013-02-20 01:47:00,12.7,8.0,29.12,West,270,6.0,10.7,81,0.00,,,0.00,VWS V14.01,2013-02-20 06:47:00,
2013-02-20 01:48:00,12.6,7.8,29.12,NW,315,6.5,10.1,81,0.00,,,0.00,VWS V14.01,2013-02-20 06:48:00,
2013-02-20 01:49:00,12.6,7.8,29.12,WNW,292,10.3,10.3,81,0.00,,,0.00,VWS V14.01,2013-02-20 06:49:00,
2013-02-20 01:50:00,12.6,7.8,29.12,WSW,248,7.6,10.3,81,0.00,,,0.00,VWS V14.01,2013-02-20 06:50:00,
2013-02-20 01:51:00,12.6,7.8,29.12,WNW,292,5.8,8.5,81,0.00,,,0.00,VWS V14.01,2013-02-20 06:51:00,
2013-02-20 01:52:00,12.6,7.8,29.12,NW,315,5.4,15.4,81,0.00,,,0.00,VWS V14.01,2013-02-20 06:52:00,
2013-02-20 01:53:00,12.7,8.0,29.12,WNW,292,4.0,5.8,81,0.00,,,0.00,VWS V14.01,2013-02-20 06:53:00,
2013-02-20 01:54:00,12.7,8.0,29.12,WSW,248,7.6,7.6,81,0.00,,,0.00,VWS V14.01,2013-02-20 06:54:00,
2013-02-20 01:55:00,12.7,8.0,29.12,NW,315,7.4,8.5,81,0.00,,,0.00,VWS V14.01,2013-02-20 06:55:00,
2013-02-20 01:56:00,12.7,8.0,29.12,NNW,338,4.3,7.4,81,0.00,,,0.00,VWS V14.01,2013-02-20 06:56:00,
2013-02-20 01:57:00,12.7,8.0,29.12,WNW,292,6.0,13.0,81,0.00,,,0.00,VWS V14.01,2013-02-20 06:57:00,
2013-02-20 01:58:00,12.7,8.0,29.12,NW,315,7.4,7.4,81,0.00,,,0.00,VWS V14.01,2013-02-20 06:58:00,
2013-02-20 01:59:00,12.7,8.0,29.12,WNW,292,10.3,12.8,81,0.00,,,0.00,VWS V14.01,2013-02-20 06:59:00,
2013-02-20 02:00:00,12.7,8.0,29.12,NNW,338,7.4,10.3,81,0.00,,,0.00,VWS V14.01,2013-02-20 07:00:00,
2013-02-20 02:01:00,12.7,8.0,29.12,WNW,292,5.4,12.3,81,0.00,,,0.00,VWS V14.01,2013-02-20 07:01:00,
2013-02-20 02:02:00,12.7,8.0,29.12,NNE,22,6.5,6.5,81,0.00,,,0.00,VWS V14.01,2013-02-20 07:02:00,
2013-02-20 02:03:00,12.6,7.8,29.12,NNW,338,5.4,13.4,81,0.00,,,0.00,VWS V14.01,2013-02-20 07:03:00,
2013-02-20 02:04:00,12.6,7.8,29.12,NNW,338,5.4,13.4,81,0.00,,,0.00,VWS V14.01,2013-02-20 07:04:00,
2013-02-20 02:05:00,12.6,7.8,29.12,WNW,292,6.3,12.3,81,0.00,,,0.00,VWS V14.01,2013-02-20 07:05:00,
2013-02-20 02:06:00,12.6,7.8,29.12,NNW,338,8.7,10.7,81,0.00,,,0.00,VWS V14.01,2013-02-20 07:06:00,
2013-02-20 02:07:00,12.6,7.8,29.12,West,270,6.0,10.3,81,0.00,,,0.00,VWS V14.01,2013-02-20 07:07:00,
2013-02-20 02:08:00,12.6,7.8,29.12,WNW,292,10.7,10.7,81,0.00,,,0.00,VWS V14.01,2013-02-20 07:08:00,
2013-02-20 02:09:00,12.6,7.8,29.12,WNW,292,10.7,10.7,81,0.00,,,0.00,VWS V14.01,2013-02-20 07:09:00,
2013-02-20 02:10:00,12.6,7.8,29.12,NW,315,5.6,10.7,81,0.00,,,0.00,VWS V14.01,2013-02-20 07:10:00,
2013-02-20 02:11:00,12.4,7.7,29.12,WNW,292,5.4,8.7,81,0.00,,,0.00,VWS V14.01,2013-02-20 07:11:00,
2013-02-20 02:12:00,12.4,7.7,29.12,NNW,338,4.3,7.8,81,0.00,,,0.00,VWS V14.01,2013-02-20 07:12:00,
2013-02-20 02:13:00,12.6,7.8,29.12,WNW,292,10.3,10.3,81,0.00,,,0.00,VWS V14.01,2013-02-20 07:13:00,
2013-02-20 02:14:00,12.6,7.8,29.12,West,270,5.6,10.3,81,0.00,,,0.00,VWS V14.01,2013-02-20 07:14:00,
2013-02-20 02:15:00,12.6,7.8,29.12,NW,315,4.7,6.0,81,0.00,,,0.00,VWS V14.01,2013-02-20 07:15:00,
2013-02-20 02:16:00,12.6,7.8,29.12,NW,315,4.9,8.5,81,0.00,,,0.00,VWS V14.01,2013-02-20 07:16:00,
2013-02-20 02:17:00,12.6,7.8,29.12,WNW,292,12.1,12.1,81,0.00,,,0.00,VWS V14.01,2013-02-20 07:17:00,
2013-02-20 02:18:00,12.6,7.8,29.12,NW,315,9.6,13.9,81,0.00,,,0.00,VWS V14.01,2013-02-20 07:18:00,
2013-02-20 02:19:00,12.6,7.8,29.12,NNW,338,4.0,13.9,81,0.00,,,0.00,VWS V14.01,2013-02-20 07:19:00,
2013-02-20 02:20:00,12.6,7.8,29.12,WNW,292,10.1,10.1,81,0.00,,,0.00,VWS V14.01,2013-02-20 07:20:00,
2013-02-20 02:21:00,12.6,7.8,29.12,NNW,338,5.8,12.3,81,0.00,,,0.00,VWS V14.01,2013-02-20 07:21:00,
2013-02-20 02:22:00,12.6,7.8,29.14,NW,315,4.9,11.0,81,0.00,,,0.00,VWS V14.01,2013-02-20 07:22:00,
2013-02-20 02:23:00,12.4,7.7,29.14,WNW,292,6.9,6.9,81,0.00,,,0.00,VWS V14.01,2013-02-20 07:23:00,
2013-02-20 02:24:00,12.4,7.7,29.14,WSW,248,7.6,7.6,81,0.00,,,0.00,VWS V14.01,2013-02-20 07:24:00,
2013-02-20 02:25:00,12.4,7.7,29.14,WNW,292,6.0,7.6,81,0.00,,,0.00,VWS V14.01,2013-02-20 07:25:00,
2013-02-20 02:26:00,12.6,7.8,29.14,WNW,292,9.6,9.6,81,0.00,,,0.00,VWS V14.01,2013-02-20 07:26:00,
2013-02-20 02:27:00,12.4,7.7,29.14,WNW,292,10.1,10.1,81,0.00,,,0.00,VWS V14.01,2013-02-20 07:27:00,
2013-02-20 02:28:00,12.4,7.7,29.14,NW,315,4.3,6.3,81,0.00,,,0.00,VWS V14.01,2013-02-20 07:28:00,
2013-02-20 02:29:00,12.4,7.7,29.14,NW,315,5.4,6.3,81,0.00,,,0.00,VWS V14.01,2013-02-20 07:29:00,
2013-02-20 02:30:00,12.4,7.7,29.14,NW,315,8.1,15.4,81,0.00,,,0.00,VWS V14.01,2013-02-20 07:30:00,
2013-02-20 02:31:00,12.0,7.3,29.14,NW,315,7.8,7.8,81,0.00,,,33.01,VWS V14.01,2013-02-20 07:31:00,
2013-02-20 02:32:00,12.6,7.8,29.14,West,270,10.1,10.1,81,0.00,,,0.00,VWS V14.01,2013-02-20 07:32:00,
2013-02-20 02:33:00,12.4,7.7,29.14,NW,315,6.7,6.7,81,0.00,,,0.00,VWS V14.01,2013-02-20 07:33:00,
2013-02-20 02:34:00,12.4,7.7,29.14,NW,315,6.7,6.7,81,0.00,,,0.00,VWS V14.01,2013-02-20 07:34:00,
2013-02-20 02:35:00,12.4,7.7,29.14,WNW,292,5.8,13.0,81,0.00,,,0.00,VWS V14.01,2013-02-20 07:35:00,
2013-02-20 02:36:00,12.4,7.7,29.14,West,270,7.6,11.0,81,0.00,,,0.00,VWS V14.01,2013-02-20 07:36:00,
2013-02-20 02:37:00,12.4,7.7,29.14,NW,315,9.6,9.6,81,0.00,,,0.00,VWS V14.01,2013-02-20 07:37:00,
2013-02-20 02:38:00,12.2,7.5,29.14,NW,315,15.2,15.2,81,0.00,,,0.00,VWS V14.01,2013-02-20 07:38:00,
2013-02-20 02:39:00,12.2,7.5,29.14,NNW,338,6.5,15.2,81,0.00,,,0.00,VWS V14.01,2013-02-20 07:39:00,
2013-02-20 02:40:00,12.2,7.5,29.14,NNW,338,6.3,9.4,81,0.00,,,0.00,VWS V14.01,2013-02-20 07:40:00,
2013-02-20 02:41:00,12.2,7.5,29.14,North,0,4.3,13.4,81,0.00,,,0.00,VWS V14.01,2013-02-20 07:41:00,
2013-02-20 02:42:00,12.2,7.5,29.14,WNW,292,7.6,7.6,81,0.00,,,0.00,VWS V14.01,2013-02-20 07:42:00,
2013-02-20 02:43:00,12.2,7.5,29.14,WNW,292,6.0,10.1,81,0.00,,,0.00,VWS V14.01,2013-02-20 07:43:00,
2013-02-20 02:44:00,12.2,7.5,29.14,NNW,338,7.8,10.1,81,0.00,,,0.00,VWS V14.01,2013-02-20 07:44:00,
2013-02-20 02:45:00,12.2,7.5,29.14,NW,315,10.3,10.3,81,0.00,,,0.00,VWS V14.01,2013-02-20 07:45:00,
2013-02-20 02:46:00,12.2,7.5,29.14,NW,315,10.3,10.3,81,0.00,,,0.00,VWS V14.01,2013-02-20 07:46:00,
2013-02-20 02:47:00,12.2,7.5,29.14,WNW,292,5.4,10.3,81,0.00,,,0.00,VWS V14.01,2013-02-20 07:47:00,
2013-02-20 02:48:00,12.2,7.5,29.14,NW,315,5.4,5.4,81,0.00,,,0.00,VWS V14.01,2013-02-20 07:48:00,
2013-02-20 02:49:00,12.2,7.5,29.14,WNW,292,6.0,6.0,81,0.00,,,0.00,VWS V14.01,2013-02-20 07:49:00,
2013-02-20 02:50:00,12.2,7.5,29.14,WNW,292,5.6,11.0,81,0.00,,,0.00,VWS V14.01,2013-02-20 07:50:00,
2013-02-20 02:51:00,12.2,7.5,29.14,NW,315,4.3,7.6,81,0.00,,,0.00,VWS V14.01,2013-02-20 07:51:00,
2013-02-20 02:52:00,12.2,7.5,29.14,WNW,292,6.0,12.5,81,0.00,,,0.00,VWS V14.01,2013-02-20 07:52:00,
2013-02-20 02:53:00,12.2,7.5,29.14,NNW,338,9.6,11.9,81,0.00,,,0.00,VWS V14.01,2013-02-20 07:53:00,
2013-02-20 02:54:00,12.2,7.5,29.14,NNW,338,9.6,11.9,81,0.00,,,0.00,VWS V14.01,2013-02-20 07:54:00,
2013-02-20 02:55:00,12.2,7.5,29.14,North,0,10.7,10.7,81,0.00,,,0.00,VWS V14.01,2013-02-20 07:55:00,
2013-02-20 02:56:00,12.0,7.3,29.14,NNW,338,6.3,6.3,81,0.00,,,33.01,VWS V14.01,2013-02-20 07:56:00,
2013-02-20 02:57:00,12.2,7.5,29.14,WNW,292,8.7,9.6,81,0.00,,,0.00,VWS V14.01,2013-02-20 07:57:00,
2013-02-20 02:58:00,12.2,7.5,29.14,WNW,292,7.4,7.4,81,0.00,,,0.00,VWS V14.01,2013-02-20 07:58:00,
2013-02-20 02:59:00,12.2,7.5,29.14,NNW,338,4.7,7.4,81,0.00,,,0.00,VWS V14.01,2013-02-20 07:59:00,
2013-02-20 03:00:00,12.2,7.5,29.14,WNW,292,7.2,7.2,81,0.00,,,0.00,VWS V14.01,2013-02-20 08:00:00,
2013-02-20 03:01:00,12.2,7.5,29.14,NW,315,6.3,11.0,81,0.00,,,0.00,VWS V14.01,2013-02-20 08:01:00,
2013-02-20 03:02:00,12.2,7.5,29.14,NNW,338,7.6,8.7,81,0.00,,,0.00,VWS V14.01,2013-02-20 08:02:00,
2013-02-20 03:03:00,12.2,7.5,29.14,WNW,292,5.8,7.6,81,0.00,,,0.00,VWS V14.01,2013-02-20 08:03:00,
2013-02-20 03:04:00,12.2,7.5,29.14,NNW,338,4.9,5.8,81,0.00,,,0.00,VWS V14.01,2013-02-20 08:04:00,
2013-02-20 03:05:00,12.2,7.5,29.14,NNW,338,4.9,4.9,81,0.00,,,0.00,VWS V14.01,2013-02-20 08:05:00,
2013-02-20 03:06:00,12.2,7.5,29.14,NNW,338,6.5,6.5,81,0.00,,,0.00,VWS V14.01,2013-02-20 08:06:00,
2013-02-20 03:07:00,12.2,7.5,29.14,NNW,338,7.2,10.3,81,0.00,,,0.00,VWS V14.01,2013-02-20 08:07:00,
2013-02-20 03:08:00,12.2,7.5,29.14,WNW,292,4.0,11.0,81,0.00,,,33.01,VWS V14.01,2013-02-20 08:08:00,
2013-02-20 03:09:00,12.2,7.5,29.14,North,0,8.1,8.1,81,0.00,,,33.01,VWS V14.01,2013-02-20 08:09:00,
2013-02-20 03:10:00,12.2,7.5,29.14,WNW,292,4.0,4.0,81,0.00,,,33.01,VWS V14.01,2013-02-20 08:10:00,
2013-02-20 03:11:00,12.2,7.5,29.14,WSW,248,3.8,5.4,81,0.00,,,33.01,VWS V14.01,2013-02-20 08:11:00,
2013-02-20 03:12:00,12.2,7.5,29.14,NNW,338,4.9,5.4,81,0.00,,,33.01,VWS V14.01,2013-02-20 08:12:00,
2013-02-20 03:13:00,12.2,7.5,29.14,North,0,15.2,15.2,81,0.00,,,33.01,VWS V14.01,2013-02-20 08:13:00,
2013-02-20 03:14:00,12.0,7.3,29.14,WNW,292,9.8,15.2,81,0.00,,,33.01,VWS V14.01,2013-02-20 08:14:00,
2013-02-20 03:15:00,12.2,7.5,29.14,WNW,292,6.9,9.8,81,0.00,,,33.01,VWS V14.01,2013-02-20 08:15:00,
2013-02-20 03:16:00,12.2,7.5,29.14,WNW,292,3.8,6.9,81,0.00,,,33.01,VWS V14.01,2013-02-20 08:16:00,
2013-02-20 03:17:00,12.2,7.5,29.14,WNW,292,4.5,7.2,81,0.00,,,33.01,VWS V14.01,2013-02-20 08:17:00,
2013-02-20 03:18:00,12.2,7.5,29.14,NNE,22,8.7,9.8,81,0.00,,,33.01,VWS V14.01,2013-02-20 08:18:00,
2013-02-20 03:19:00,12.2,7.5,29.14,WSW,248,5.8,10.1,81,0.00,,,33.01,VWS V14.01,2013-02-20 08:19:00,
2013-02-20 03:20:00,12.0,7.3,29.14,SW,225,9.8,9.8,81,0.00,,,33.01,VWS V14.01,2013-02-20 08:20:00,
2013-02-20 03:21:00,12.0,7.3,29.14,West,270,7.8,9.8,81,0.00,,,33.01,VWS V14.01,2013-02-20 08:21:00,
2013-02-20 03:22:00,12.0,7.3,29.14,West,270,7.8,7.8,81,0.00,,,33.01,VWS V14.01,2013-02-20 08:22:00,
2013-02-20 03:23:00,12.0,7.3,29.14,NW,315,4.7,12.3,81,0.00,,,33.01,VWS V14.01,2013-02-20 08:23:00,
2013-02-20 03:24:00,12.0,7.3,29.14,NW,315,3.4,7.2,81,0.00,,,33.01,VWS V14.01,2013-02-20 08:24:00,
2013-02-20 03:25:00,12.0,7.3,29.14,WNW,292,3.8,7.8,81,0.00,,,33.01,VWS V14.01,2013-02-20 08:25:00,
2013-02-20 03:26:00,12.0,7.3,29.14,WNW,292,4.0,7.8,81,0.00,,,33.01,VWS V14.01,2013-02-20 08:26:00,
2013-02-20 03:27:00,12.0,7.3,29.14,West,270,4.3,7.4,81,0.00,,,33.01,VWS V14.01,2013-02-20 08:27:00,
2013-02-20 03:28:00,12.0,7.3,29.14,NW,315,11.0,11.0,81,0.00,,,33.01,VWS V14.01,2013-02-20 08:28:00,
2013-02-20 03:29:00,12.0,7.3,29.14,WNW,292,5.4,11.0,81,0.00,,,33.01,VWS V14.01,2013-02-20 08:29:00,
2013-02-20 03:30:00,12.0,7.3,29.14,WSW,248,6.3,6.3,81,0.00,,,33.01,VWS V14.01,2013-02-20 08:30:00,
2013-02-20 03:31:00,12.0,7.3,29.14,NW,315,7.8,7.8,81,0.00,,,33.01,VWS V14.01,2013-02-20 08:31:00,
2013-02-20 03:32:00,12.0,7.3,29.14,North,0,3.8,7.8,81,0.00,,,33.01,VWS V14.01,2013-02-20 08:32:00,
2013-02-20 03:33:00,12.0,7.3,29.14,NW,315,6.3,7.8,81,0.00,,,33.01,VWS V14.01,2013-02-20 08:33:00,
2013-02-20 03:34:00,12.0,7.3,29.14,NNW,338,4.0,6.3,81,0.00,,,33.01,VWS V14.01,2013-02-20 08:34:00,
2013-02-20 03:35:00,12.0,7.3,29.14,WNW,292,5.4,7.4,81,0.00,,,33.01,VWS V14.01,2013-02-20 08:35:00,
2013-02-20 03:36:00,12.0,7.3,29.14,WNW,292,10.5,10.5,81,0.00,,,33.01,VWS V14.01,2013-02-20 08:36:00,
2013-02-20 03:37:00,12.0,7.3,29.14,NNW,338,8.5,15.2,81,0.00,,,33.01,VWS V14.01,2013-02-20 08:37:00,
2013-02-20 03:38:00,12.0,7.3,29.20,North,0,3.6,3.8,81,0.00,,,33.01,VWS V14.01,2013-02-20 08:38:00,
2013-02-20 03:39:00,12.0,7.3,29.14,West,270,7.2,9.2,81,0.00,,,33.01,VWS V14.01,2013-02-20 08:39:00,
2013-02-20 03:40:00,12.0,7.3,29.14,NNW,338,4.9,6.5,81,0.00,,,33.01,VWS V14.01,2013-02-20 08:40:00,
2013-02-20 03:41:00,12.0,7.3,29.14,NNW,338,9.8,9.8,81,0.00,,,33.01,VWS V14.01,2013-02-20 08:41:00,
2013-02-20 03:42:00,12.0,7.3,29.14,North,0,8.5,9.8,81,0.00,,,33.01,VWS V14.01,2013-02-20 08:42:00,
2013-02-20 03:43:00,12.0,7.3,29.14,West,270,10.5,13.9,81,0.00,,,33.01,VWS V14.01,2013-02-20 08:43:00,
2013-02-20 03:44:00,12.0,7.3,29.14,WNW,292,5.4,10.5,81,0.00,,,33.01,VWS V14.01,2013-02-20 08:44:00,
2013-02-20 03:45:00,12.0,7.3,29.14,WNW,292,9.4,9.4,81,0.00,,,33.01,VWS V14.01,2013-02-20 08:45:00,
2013-02-20 03:46:00,12.0,7.3,29.14,NNW,338,6.3,9.4,81,0.00,,,33.01,VWS V14.01,2013-02-20 08:46:00,
2013-02-20 03:47:00,11.8,7.1,29.14,South,180,10.3,10.3,81,0.00,,,33.01,VWS V14.01,2013-02-20 08:47:00,
2013-02-20 03:48:00,12.0,7.3,29.14,NW,315,6.5,10.3,81,0.00,,,33.01,VWS V14.01,2013-02-20 08:48:00,
2013-02-20 03:49:00,12.0,7.3,29.14,WSW,248,5.6,6.5,81,0.00,,,33.01,VWS V14.01,2013-02-20 08:49:00,
2013-02-20 03:50:00,11.8,7.1,29.14,NNW,338,6.0,11.0,81,0.00,,,33.01,VWS V14.01,2013-02-20 08:50:00,
2013-02-20 03:51:00,11.8,7.1,29.14,WNW,292,6.5,11.0,81,0.00,,,33.01,VWS V14.01,2013-02-20 08:51:00,
2013-02-20 03:52:00,11.8,7.1,29.14,WNW,292,15.4,15.4,81,0.00,,,33.01,VWS V14.01,2013-02-20 08:52:00,
2013-02-20 03:53:00,12.0,7.3,29.14,NNW,338,4.0,15.4,81,0.00,,,33.01,VWS V14.01,2013-02-20 08:53:00,
2013-02-20 03:54:00,12.0,7.3,29.14,NNW,338,2.9,7.6,81,0.00,,,33.01,VWS V14.01,2013-02-20 08:54:00,
2013-02-20 03:55:00,12.0,7.3,29.14,NNE,22,3.6,5.8,81,0.00,,,33.01,VWS V14.01,2013-02-20 08:55:00,
2013-02-20 03:56:00,12.0,7.3,29.14,NNW,338,6.3,6.3,81,0.00,,,33.01,VWS V14.01,2013-02-20 08:56:00,
2013-02-20 03:57:00,12.0,7.3,29.14,WNW,292,9.4,9.4,81,0.00,,,33.01,VWS V14.01,2013-02-20 08:57:00,
2013-02-20 03:58:00,12.0,7.3,29.14,NNW,338,10.5,10.5,81,0.00,,,33.01,VWS V14.01,2013-02-20 08:58:00,
2013-02-20 03:59:00,12.0,7.3,29.14,NNW,338,5.6,12.3,81,0.00,,,33.01,VWS V14.01,2013-02-20 08:59:00,
2013-02-20 04:00:00,12.0,7.3,29.14,NNW,338,10.1,17.9,81,0.00,,,33.01,VWS V14.01,2013-02-20 09:00:00,
2013-02-20 04:01:00,12.0,7.3,29.20,North,0,3.8,6.3,81,0.00,,,33.01,VWS V14.01,2013-02-20 09:01:00,
2013-02-20 04:02:00,12.0,7.3,29.20,NNW,338,3.6,6.9,81,0.00,,,33.01,VWS V14.01,2013-02-20 09:02:00,
2013-02-20 04:03:00,12.2,7.5,29.14,West,270,10.3,10.3,81,0.00,,,33.01,VWS V14.01,2013-02-20 09:03:00,
2013-02-20 04:04:00,12.0,7.3,29.20,WNW,292,6.0,6.0,81,0.00,,,33.01,VWS V14.01,2013-02-20 09:04:00,
2013-02-20 04:05:00,12.0,7.3,29.14,WSW,248,5.4,5.6,81,0.00,,,33.01,VWS V14.01,2013-02-20 09:05:00,
2013-02-20 04:06:00,12.0,7.3,29.14,NNW,338,7.4,7.4,81,0.00,,,33.01,VWS V14.01,2013-02-20 09:06:00,
2013-02-20 04:07:00,12.0,7.3,29.20,WNW,292,7.4,7.6,81,0.00,,,33.01,VWS V14.01,2013-02-20 09:07:00,
2013-02-20 04:08:00,12.0,7.3,29.17,North,0,7.4,10.3,81,0.00,,,33.01,VWS V14.01,2013-02-20 09:08:00,
2013-02-20 04:09:00,12.0,7.3,29.17,North,0,3.6,4.3,81,0.00,,,33.01,VWS V14.01,2013-02-20 09:09:00,
2013-02-20 04:10:00,12.0,7.3,29.17,NNW,338,10.7,10.7,81,0.00,,,33.01,VWS V14.01,2013-02-20 09:10:00,
2013-02-20 04:11:00,12.0,7.3,29.17,WNW,292,7.2,10.7,81,0.00,,,33.01,VWS V14.01,2013-02-20 09:11:00,
2013-02-20 04:12:00,12.0,7.3,29.17,WNW,292,4.3,7.2,81,0.00,,,33.01,VWS V14.01,2013-02-20 09:12:00,
2013-02-20 04:13:00,12.0,7.3,29.17,WNW,292,6.0,7.2,81,0.00,,,33.01,VWS V14.01,2013-02-20 09:13:00,
2013-02-20 04:14:00,12.0,7.3,29.17,North,0,7.4,9.4,81,0.00,,,33.01,VWS V14.01,2013-02-20 09:14:00,
2013-02-20 04:15:00,12.0,7.3,29.17,North,0,8.1,8.1,81,0.00,,,33.01,VWS V14.01,2013-02-20 09:15:00,
2013-02-20 04:16:00,12.0,7.3,29.17,North,0,5.6,8.1,81,0.00,,,33.01,VWS V14.01,2013-02-20 09:16:00,
2013-02-20 04:17:00,12.0,7.3,29.17,NNW,338,9.6,9.6,81,0.00,,,33.01,VWS V14.01,2013-02-20 09:17:00,
2013-02-20 04:18:00,12.0,7.3,29.17,WNW,292,3.8,9.6,81,0.00,,,33.01,VWS V14.01,2013-02-20 09:18:00,
2013-02-20 04:19:00,12.0,7.3,29.17,West,270,14.1,14.1,81,0.00,,,33.01,VWS V14.01,2013-02-20 09:19:00,
2013-02-20 04:20:00,12.0,7.3,29.17,WNW,292,10.1,10.1,81,0.00,,,33.01,VWS V14.01,2013-02-20 09:20:00,
2013-02-20 04:21:00,12.0,7.3,29.17,WNW,292,10.1,10.1,81,0.00,,,33.01,VWS V14.01,2013-02-20 09:21:00,
2013-02-20 04:22:00,12.0,7.3,29.17,WNW,292,5.8,10.1,81,0.00,,,33.01,VWS V14.01,2013-02-20 09:22:00,
2013-02-20 04:23:00,12.2,7.5,29.20,WNW,292,7.4,10.1,81,0.00,,,33.01,VWS V14.01,2013-02-20 09:23:00,
2013-02-20 04:24:00,12.2,7.5,29.20,NNW,338,4.3,7.4,81,0.00,,,33.01,VWS V14.01,2013-02-20 09:24:00,
2013-02-20 04:25:00,12.2,7.5,29.20,West,270,5.6,6.3,81,0.00,,,33.01,VWS V14.01,2013-02-20 09:25:00,
2013-02-20 04:26:00,12.2,7.5,29.20,West,270,7.2,7.2,81,0.00,,,33.01,VWS V14.01,2013-02-20 09:26:00,
2013-02-20 04:27:00,12.2,7.5,29.20,West,270,7.2,7.2,81,0.00,,,33.01,VWS V14.01,2013-02-20 09:27:00,
2013-02-20 04:28:00,12.2,7.5,29.20,NNW,338,12.1,12.1,81,0.00,,,33.01,VWS V14.01,2013-02-20 09:28:00,
2013-02-20 04:29:00,12.2,7.5,29.20,NW,315,7.4,12.3,81,0.00,,,33.01,VWS V14.01,2013-02-20 09:29:00,
2013-02-20 04:30:00,12.2,7.5,29.20,NNW,338,5.6,6.7,81,0.00,,,33.01,VWS V14.01,2013-02-20 09:30:00,
2013-02-20 04:31:00,12.2,7.5,29.20,NNW,338,5.6,6.7,81,0.00,,,33.01,VWS V14.01,2013-02-20 09:31:00,
2013-02-20 04:32:00,11.7,7.0,29.17,WNW,292,3.8,5.8,81,0.00,,,33.01,VWS V14.01,2013-02-20 09:32:00,
2013-02-20 04:33:00,12.2,7.5,29.20,NW,315,5.6,10.3,81,0.00,,,33.01,VWS V14.01,2013-02-20 09:33:00,
2013-02-20 04:34:00,12.0,7.3,29.20,NNW,338,2.9,7.8,81,0.00,,,33.01,VWS V14.01,2013-02-20 09:34:00,
2013-02-20 04:35:00,12.0,7.3,29.20,WNW,292,3.6,4.7,81,0.00,,,33.01,VWS V14.01,2013-02-20 09:35:00,
2013-02-20 04:36:00,12.0,7.3,29.20,WNW,292,3.6,3.6,81,0.00,,,33.01,VWS V14.01,2013-02-20 09:36:00,
2013-02-20 04:37:00,12.0,7.3,29.20,West,270,2.9,5.4,81,0.00,,,33.01,VWS V14.01,2013-02-20 09:37:00,
2013-02-20 04:38:00,12.0,7.3,29.20,North,0,3.6,3.8,81,0.00,,,33.01,VWS V14.01,2013-02-20 09:38:00,
2013-02-20 04:39:00,12.0,7.3,29.20,NNW,338,6.0,6.0,81,0.00,,,33.01,VWS V14.01,2013-02-20 09:39:00,
2013-02-20 04:40:00,12.0,7.3,29.20,WNW,292,7.6,7.6,81,0.00,,,33.01,VWS V14.01,2013-02-20 09:40:00,
2013-02-20 04:41:00,12.0,7.3,29.20,NNW,338,9.8,9.8,81,0.00,,,33.01,VWS V14.01,2013-02-20 09:41:00,
2013-02-20 04:42:00,12.0,7.3,29.20,WNW,292,4.3,9.8,81,0.00,,,33.01,VWS V14.01,2013-02-20 09:42:00,
2013-02-20 04:43:00,12.0,7.3,29.20,WNW,292,5.4,10.3,81,0.00,,,33.01,VWS V14.01,2013-02-20 09:43:00,
2013-02-20 04:44:00,12.0,7.3,29.20,NW,315,5.4,12.1,81,0.00,,,33.01,VWS V14.01,2013-02-20 09:44:00,
2013-02-20 04:45:00,12.0,7.3,29.20,NNW,338,11.4,11.4,81,0.00,,,33.01,VWS V14.01,2013-02-20 09:45:00,
2013-02-20 04:46:00,12.0,7.3,29.20,West,270,6.3,11.9,81,0.00,,,33.01,VWS V14.01,2013-02-20 09:46:00,
2013-02-20 04:47:00,12.0,7.3,29.20,WNW,292,6.0,7.2,81,0.00,,,33.01,VWS V14.01,2013-02-20 09:47:00,
2013-02-20 04:48:00,12.0,7.3,29.20,WNW,292,4.0,6.0,81,0.00,,,33.01,VWS V14.01,2013-02-20 09:48:00,
2013-02-20 04:49:00,12.0,7.3,29.20,NNW,338,6.5,6.5,81,0.00,,,33.01,VWS V14.01,2013-02-20 09:49:00,
2013-02-20 04:50:00,12.0,7.3,29.20,WSW,248,4.0,6.5,81,0.00,,,33.01,VWS V14.01,2013-02-20 09:50:00,
2013-02-20 04:51:00,12.0,7.3,29.20,NNW,338,3.1,5.8,81,0.00,,,33.01,VWS V14.01,2013-02-20 09:51:00,
2013-02-20 04:52:00,12.0,7.3,29.20,WNW,292,6.3,10.7,81,0.00,,,33.01,VWS V14.01,2013-02-20 09:52:00,
2013-02-20 04:53:00,12.0,7.3,29.20,North,0,4.0,7.6,81,0.00,,,33.01,VWS V14.01,2013-02-20 09:53:00,
2013-02-20 04:54:00,12.0,7.3,29.20,NNW,338,5.8,5.8,81,0.00,,,33.01,VWS V14.01,2013-02-20 09:54:00,
2013-02-20 04:55:00,12.0,7.3,29.20,NNW,338,4.0,8.1,81,0.00,,,33.01,VWS V14.01,2013-02-20 09:55:00,
2013-02-20 04:56:00,12.0,7.3,29.20,North,0,7.4,7.4,81,0.00,,,33.01,VWS V14.01,2013-02-20 09:56:00,
2013-02-20 04:57:00,12.0,7.3,29.20,NW,315,6.0,14.5,81,0.00,,,33.01,VWS V14.01,2013-02-20 09:57:00,
2013-02-20 04:58:00,12.0,7.3,29.20,NW,315,9.8,9.8,81,0.00,,,33.01,VWS V14.01,2013-02-20 09:58:00,
2013-02-20 04:59:00,12.0,7.3,29.20,NNW,338,7.6,9.8,81,0.00,,,33.01,VWS V14.01,2013-02-20 09:59:00,
2013-02-20 05:00:00,12.0,7.3,29.20,NW,315,6.3,13.6,81,0.00,,,33.01,VWS V14.01,2013-02-20 10:00:00,
2013-02-20 05:01:00,12.0,7.3,29.20,North,0,3.8,6.3,81,0.00,,,33.01,VWS V14.01,2013-02-20 10:01:00,
2013-02-20 05:02:00,12.0,7.3,29.20,NNW,338,3.6,6.9,81,0.00,,,33.01,VWS V14.01,2013-02-20 10:02:00,
2013-02-20 05:03:00,12.0,7.3,29.20,WNW,292,2.7,3.6,81,0.00,,,33.01,VWS V14.01,2013-02-20 10:03:00,
2013-02-20 05:04:00,12.0,7.3,29.20,WNW,292,6.0,6.0,81,0.00,,,33.01,VWS V14.01,2013-02-20 10:04:00,
2013-02-20 05:05:00,12.0,7.3,29.20,WNW,292,4.7,8.7,81,0.00,,,33.01,VWS V14.01,2013-02-20 10:05:00,
2013-02-20 05:06:00,12.0,7.3,29.20,NW,315,7.2,7.2,81,0.00,,,33.01,VWS V14.01,2013-02-20 10:06:00,
2013-02-20 05:07:00,12.0,7.3,29.20,WNW,292,7.4,7.6,81,0.00,,,33.01,VWS V14.01,2013-02-20 10:07:00,
2013-02-20 05:08:00,12.0,7.3,29.17,NNW,338,2.7,7.4,81,0.00,,,33.01,VWS V14.01,2013-02-20 10:08:00,
2013-02-20 05:09:00,12.0,7.3,29.17,North,0,3.6,4.3,81,0.00,,,33.01,VWS V14.01,2013-02-20 10:09:00,
2013-02-20 05:10:00,12.0,7.3,29.17,WNW,292,6.5,8.1,81,0.00,,,33.01,VWS V14.01,2013-02-20 10:10:00,
2013-02-20 05:11:00,12.0,7.3,29.17,NNW,338,3.1,3.1,81,0.00,,,33.01,VWS V14.01,2013-02-20 10:11:00,
2013-02-20 05:12:00,12.0,7.3,29.17,NNW,338,7.2,7.2,81,0.00,,,33.01,VWS V14.01,2013-02-20 10:12:00,
2013-02-20 05:13:00,12.0,7.3,29.17,WNW,292,6.0,7.2,81,0.00,,,33.01,VWS V14.01,2013-02-20 10:13:00,
2013-02-20 05:14:00,12.0,7.3,29.17,NNW,338,6.0,6.0,81,0.00,,,33.01,VWS V14.01,2013-02-20 10:14:00,
2013-02-20 05:15:00,12.0,7.3,29.17,WNW,292,4.7,6.0,81,0.00,,,33.01,VWS V14.01,2013-02-20 10:15:00,
2013-02-20 05:16:00,12.0,7.3,29.17,WNW,292,7.8,7.8,81,0.00,,,33.01,VWS V14.01,2013-02-20 10:16:00,
2013-02-20 05:17:00,11.8,7.1,29.17,WNW,292,5.6,8.1,81,0.00,,,33.01,VWS V14.01,2013-02-20 10:17:00,
2013-02-20 05:18:00,11.8,7.1,29.17,WNW,292,5.4,5.6,81,0.00,,,33.01,VWS V14.01,2013-02-20 10:18:00,
2013-02-20 05:19:00,11.8,7.1,29.17,WNW,292,7.4,10.7,81,0.00,,,33.01,VWS V14.01,2013-02-20 10:19:00,
2013-02-20 05:20:00,11.8,7.1,29.17,NNW,338,3.8,7.4,81,0.00,,,33.01,VWS V14.01,2013-02-20 10:20:00,
2013-02-20 05:21:00,11.8,7.1,29.17,NW,315,5.4,5.4,81,0.00,,,33.01,VWS V14.01,2013-02-20 10:21:00,
2013-02-20 05:22:00,11.8,7.1,29.17,NW,315,7.8,15.4,81,0.00,,,33.01,VWS V14.01,2013-02-20 10:22:00,
2013-02-20 05:23:00,11.8,7.1,29.17,NW,315,4.9,8.1,81,0.00,,,33.01,VWS V14.01,2013-02-20 10:23:00,
2013-02-20 05:24:00,11.8,7.1,29.17,WNW,292,4.0,4.9,81,0.00,,,33.01,VWS V14.01,2013-02-20 10:24:00,
2013-02-20 05:25:00,11.8,7.1,29.17,NW,315,7.4,7.4,81,0.00,,,33.01,VWS V14.01,2013-02-20 10:25:00,
2013-02-20 05:26:00,11.7,7.0,29.17,WSW,248,10.7,10.7,81,0.00,,,33.01,VWS V14.01,2013-02-20 10:26:00,
2013-02-20 05:27:00,11.7,7.0,29.17,NW,315,5.6,10.7,81,0.00,,,33.01,VWS V14.01,2013-02-20 10:27:00,
2013-02-20 05:28:00,11.7,7.0,29.17,NW,315,6.0,8.5,81,0.00,,,33.01,VWS V14.01,2013-02-20 10:28:00,
2013-02-20 05:29:00,11.7,7.0,29.17,NNW,338,4.9,10.1,81,0.00,,,33.01,VWS V14.01,2013-02-20 10:29:00,
2013-02-20 05:30:00,11.7,7.0,29.17,WSW,248,5.8,12.3,81,0.00,,,33.01,VWS V14.01,2013-02-20 10:30:00,
2013-02-20 05:31:00,11.7,7.0,29.17,SSW,202,5.8,5.8,81,0.00,,,33.01,VWS V14.01,2013-02-20 10:31:00,
2013-02-20 05:32:00,11.7,7.0,29.17,WNW,292,3.8,5.8,81,0.00,,,33.01,VWS V14.01,2013-02-20 10:32:00,
2013-02-20 05:33:00,11.7,7.0,29.17,North,0,7.6,10.7,81,0.00,,,33.01,VWS V14.01,2013-02-20 10:33:00,
2013-02-20 05:34:00,11.7,7.0,29.17,NNW,338,10.3,10.3,81,0.00,,,33.01,VWS V14.01,2013-02-20 10:34:00,
2013-02-20 05:35:00,11.7,7.0,29.17,WNW,292,7.2,10.7,81,0.00,,,33.01,VWS V14.01,2013-02-20 10:35:00,
2013-02-20 05:36:00,11.7,7.0,29.17,North,0,4.0,5.8,81,0.00,,,33.01,VWS V14.01,2013-02-20 10:36:00,
2013-02-20 05:37:00,11.7,7.0,29.20,NNW,338,4.3,6.9,81,0.00,,,33.01,VWS V14.01,2013-02-20 10:37:00,
2013-02-20 05:38:00,11.7,7.0,29.20,NNW,338,5.8,7.2,81,0.00,,,33.01,VWS V14.01,2013-02-20 10:38:00,
2013-02-20 05:39:00,11.7,7.0,29.20,NNW,338,4.0,5.8,81,0.00,,,33.01,VWS V14.01,2013-02-20 10:39:00,
2013-02-20 05:40:00,11.3,6.6,29.23,NNW,338,5.8,6.3,81,0.00,,,33.01,VWS V14.01,2013-02-20 10:40:00,
2013-02-20 05:41:00,11.5,6.8,29.20,NW,315,6.0,6.0,81,0.00,,,33.01,VWS V14.01,2013-02-20 10:41:00,
2013-02-20 05:42:00,11.5,6.8,29.20,NW,315,7.4,8.1,81,0.00,,,33.01,VWS V14.01,2013-02-20 10:42:00,
2013-02-20 05:43:00,11.5,6.8,29.20,WSW,248,5.8,8.5,81,0.00,,,33.01,VWS V14.01,2013-02-20 10:43:00,
2013-02-20 05:44:00,11.5,6.8,29.20,NNW,338,7.6,7.6,81,0.00,,,33.01,VWS V14.01,2013-02-20 10:44:00,
2013-02-20 05:45:00,11.7,7.0,29.20,NNW,338,3.8,7.6,81,0.00,,,33.01,VWS V14.01,2013-02-20 10:45:00,
2013-02-20 05:46:00,11.7,7.0,29.20,WNW,292,5.4,6.5,81,0.00,,,33.01,VWS V14.01,2013-02-20 10:46:00,
2013-02-20 05:47:00,11.7,7.0,29.20,WNW,292,5.6,6.5,81,0.00,,,33.01,VWS V14.01,2013-02-20 10:47:00,
2013-02-20 05:48:00,11.7,7.0,29.20,NW,315,9.8,9.8,81,0.00,,,33.01,VWS V14.01,2013-02-20 10:48:00,
2013-02-20 05:49:00,11.7,7.0,29.20,WNW,292,11.0,11.0,81,0.00,,,33.01,VWS V14.01,2013-02-20 10:49:00,
2013-02-20 05:50:00,11.7,7.0,29.20,NNW,338,6.5,11.0,81,0.00,,,33.01,VWS V14.01,2013-02-20 10:50:00,
2013-02-20 05:51:00,11.7,7.0,29.20,NNW,338,6.3,6.3,81,0.00,,,33.01,VWS V14.01,2013-02-20 10:51:00,
2013-02-20 05:52:00,11.7,7.0,29.23,North,0,5.4,6.3,81,0.00,,,33.01,VWS V14.01,2013-02-20 10:52:00,
2013-02-20 05:53:00,11.5,6.8,29.23,NNW,338,8.5,8.5,81,0.00,,,33.01,VWS V14.01,2013-02-20 10:53:00,
2013-02-20 05:54:00,11.7,7.0,29.23,NW,315,5.8,8.5,81,0.00,,,33.01,VWS V14.01,2013-02-20 10:54:00,
2013-02-20 05:55:00,11.7,7.0,29.23,NNE,22,4.9,8.7,81,0.00,,,33.01,VWS V14.01,2013-02-20 10:55:00,
2013-02-20 05:56:00,11.7,7.0,29.23,WNW,292,8.5,9.4,81,0.00,,,33.01,VWS V14.01,2013-02-20 10:56:00,
2013-02-20 05:57:00,11.7,7.0,29.23,NNW,338,4.9,9.4,81,0.00,,,33.01,VWS V14.01,2013-02-20 10:57:00,
2013-02-20 05:58:00,11.7,7.0,29.23,NNW,338,4.9,4.9,81,0.00,,,33.01,VWS V14.01,2013-02-20 10:58:00,
2013-02-20 05:59:00,11.7,7.0,29.23,WNW,292,3.4,4.9,81,0.00,,,33.01,VWS V14.01,2013-02-20 10:59:00,
2013-02-20 06:00:00,11.7,7.0,29.23,West,270,8.1,10.5,81,0.00,,,33.01,VWS V14.01,2013-02-20 11:00:00,
2013-02-20 06:01:00,11.7,7.0,29.23,NNE,22,3.4,6.5,81,0.00,,,33.01,VWS V14.01,2013-02-20 11:01:00,
2013-02-20 06:02:00,11.7,7.0,29.23,NNW,338,13.6,13.6,81,0.00,,,33.01,VWS V14.01,2013-02-20 11:02:00,
2013-02-20 06:03:00,11.7,7.0,29.23,NNW,338,13.6,13.6,81,0.00,,,33.01,VWS V14.01,2013-02-20 11:03:00,
2013-02-20 06:04:00,11.7,7.0,29.23,WNW,292,6.7,13.6,81,0.00,,,33.01,VWS V14.01,2013-02-20 11:04:00,
2013-02-20 06:05:00,11.5,6.8,29.23,WNW,292,7.8,9.8,81,0.00,,,33.01,VWS V14.01,2013-02-20 11:05:00,
2013-02-20 06:06:00,11.7,7.0,29.23,NW,315,5.4,10.7,81,0.00,,,33.01,VWS V14.01,2013-02-20 11:06:00,
2013-02-20 06:07:00,11.7,7.0,29.26,West,270,6.0,10.7,81,0.00,,,33.01,VWS V14.01,2013-02-20 11:07:00,
2013-02-20 06:08:00,11.7,7.0,29.26,NNW,338,3.6,6.0,81,0.00,,,33.01,VWS V14.01,2013-02-20 11:08:00,
2013-02-20 06:09:00,11.7,7.0,29.26,NW,315,5.4,5.6,81,0.00,,,33.01,VWS V14.01,2013-02-20 11:09:00,
2013-02-20 06:10:00,11.7,7.0,29.26,WNW,292,4.9,7.4,81,0.00,,,33.01,VWS V14.01,2013-02-20 11:10:00,
2013-02-20 06:11:00,11.7,7.0,29.26,NW,315,2.7,6.3,81,0.00,,,33.01,VWS V14.01,2013-02-20 11:11:00,
2013-02-20 06:12:00,11.7,7.0,29.26,NW,315,2.7,6.3,81,0.00,,,33.01,VWS V14.01,2013-02-20 11:12:00,
2013-02-20 06:13:00,11.7,7.0,29.26,WNW,292,13.2,13.2,81,0.00,,,33.01,VWS V14.01,2013-02-20 11:13:00,
2013-02-20 06:14:00,11.3,6.6,29.26,WNW,292,5.4,11.9,81,0.00,,,33.01,VWS V14.01,2013-02-20 11:14:00,
2013-02-20 06:15:00,11.7,7.0,29.26,South,180,3.8,11.0,81,0.00,,,33.01,VWS V14.01,2013-02-20 11:15:00,
2013-02-20 06:16:00,11.7,7.0,29.26,WNW,292,11.0,11.4,81,0.00,,,33.01,VWS V14.01,2013-02-20 11:16:00,
2013-02-20 06:17:00,11.5,6.8,29.26,NW,315,8.1,11.4,81,0.00,,,33.01,VWS V14.01,2013-02-20 11:17:00,
2013-02-20 06:18:00,11.5,6.8,29.26,NW,315,3.4,9.8,81,0.00,,,33.01,VWS V14.01,2013-02-20 11:18:00,
2013-02-20 06:19:00,11.3,6.6,29.26,NNW,338,6.5,12.8,81,0.00,,,33.01,VWS V14.01,2013-02-20 11:19:00,
2013-02-20 06:20:00,11.5,6.8,29.26,NNW,338,2.9,6.5,81,0.00,,,33.01,VWS V14.01,2013-02-20 11:20:00,
2013-02-20 06:21:00,11.5,6.8,29.26,WSW,248,4.0,4.3,81,0.00,,,33.01,VWS V14.01,2013-02-20 11:21:00,
2013-02-20 06:22:00,11.5,6.8,29.26,NNW,338,4.0,5.4,81,0.00,,,33.01,VWS V14.01,2013-02-20 11:22:00,
2013-02-20 06:23:00,11.3,6.6,29.26,West,270,4.7,4.7,81,0.00,,,33.01,VWS V14.01,2013-02-20 11:23:00,
2013-02-20 06:24:00,11.5,6.8,29.26,WNW,292,13.0,13.0,81,0.00,,,33.01,VWS V14.01,2013-02-20 11:24:00,
2013-02-20 06:25:00,11.3,6.6,29.26,WNW,292,4.3,13.0,81,0.00,,,33.01,VWS V14.01,2013-02-20 11:25:00,
2013-02-20 06:26:00,11.3,6.6,29.26,WNW,292,3.4,3.8,81,0.00,,,33.01,VWS V14.01,2013-02-20 11:26:00,
2013-02-20 06:27:00,11.3,6.6,29.26,North,0,4.3,4.3,81,0.00,,,33.01,VWS V14.01,2013-02-20 11:27:00,
2013-02-20 06:28:00,11.3,6.6,29.26,NNW,338,4.3,4.3,81,0.00,,,33.01,VWS V14.01,2013-02-20 11:28:00,
2013-02-20 06:29:00,11.3,6.6,29.26,NNW,338,4.7,8.5,81,0.00,,,33.01,VWS V14.01,2013-02-20 11:29:00,
2013-02-20 06:30:00,11.3,6.6,29.26,WNW,292,6.5,10.3,81,0.00,,,33.01,VWS V14.01,2013-02-20 11:30:00,
2013-02-20 06:31:00,11.3,6.6,29.26,NNW,338,4.9,9.8,81,0.00,,,33.01,VWS V14.01,2013-02-20 11:31:00,
2013-02-20 06:32:00,11.3,6.6,29.26,WNW,292,4.3,9.8,81,0.00,,,33.01,VWS V14.01,2013-02-20 11:32:00,
2013-02-20 06:33:00,11.3,6.6,29.26,NW,315,5.4,7.4,81,0.00,,,33.01,VWS V14.01,2013-02-20 11:33:00,
2013-02-20 06:34:00,11.3,6.6,29.26,West,270,5.4,5.4,81,0.00,,,33.01,VWS V14.01,2013-02-20 11:34:00,
2013-02-20 06:35:00,11.3,6.6,29.26,WNW,292,7.8,8.7,81,0.00,,,33.01,VWS V14.01,2013-02-20 11:35:00,
2013-02-20 06:36:00,11.3,6.6,29.23,West,270,8.5,8.5,81,0.00,,,33.01,VWS V14.01,2013-02-20 11:36:00,
2013-02-20 06:37:00,11.3,6.6,29.23,WNW,292,3.8,8.5,81,0.00,,,33.01,VWS V14.01,2013-02-20 11:37:00,
2013-02-20 06:38:00,11.3,6.6,29.23,WNW,292,3.4,4.0,81,0.00,,,33.01,VWS V14.01,2013-02-20 11:38:00,
2013-02-20 06:39:00,11.3,6.6,29.23,NNW,338,6.3,6.3,81,0.00,,,33.01,VWS V14.01,2013-02-20 11:39:00,
2013-02-20 06:40:00,11.3,6.6,29.23,NNW,338,5.8,6.3,81,0.00,,,33.01,VWS V14.01,2013-02-20 11:40:00,
2013-02-20 06:41:00,11.3,6.6,29.23,NE,45,6.0,6.3,81,0.00,,,33.01,VWS V14.01,2013-02-20 11:41:00,
2013-02-20 06:42:00,11.3,6.6,29.23,NE,45,6.0,6.3,81,0.00,,,33.01,VWS V14.01,2013-02-20 11:42:00,
2013-02-20 06:43:00,11.3,6.6,29.23,NW,315,4.9,6.0,81,0.00,,,33.01,VWS V14.01,2013-02-20 11:43:00,
2013-02-20 06:44:00,11.3,6.6,29.23,NNW,338,4.3,4.9,81,0.00,,,33.01,VWS V14.01,2013-02-20 11:44:00,
2013-02-20 06:45:00,11.3,6.6,29.23,NNW,338,5.8,6.5,81,0.00,,,33.01,VWS V14.01,2013-02-20 11:45:00,
2013-02-20 06:46:00,11.3,6.6,29.23,WNW,292,4.0,8.1,81,0.00,,,33.01,VWS V14.01,2013-02-20 11:46:00,
2013-02-20 06:47:00,11.3,6.6,29.23,WNW,292,6.3,8.1,81,0.00,,,33.01,VWS V14.01,2013-02-20 11:47:00,
2013-02-20 06:48:00,11.3,6.6,29.23,WNW,292,4.3,6.3,81,0.00,,,33.01,VWS V14.01,2013-02-20 11:48:00,
2013-02-20 06:49:00,11.3,6.6,29.23,West,270,3.1,4.7,81,0.00,,,33.01,VWS V14.01,2013-02-20 11:49:00,
2013-02-20 06:50:00,11.3,6.6,29.23,West,270,6.7,12.5,81,0.00,,,33.01,VWS V14.01,2013-02-20 11:50:00,
2013-02-20 06:51:00,11.3,6.6,29.23,NW,315,5.8,8.5,81,0.00,,,33.01,VWS V14.01,2013-02-20 11:51:00,
2013-02-20 06:52:00,11.3,6.6,29.23,West,270,6.5,8.5,81,0.00,,,33.01,VWS V14.01,2013-02-20 11:52:00,
2013-02-20 06:53:00,11.3,6.6,29.23,NNW,338,6.0,6.5,81,0.00,,,33.01,VWS V14.01,2013-02-20 11:53:00,
2013-02-20 06:54:00,11.3,6.6,29.23,WSW,248,10.1,10.1,81,0.00,,,33.01,VWS V14.01,2013-02-20 11:54:00,
2013-02-20 06:55:00,11.3,6.6,29.23,West,270,3.8,17.7,81,0.00,,,33.01,VWS V14.01,2013-02-20 11:55:00,
2013-02-20 06:56:00,11.3,6.6,29.23,NNW,338,4.7,6.3,81,0.00,,,33.01,VWS V14.01,2013-02-20 11:56:00,
2013-02-20 06:57:00,11.3,6.6,29.23,West,270,6.5,6.5,81,0.00,,,33.01,VWS V14.01,2013-02-20 11:57:00,
2013-02-20 06:58:00,11.5,6.8,29.23,NNW,338,2.9,9.4,81,0.00,,,33.01,VWS V14.01,2013-02-20 11:58:00,
2013-02-20 06:59:00,11.5,6.8,29.29,NW,315,4.3,10.3,81,0.00,,,33.01,VWS V14.01,2013-02-20 11:59:00,
2013-02-20 07:00:00,11.5,6.8,29.23,WNW,292,7.2,7.6,81,0.00,,,33.01,VWS V14.01,2013-02-20 12:00:00,
2013-02-20 07:01:00,11.5,6.8,29.23,NNW,338,10.5,10.5,81,0.00,,,33.01,VWS V14.01,2013-02-20 12:01:00,
2013-02-20 07:02:00,11.5,6.8,29.23,NNW,338,10.5,10.5,81,0.00,,,33.01,VWS V14.01,2013-02-20 12:02:00,
2013-02-20 07:03:00,11.5,6.8,29.23,SSE,158,7.4,10.5,81,0.00,,,33.01,VWS V14.01,2013-02-20 12:03:00,
2013-02-20 07:04:00,11.5,6.8,29.23,North,0,5.6,8.1,81,0.00,,,33.01,VWS V14.01,2013-02-20 12:04:00,
2013-02-20 07:05:00,11.5,6.8,29.23,WNW,292,7.8,9.8,81,0.00,,,33.01,VWS V14.01,2013-02-20 12:05:00,
2013-02-20 07:06:00,11.3,6.6,29.26,NNW,338,7.8,23.5,81,0.00,,,33.01,VWS V14.01,2013-02-20 12:06:00,
2013-02-20 07:07:00,11.3,6.6,29.26,NW,315,7.4,23.5,81,0.00,,,33.01,VWS V14.01,2013-02-20 12:07:00,
2013-02-20 07:08:00,11.7,7.0,29.32,NW,315,6.5,11.0,81,0.00,,,33.01,VWS V14.01,2013-02-20 12:08:00,
2013-02-20 07:09:00,11.3,6.6,29.26,NNW,338,3.6,10.1,81,0.00,,,33.01,VWS V14.01,2013-02-20 12:09:00,
2013-02-20 07:10:00,11.3,6.6,29.26,WNW,292,11.0,11.0,81,0.00,,,33.01,VWS V14.01,2013-02-20 12:10:00,
2013-02-20 07:11:00,11.5,6.8,29.26,NNW,338,7.4,8.7,81,0.00,,,33.01,VWS V14.01,2013-02-20 12:11:00,
2013-02-20 07:12:00,11.5,6.8,29.26,WNW,292,7.4,8.7,81,0.00,,,33.01,VWS V14.01,2013-02-20 12:12:00,
2013-02-20 07:13:00,11.5,6.8,29.26,WNW,292,11.9,14.3,81,0.00,,,33.01,VWS V14.01,2013-02-20 12:13:00,
2013-02-20 07:14:00,11.3,6.6,29.26,WNW,292,5.4,11.9,81,0.00,,,33.01,VWS V14.01,2013-02-20 12:14:00,
2013-02-20 07:15:00,11.3,6.6,29.26,NNE,22,8.7,8.7,81,0.00,,,33.01,VWS V14.01,2013-02-20 12:15:00,
2013-02-20 07:16:00,11.3,6.6,29.26,WNW,292,5.8,8.7,81,0.00,,,33.01,VWS V14.01,2013-02-20 12:16:00,
2013-02-20 07:17:00,11.7,7.0,29.32,NNW,338,6.5,7.4,81,0.00,,,33.01,VWS V14.01,2013-02-20 12:17:00,
2013-02-20 07:18:00,11.3,6.6,29.26,NW,315,12.8,12.8,81,0.00,,,33.01,VWS V14.01,2013-02-20 12:18:00,
2013-02-20 07:19:00,11.3,6.6,29.26,NNW,338,6.5,12.8,81,0.00,,,33.01,VWS V14.01,2013-02-20 12:19:00,
2013-02-20 07:20:00,11.3,6.6,29.26,NNW,338,3.4,9.6,81,0.00,,,33.01,VWS V14.01,2013-02-20 12:20:00,
2013-02-20 07:21:00,11.3,6.6,29.26,WNW,292,5.6,13.9,81,0.00,,,33.01,VWS V14.01,2013-02-20 12:21:00,
2013-02-20 07:22:00,11.3,6.6,29.26,WNW,292,4.7,13.9,81,0.00,,,33.01,VWS V14.01,2013-02-20 12:22:00,
2013-02-20 07:23:00,11.3,6.6,29.26,West,270,4.7,4.7,81,0.00,,,33.01,VWS V14.01,2013-02-20 12:23:00,
2013-02-20 07:24:00,11.3,6.6,29.26,NNW,338,10.5,16.1,81,0.00,,,33.01,VWS V14.01,2013-02-20 12:24:00,
2013-02-20 07:25:00,11.3,6.6,29.26,NNW,338,10.5,10.5,81,0.00,,,33.01,VWS V14.01,2013-02-20 12:25:00,
2013-02-20 07:26:00,11.3,6.6,29.26,North,0,4.3,4.3,81,0.00,,,33.01,VWS V14.01,2013-02-20 12:26:00,
2013-02-20 07:27:00,11.3,6.6,29.26,North,0,4.3,4.3,81,0.00,,,33.01,VWS V14.01,2013-02-20 12:27:00,
2013-02-20 07:28:00,11.3,6.6,29.26,WNW,292,6.0,9.4,81,0.00,,,33.01,VWS V14.01,2013-02-20 12:28:00,
2013-02-20 07:29:00,11.3,6.6,29.26,NW,315,4.5,7.4,81,0.00,,,33.01,VWS V14.01,2013-02-20 12:29:00,
2013-02-20 07:30:00,11.3,6.6,29.26,NNW,338,8.7,8.7,81,0.00,,,33.01,VWS V14.01,2013-02-20 12:30:00,
2013-02-20 07:31:00,11.3,6.6,29.26,West,270,4.3,8.7,81,0.00,,,33.01,VWS V14.01,2013-02-20 12:31:00,
2013-02-20 07:32:00,11.5,6.8,29.26,WNW,292,8.1,8.1,81,0.00,,,33.01,VWS V14.01,2013-02-20 12:32:00,
2013-02-20 07:33:00,11.5,6.8,29.26,NNW,338,5.6,14.1,81,0.00,,,33.01,VWS V14.01,2013-02-20 12:33:00,
2013-02-20 07:34:00,11.5,6.8,29.26,NNW,338,5.6,7.4,81,0.00,,,33.01,VWS V14.01,2013-02-20 12:34:00,
2013-02-20 07:35:00,11.5,6.8,29.26,WNW,292,8.5,8.5,81,0.00,,,33.01,VWS V14.01,2013-02-20 12:35:00,
2013-02-20 07:36:00,11.3,6.6,29.26,WNW,292,6.3,10.7,81,0.00,,,33.01,VWS V14.01,2013-02-20 12:36:00,
2013-02-20 07:37:00,11.3,6.6,29.26,NNW,338,3.1,8.7,81,0.00,,,33.01,VWS V14.01,2013-02-20 12:37:00,
2013-02-20 07:38:00,11.3,6.6,29.26,West,270,3.8,6.3,81,0.00,,,33.01,VWS V14.01,2013-02-20 12:38:00,
2013-02-20 07:39:00,11.3,6.6,29.26,WNW,292,8.1,8.1,81,0.00,,,33.01,VWS V14.01,2013-02-20 12:39:00,
2013-02-20 07:40:00,11.3,6.6,29.26,NNW,338,7.2,8.1,81,0.00,,,33.01,VWS V14.01,2013-02-20 12:40:00,
2013-02-20 07:41:00,11.3,6.6,29.26,NNW,338,12.5,12.5,81,0.00,,,33.01,VWS V14.01,2013-02-20 12:41:00,
2013-02-20 07:42:00,11.3,6.6,29.26,NNW,338,4.9,12.5,81,0.00,,,33.01,VWS V14.01,2013-02-20 12:42:00,
2013-02-20 07:43:00,11.3,6.6,29.26,WNW,292,10.3,10.3,81,0.00,,,33.01,VWS V14.01,2013-02-20 12:43:00,
2013-02-20 07:44:00,11.3,6.6,29.26,WNW,292,9.6,11.4,81,0.00,,,33.01,VWS V14.01,2013-02-20 12:44:00,
2013-02-20 07:45:00,11.3,6.6,29.26,NNW,338,4.9,9.6,81,0.00,,,33.01,VWS V14.01,2013-02-20 12:45:00,
2013-02-20 07:46:00,11.3,6.6,29.26,NNW,338,6.0,6.0,81,0.00,,,33.01,VWS V14.01,2013-02-20 12:46:00,
2013-02-20 07:47:00,11.3,6.6,29.26,WNW,292,5.6,6.0,81,0.00,,,33.01,VWS V14.01,2013-02-20 12:47:00,
2013-02-20 07:48:00,11.3,6.6,29.26,NW,315,10.5,10.5,81,0.00,,,33.01,VWS V14.01,2013-02-20 12:48:00,
2013-02-20 07:49:00,11.3,6.6,29.26,WNW,292,6.0,10.5,81,0.00,,,33.01,VWS V14.01,2013-02-20 12:49:00,
2013-02-20 07:50:00,11.3,6.6,29.26,WNW,292,5.4,6.0,81,0.00,,,33.01,VWS V14.01,2013-02-20 12:50:00,
2013-02-20 07:51:00,11.3,6.6,29.26,NNW,338,5.4,5.4,81,0.00,,,33.01,VWS V14.01,2013-02-20 12:51:00,
2013-02-20 07:52:00,11.3,6.6,29.29,WNW,292,6.0,6.0,81,0.00,,,33.01,VWS V14.01,2013-02-20 12:52:00,
2013-02-20 07:53:00,11.3,6.6,29.29,North,0,6.3,9.6,81,0.00,,,33.01,VWS V14.01,2013-02-20 12:53:00,
2013-02-20 07:54:00,11.3,6.6,29.29,WNW,292,5.8,6.3,81,0.00,,,33.01,VWS V14.01,2013-02-20 12:54:00,
2013-02-20 07:55:00,11.3,6.6,29.29,WNW,292,3.8,5.8,81,0.00,,,33.01,VWS V14.01,2013-02-20 12:55:00,
2013-02-20 07:56:00,11.3,6.6,29.29,WNW,292,4.7,6.5,81,0.00,,,33.01,VWS V14.01,2013-02-20 12:56:00,
2013-02-20 07:57:00,11.3,6.6,29.29,NNW,338,7.2,7.2,81,0.00,,,33.01,VWS V14.01,2013-02-20 12:57:00,
2013-02-20 07:58:00,11.3,6.6,29.29,NNW,338,6.5,7.2,81,0.00,,,33.01,VWS V14.01,2013-02-20 12:58:00,
2013-02-20 07:59:00,11.5,6.8,29.29,NW,315,4.3,10.3,81,0.00,,,33.01,VWS V14.01,2013-02-20 12:59:00,
2013-02-20 08:00:00,11.5,6.8,29.29,NW,315,4.3,4.3,81,0.00,,,33.01,VWS V14.01,2013-02-20 13:00:00,
2013-02-20 08:01:00,11.5,6.8,29.29,WNW,292,4.7,9.8,81,0.00,,,33.01,VWS V14.01,2013-02-20 13:01:00,
2013-02-20 08:02:00,11.5,6.8,29.29,NNW,338,6.0,6.0,81,0.00,,,33.01,VWS V14.01,2013-02-20 13:02:00,
2013-02-20 08:03:00,11.5,6.8,29.29,WNW,292,11.0,11.0,81,0.00,,,33.01,VWS V14.01,2013-02-20 13:03:00,
2013-02-20 08:04:00,11.5,6.8,29.29,NNW,338,5.4,11.0,81,0.00,,,33.01,VWS V14.01,2013-02-20 13:04:00,
2013-02-20 08:05:00,11.7,7.0,29.29,WNW,292,5.4,8.5,81,0.00,,,33.01,VWS V14.01,2013-02-20 13:05:00,
2013-02-20 08:06:00,11.7,7.0,29.29,WNW,292,3.4,5.6,81,0.00,,,33.01,VWS V14.01,2013-02-20 13:06:00,
2013-02-20 08:07:00,11.7,7.0,29.32,NNW,338,5.8,5.8,81,0.00,,,33.01,VWS V14.01,2013-02-20 13:07:00,
2013-02-20 08:08:00,11.7,7.0,29.32,NW,315,6.5,11.0,81,0.00,,,33.01,VWS V14.01,2013-02-20 13:08:00,
2013-02-20 08:09:00,11.7,7.0,29.32,NW,315,7.4,8.7,81,0.00,,,33.01,VWS V14.01,2013-02-20 13:09:00,
2013-02-20 08:10:00,11.7,7.0,29.32,NNW,338,3.4,7.4,81,0.00,,,33.01,VWS V14.01,2013-02-20 13:10:00,
2013-02-20 08:11:00,11.7,7.0,29.32,NNW,338,3.4,5.6,81,0.00,,,33.01,VWS V14.01,2013-02-20 13:11:00,
2013-02-20 08:12:00,11.7,7.0,29.32,NW,315,5.8,13.2,81,0.00,,,33.01,VWS V14.01,2013-02-20 13:12:00,
2013-02-20 08:13:00,11.7,7.0,29.32,West,270,6.5,13.2,81,0.00,,,33.01,VWS V14.01,2013-02-20 13:13:00,
2013-02-20 08:14:00,11.7,7.0,29.32,North,0,7.8,7.8,81,0.00,,,33.01,VWS V14.01,2013-02-20 13:14:00,
2013-02-20 08:15:00,11.7,7.0,29.32,North,0,7.8,7.8,81,0.00,,,33.01,VWS V14.01,2013-02-20 13:15:00,
2013-02-20 08:16:00,11.7,7.0,29.32,NNE,22,7.2,8.1,81,0.00,,,33.01,VWS V14.01,2013-02-20 13:16:00,
2013-02-20 08:17:00,11.7,7.0,29.32,NNW,338,6.5,6.5,81,0.00,,,33.01,VWS V14.01,2013-02-20 13:17:00,
2013-02-20 08:18:00,11.7,7.0,29.32,WNW,292,5.8,10.3,81,0.00,,,33.01,VWS V14.01,2013-02-20 13:18:00,
2013-02-20 08:19:00,11.7,7.0,29.32,NNW,338,5.8,10.5,81,0.00,,,33.01,VWS V14.01,2013-02-20 13:19:00,
2013-02-20 08:20:00,11.7,7.0,29.32,NNW,338,5.4,8.7,81,0.00,,,33.01,VWS V14.01,2013-02-20 13:20:00,
2013-02-20 08:21:00,11.7,7.0,29.32,NNE,22,6.3,10.7,81,0.00,,,33.01,VWS V14.01,2013-02-20 13:21:00,
2013-02-20 08:22:00,11.7,7.0,29.32,WNW,292,3.6,5.4,81,0.00,,,33.01,VWS V14.01,2013-02-20 13:22:00,
2013-02-20 08:23:00,11.7,7.0,29.32,NNW,338,3.8,6.0,81,0.00,,,33.01,VWS V14.01,2013-02-20 13:23:00,
2013-02-20 08:24:00,11.8,7.1,29.32,WNW,292,3.6,5.6,81,0.00,,,33.01,VWS V14.01,2013-02-20 13:24:00,
2013-02-20 08:25:00,11.8,7.1,29.32,North,0,8.1,9.8,81,0.00,,,33.01,VWS V14.01,2013-02-20 13:25:00,
2013-02-20 08:26:00,11.8,7.1,29.32,NW,315,7.6,10.3,81,0.00,,,33.01,VWS V14.01,2013-02-20 13:26:00,
2013-02-20 08:27:00,11.8,7.1,29.32,WNW,292,7.6,7.6,81,0.00,,,33.01,VWS V14.01,2013-02-20 13:27:00,
2013-02-20 08:28:00,11.8,7.1,29.32,WNW,292,10.5,10.5,81,0.00,,,33.01,VWS V14.01,2013-02-20 13:28:00,
2013-02-20 08:29:00,11.8,7.1,29.32,NW,315,8.7,10.5,81,0.00,,,33.01,VWS V14.01,2013-02-20 13:29:00,
2013-02-20 08:30:00,11.8,7.1,29.32,North,0,5.4,8.7,81,0.00,,,33.01,VWS V14.01,2013-02-20 13:30:00,
2013-02-20 08:31:00,11.8,7.1,29.32,NNW,338,9.0,9.0,81,0.00,,,33.01,VWS V14.01,2013-02-20 13:31:00,
2013-02-20 08:32:00,11.8,7.1,29.32,WNW,292,8.7,13.0,81,0.00,,,33.01,VWS V14.01,2013-02-20 13:32:00,
2013-02-20 08:33:00,11.8,7.1,29.32,NW,315,3.1,8.7,81,0.00,,,33.01,VWS V14.01,2013-02-20 13:33:00,
2013-02-20 08:34:00,11.8,7.1,29.32,WNW,292,3.1,9.8,81,0.00,,,33.01,VWS V14.01,2013-02-20 13:34:00,
2013-02-20 08:35:00,11.8,7.1,29.32,NE,45,6.3,11.0,81,0.00,,,33.01,VWS V14.01,2013-02-20 13:35:00,
2013-02-20 08:36:00,11.7,7.0,29.32,WNW,292,7.8,10.7,81,0.00,,,33.01,VWS V14.01,2013-02-20 13:36:00,
2013-02-20 08:37:00,11.8,7.1,29.32,NNW,338,8.7,11.9,81,0.00,,,33.01,VWS V14.01,2013-02-20 13:37:00,
2013-02-20 08:38:00,11.8,7.1,29.32,NNW,338,8.7,8.7,81,0.00,,,33.01,VWS V14.01,2013-02-20 13:38:00,
2013-02-20 08:39:00,11.8,7.1,29.32,North,0,4.7,8.7,81,0.00,,,33.01,VWS V14.01,2013-02-20 13:39:00,
2013-02-20 08:40:00,11.8,7.1,29.32,West,270,7.4,7.8,81,0.00,,,33.01,VWS V14.01,2013-02-20 13:40:00,
2013-02-20 08:41:00,11.8,7.1,29.32,NNW,338,5.4,7.4,81,0.00,,,33.01,VWS V14.01,2013-02-20 13:41:00,
2013-02-20 08:42:00,11.8,7.1,29.32,NNW,338,9.6,9.6,81,0.00,,,33.01,VWS V14.01,2013-02-20 13:42:00,
2013-02-20 08:43:00,11.8,7.1,29.32,NW,315,5.4,9.6,81,0.00,,,33.01,VWS V14.01,2013-02-20 13:43:00,
2013-02-20 08:44:00,11.8,7.1,29.32,West,270,8.5,8.5,81,0.00,,,33.01,VWS V14.01,2013-02-20 13:44:00,
2013-02-20 08:45:00,11.8,7.1,29.32,North,0,12.5,12.5,81,0.00,,,33.01,VWS V14.01,2013-02-20 13:45:00,
2013-02-20 08:46:00,11.8,7.1,29.32,WNW,292,4.3,12.5,81,0.00,,,33.01,VWS V14.01,2013-02-20 13:46:00,
2013-02-20 08:47:00,11.8,7.1,29.32,NNW,338,5.4,10.5,81,0.00,,,33.01,VWS V14.01,2013-02-20 13:47:00,
2013-02-20 08:48:00,12.0,7.3,29.32,West,270,3.4,10.5,81,0.00,,,33.01,VWS V14.01,2013-02-20 13:48:00,
2013-02-20 08:49:00,12.0,7.3,29.32,NNW,338,5.6,8.7,81,0.00,,,33.01,VWS V14.01,2013-02-20 13:49:00,
2013-02-20 08:50:00,12.0,7.3,29.32,NW,315,7.2,7.6,81,0.00,,,33.01,VWS V14.01,2013-02-20 13:50:00,
2013-02-20 08:51:00,12.0,7.3,29.32,WSW,248,4.9,7.6,81,0.00,,,33.01,VWS V14.01,2013-02-20 13:51:00,
2013-02-20 08:52:00,12.2,7.5,29.29,NW,315,3.6,3.6,81,0.00,,,33.01,VWS V14.01,2013-02-20 13:52:00,
2013-02-20 08:53:00,12.2,7.5,29.29,NW,315,3.6,3.6,81,0.00,,,33.01,VWS V14.01,2013-02-20 13:53:00,
2013-02-20 08:54:00,13.3,8.6,29.32,NW,315,4.0,4.0,81,0.00,,,33.01,VWS V14.01,2013-02-20 13:54:00,
2013-02-20 08:55:00,13.6,8.9,29.32,WNW,292,3.8,5.8,81,0.00,,,33.01,VWS V14.01,2013-02-20 13:55:00,
2013-02-20 08:56:00,12.2,7.5,29.29,NW,315,4.3,6.7,81,0.00,,,33.01,VWS V14.01,2013-02-20 13:56:00,
2013-02-20 08:57:00,12.2,7.5,29.29,NNW,338,6.5,6.5,81,0.00,,,33.01,VWS V14.01,2013-02-20 13:57:00,
2013-02-20 08:58:00,12.2,7.5,29.29,WNW,292,5.6,6.5,81,0.00,,,33.01,VWS V14.01,2013-02-20 13:58:00,
2013-02-20 08:59:00,12.2,7.5,29.29,NW,315,6.5,7.4,81,0.00,,,33.01,VWS V14.01,2013-02-20 13:59:00,
2013-02-20 09:00:00,12.4,7.7,29.29,NNW,338,3.8,6.5,81,0.00,,,33.01,VWS V14.01,2013-02-20 14:00:00,
2013-02-20 09:01:00,12.4,7.7,29.29,NNW,338,3.8,4.3,81,0.00,,,33.01,VWS V14.01,2013-02-20 14:01:00,
2013-02-20 09:02:00,12.4,7.7,29.29,WNW,292,4.3,8.1,81,0.00,,,33.01,VWS V14.01,2013-02-20 14:02:00,
2013-02-20 09:03:00,12.4,7.7,29.29,WNW,292,4.3,8.1,81,0.00,,,33.01,VWS V14.01,2013-02-20 14:03:00,
2013-02-20 09:04:00,12.4,7.7,29.29,WNW,292,8.1,10.1,81,0.00,,,33.01,VWS V14.01,2013-02-20 14:04:00,
2013-02-20 09:05:00,12.4,7.7,29.29,WNW,292,6.5,8.1,81,0.00,,,33.01,VWS V14.01,2013-02-20 14:05:00,
2013-02-20 09:06:00,12.4,7.7,29.29,WNW,292,7.4,7.6,81,0.00,,,33.01,VWS V14.01,2013-02-20 14:06:00,
2013-02-20 09:07:00,12.4,7.7,29.32,North,0,8.1,8.1,81,0.00,,,33.01,VWS V14.01,2013-02-20 14:07:00,
2013-02-20 09:08:00,12.4,7.7,29.32,North,0,8.1,8.1,81,0.00,,,33.01,VWS V14.01,2013-02-20 14:08:00,
2013-02-20 09:09:00,12.6,7.8,29.32,NNW,338,4.3,8.1,81,0.00,,,33.01,VWS V14.01,2013-02-20 14:09:00,
2013-02-20 09:10:00,12.6,7.8,29.32,WNW,292,3.6,4.9,81,0.00,,,33.01,VWS V14.01,2013-02-20 14:10:00,
2013-02-20 09:11:00,12.6,7.8,29.32,WNW,292,3.6,3.6,81,0.00,,,33.01,VWS V14.01,2013-02-20 14:11:00,
2013-02-20 09:12:00,12.6,7.8,29.32,NNW,338,6.5,10.3,81,0.00,,,33.01,VWS V14.01,2013-02-20 14:12:00,
2013-02-20 09:13:00,13.5,8.7,29.32,NW,315,6.0,6.0,81,0.00,,,33.01,VWS V14.01,2013-02-20 14:13:00,
2013-02-20 09:14:00,12.6,7.8,29.32,WNW,292,7.6,10.3,81,0.00,,,33.01,VWS V14.01,2013-02-20 14:14:00,
2013-02-20 09:15:00,12.6,7.8,29.32,NW,315,8.5,8.5,81,0.00,,,33.01,VWS V14.01,2013-02-20 14:15:00,
2013-02-20 09:16:00,12.6,7.8,29.32,NNW,338,4.7,8.5,81,0.00,,,33.01,VWS V14.01,2013-02-20 14:16:00,
2013-02-20 09:17:00,12.6,7.8,29.32,NNW,338,4.9,8.5,81,0.00,,,33.01,VWS V14.01,2013-02-20 14:17:00,
2013-02-20 09:18:00,12.6,7.8,29.32,NNW,338,11.0,11.0,81,0.00,,,33.01,VWS V14.01,2013-02-20 14:18:00,
2013-02-20 09:19:00,12.6,7.8,29.32,WNW,292,4.3,11.0,81,0.00,,,33.01,VWS V14.01,2013-02-20 14:19:00,
2013-02-20 09:20:00,12.6,7.8,29.32,NW,315,5.8,10.7,81,0.00,,,33.01,VWS V14.01,2013-02-20 14:20:00,
2013-02-20 09:21:00,13.6,8.9,29.32,WNW,292,3.8,8.5,81,0.00,,,33.01,VWS V14.01,2013-02-20 14:21:00,
2013-02-20 09:22:00,12.7,8.0,29.32,NNW,338,3.4,4.3,81,0.00,,,33.01,VWS V14.01,2013-02-20 14:22:00,
2013-02-20 09:23:00,12.6,7.8,29.32,North,0,3.4,12.5,81,0.00,,,33.01,VWS V14.01,2013-02-20 14:23:00,
2013-02-20 09:24:00,12.7,8.0,29.32,West,270,3.4,6.5,81,0.00,,,33.01,VWS V14.01,2013-02-20 14:24:00,
2013-02-20 09:25:00,12.7,8.0,29.32,NNW,338,5.6,7.6,81,0.00,,,33.01,VWS V14.01,2013-02-20 14:25:00,
2013-02-20 09:26:00,12.7,8.0,29.32,NNW,338,5.6,5.6,81,0.00,,,33.01,VWS V14.01,2013-02-20 14:26:00,
2013-02-20 09:27:00,12.7,8.0,29.32,WNW,292,8.1,8.1,81,0.00,,,33.01,VWS V14.01,2013-02-20 14:27:00,
2013-02-20 09:28:00,12.7,8.0,29.32,WNW,292,8.5,10.3,81,0.00,,,33.01,VWS V14.01,2013-02-20 14:28:00,
2013-02-20 09:29:00,12.7,8.0,29.32,NNW,338,3.6,9.4,81,0.00,,,33.01,VWS V14.01,2013-02-20 14:29:00,
2013-02-20 09:30:00,12.9,8.2,29.32,NW,315,7.6,8.7,81,0.00,,,33.01,VWS V14.01,2013-02-20 14:30:00,
2013-02-20 09:31:00,14.0,-1.2,29.35,NW,315,4.0,7.2,50,0.00,,,33.01,VWS V14.01,2013-02-20 14:31:00,
2013-02-20 09:32:00,12.9,8.2,29.32,NW,315,6.0,6.0,81,0.00,,,33.01,VWS V14.01,2013-02-20 14:32:00,
2013-02-20 09:33:00,13.1,8.4,29.32,NNW,338,7.8,7.8,81,0.00,,,33.01,VWS V14.01,2013-02-20 14:33:00,
2013-02-20 09:34:00,13.3,8.6,29.32,NW,315,5.6,7.8,81,0.00,,,33.01,VWS V14.01,2013-02-20 14:34:00,
2013-02-20 09:35:00,13.5,8.7,29.32,North,0,4.0,6.3,81,0.00,,,33.01,VWS V14.01,2013-02-20 14:35:00,
2013-02-20 09:36:00,13.5,8.7,29.32,NW,315,9.0,9.0,81,0.00,,,33.01,VWS V14.01,2013-02-20 14:36:00,
2013-02-20 09:37:00,13.5,8.7,29.32,West,270,4.9,9.8,81,0.00,,,33.01,VWS V14.01,2013-02-20 14:37:00,
2013-02-20 09:38:00,13.3,8.6,29.32,NNW,338,7.8,9.8,81,0.00,,,33.01,VWS V14.01,2013-02-20 14:38:00,
2013-02-20 09:39:00,13.3,8.6,29.32,WNW,292,4.9,7.8,81,0.00,,,33.01,VWS V14.01,2013-02-20 14:39:00,
2013-02-20 09:40:00,13.3,8.6,29.32,NNW,338,7.4,7.4,81,0.00,,,33.01,VWS V14.01,2013-02-20 14:40:00,
2013-02-20 09:41:00,13.3,8.6,29.32,WNW,292,4.0,9.4,81,0.00,,,33.01,VWS V14.01,2013-02-20 14:41:00,
2013-02-20 09:42:00,13.3,8.6,29.32,NW,315,5.6,6.0,81,0.00,,,33.01,VWS V14.01,2013-02-20 14:42:00,
2013-02-20 09:43:00,13.3,8.6,29.32,WSW,248,6.5,6.5,81,0.00,,,33.01,VWS V14.01,2013-02-20 14:43:00,
2013-02-20 09:44:00,13.5,8.7,29.32,NNW,338,3.4,6.5,81,0.00,,,33.01,VWS V14.01,2013-02-20 14:44:00,
2013-02-20 09:45:00,13.6,8.9,29.32,NW,315,5.8,10.1,81,0.00,,,33.01,VWS V14.01,2013-02-20 14:45:00,
2013-02-20 09:46:00,13.5,8.7,29.32,West,270,18.6,18.6,81,0.00,,,33.01,VWS V14.01,2013-02-20 14:46:00,
2013-02-20 09:47:00,13.5,8.7,29.32,West,270,7.8,12.1,81,0.00,,,33.01,VWS V14.01,2013-02-20 14:47:00,
2013-02-20 09:48:00,13.5,8.7,29.32,North,0,9.6,12.1,81,0.00,,,33.01,VWS V14.01,2013-02-20 14:48:00,
2013-02-20 09:49:00,13.3,8.6,29.32,NNW,338,4.0,13.2,81,0.00,,,33.01,VWS V14.01,2013-02-20 14:49:00,
2013-02-20 09:50:00,13.3,8.6,29.32,NNW,338,13.2,13.2,81,0.00,,,33.01,VWS V14.01,2013-02-20 14:50:00,
2013-02-20 09:51:00,13.3,8.6,29.32,WSW,248,6.3,13.2,81,0.00,,,33.01,VWS V14.01,2013-02-20 14:51:00,
2013-02-20 09:52:00,13.3,8.6,29.32,NW,315,6.5,7.6,81,0.00,,,33.01,VWS V14.01,2013-02-20 14:52:00,
2013-02-20 09:53:00,13.3,8.6,29.32,NW,315,4.0,7.6,81,0.00,,,33.01,VWS V14.01,2013-02-20 14:53:00,
2013-02-20 09:54:00,13.3,8.6,29.32,NW,315,4.0,4.0,81,0.00,,,33.01,VWS V14.01,2013-02-20 14:54:00,
2013-02-20 09:55:00,13.6,8.9,29.32,WNW,292,3.8,5.8,81,0.00,,,33.01,VWS V14.01,2013-02-20 14:55:00,
2013-02-20 09:56:00,13.6,8.9,29.32,NNW,338,5.4,5.4,81,0.00,,,33.01,VWS V14.01,2013-02-20 14:56:00,
2013-02-20 09:57:00,13.6,8.9,29.32,West,270,9.8,9.8,81,0.00,,,33.01,VWS V14.01,2013-02-20 14:57:00,
2013-02-20 09:58:00,13.6,8.9,29.32,WNW,292,5.8,9.8,81,0.00,,,33.01,VWS V14.01,2013-02-20 14:58:00,
2013-02-20 09:59:00,13.6,8.9,29.32,WNW,292,3.8,12.1,81,0.00,,,33.01,VWS V14.01,2013-02-20 14:59:00,
2013-02-20 10:00:00,13.3,8.6,29.32,WNW,292,12.5,12.5,81,0.00,,,33.01,VWS V14.01,2013-02-20 15:00:00,
2013-02-20 10:01:00,13.3,8.6,29.32,West,270,6.5,12.5,81,0.00,,,33.01,VWS V14.01,2013-02-20 15:01:00,
2013-02-20 10:02:00,13.6,8.9,29.32,WNW,292,6.0,6.0,81,0.00,,,33.01,VWS V14.01,2013-02-20 15:02:00,
2013-02-20 10:03:00,13.6,8.9,29.32,WNW,292,5.6,6.0,81,0.00,,,33.01,VWS V14.01,2013-02-20 15:03:00,
2013-02-20 10:04:00,13.6,8.9,29.32,NW,315,4.3,6.3,81,0.00,,,33.01,VWS V14.01,2013-02-20 15:04:00,
2013-02-20 10:05:00,13.5,8.7,29.32,WNW,292,6.5,9.8,81,0.00,,,33.01,VWS V14.01,2013-02-20 15:05:00,
2013-02-20 10:06:00,13.5,8.7,29.32,NW,315,3.6,10.3,81,0.00,,,33.01,VWS V14.01,2013-02-20 15:06:00,
2013-02-20 10:07:00,13.5,8.7,29.32,NW,315,3.8,4.9,81,0.00,,,33.01,VWS V14.01,2013-02-20 15:07:00,
2013-02-20 10:08:00,13.6,8.9,29.32,WNW,292,3.6,4.9,81,0.00,,,33.01,VWS V14.01,2013-02-20 15:08:00,
2013-02-20 10:09:00,13.6,8.9,29.32,WNW,292,3.1,14.3,81,0.00,,,33.01,VWS V14.01,2013-02-20 15:09:00,
2013-02-20 10:10:00,13.5,8.7,29.32,WNW,292,5.4,6.7,81,0.00,,,33.01,VWS V14.01,2013-02-20 15:10:00,
2013-02-20 10:11:00,13.5,8.7,29.32,NW,315,6.0,6.0,81,0.00,,,33.01,VWS V14.01,2013-02-20 15:11:00,
2013-02-20 10:12:00,13.5,8.7,29.32,NW,315,6.0,6.0,81,0.00,,,33.01,VWS V14.01,2013-02-20 15:12:00,
2013-02-20 10:13:00,13.5,8.7,29.32,NW,315,6.0,6.0,81,0.00,,,33.01,VWS V14.01,2013-02-20 15:13:00,
2013-02-20 10:14:00,13.6,8.9,29.32,West,270,5.6,6.0,81,0.00,,,33.01,VWS V14.01,2013-02-20 15:14:00,
2013-02-20 10:15:00,15.1,-0.6,29.38,NNW,338,7.4,11.0,49,0.00,,,33.01,VWS V14.01,2013-02-20 15:15:00,
2013-02-20 10:16:00,13.6,8.9,29.32,WNW,292,9.2,9.2,81,0.00,,,33.01,VWS V14.01,2013-02-20 15:16:00,
2013-02-20 10:17:00,13.5,8.7,29.32,WNW,292,7.6,8.5,81,0.00,,,33.01,VWS V14.01,2013-02-20 15:17:00,
2013-02-20 10:18:00,13.5,8.7,29.32,NW,315,5.4,8.5,81,0.00,,,33.01,VWS V14.01,2013-02-20 15:18:00,
2013-02-20 10:19:00,13.6,8.9,29.32,North,0,3.4,9.6,81,0.00,,,33.01,VWS V14.01,2013-02-20 15:19:00,
2013-02-20 10:20:00,13.6,8.9,29.32,WSW,248,8.5,8.5,81,0.00,,,33.01,VWS V14.01,2013-02-20 15:20:00,
2013-02-20 10:21:00,13.6,8.9,29.32,WNW,292,3.8,8.5,81,0.00,,,33.01,VWS V14.01,2013-02-20 15:21:00,
2013-02-20 10:22:00,13.6,8.9,29.35,NNW,338,14.5,14.5,81,0.00,,,33.01,VWS V14.01,2013-02-20 15:22:00,
2013-02-20 10:23:00,13.6,8.9,29.35,NNW,338,14.5,14.5,81,0.00,,,33.01,VWS V14.01,2013-02-20 15:23:00,
2013-02-20 10:24:00,13.6,8.9,29.35,North,0,3.4,14.5,81,0.00,,,33.01,VWS V14.01,2013-02-20 15:24:00,
2013-02-20 10:25:00,13.6,8.9,29.35,NNW,338,4.9,4.9,81,0.00,,,33.01,VWS V14.01,2013-02-20 15:25:00,
2013-02-20 10:26:00,13.8,9.1,29.35,NNW,338,4.0,5.6,81,0.00,,,33.01,VWS V14.01,2013-02-20 15:26:00,
2013-02-20 10:27:00,14.0,-0.4,29.35,NW,315,4.9,10.5,52,0.00,,,33.01,VWS V14.01,2013-02-20 15:27:00,
2013-02-20 10:28:00,14.0,-0.4,29.35,NW,315,4.9,10.5,52,0.00,,,33.01,VWS V14.01,2013-02-20 15:28:00,
2013-02-20 10:29:00,14.2,-0.6,29.35,North,0,5.8,10.5,51,0.00,,,33.01,VWS V14.01,2013-02-20 15:29:00,
2013-02-20 10:30:00,14.0,-1.2,29.35,WNW,292,4.3,10.3,50,0.00,,,33.01,VWS V14.01,2013-02-20 15:30:00,
2013-02-20 10:31:00,14.0,-1.2,29.35,NW,315,4.0,7.2,50,0.00,,,33.01,VWS V14.01,2013-02-20 15:31:00,
2013-02-20 10:32:00,14.0,-1.2,29.35,NW,315,2.5,4.0,50,0.00,,,33.01,VWS V14.01,2013-02-20 15:32:00,
2013-02-20 10:33:00,14.2,-1.0,29.35,WNW,292,9.8,13.4,50,0.00,,,33.01,VWS V14.01,2013-02-20 15:33:00,
2013-02-20 10:34:00,14.4,-1.3,29.35,WNW,292,8.1,9.8,49,0.00,,,33.01,VWS V14.01,2013-02-20 15:34:00,
2013-02-20 10:35:00,16.3,-0.3,29.35,NW,315,3.6,5.6,47,0.00,,,33.01,VWS V14.01,2013-02-20 15:35:00,
2013-02-20 10:36:00,14.5,-0.7,29.35,NNW,338,6.5,8.1,50,0.00,,,33.01,VWS V14.01,2013-02-20 15:36:00,
2013-02-20 10:37:00,14.5,-0.7,29.35,NNW,338,5.6,6.5,50,0.00,,,33.01,VWS V14.01,2013-02-20 15:37:00,
2013-02-20 10:38:00,14.5,-0.7,29.35,WNW,292,3.8,5.6,50,0.00,,,33.01,VWS V14.01,2013-02-20 15:38:00,
2013-02-20 10:39:00,14.4,-0.4,29.35,WNW,292,7.2,7.2,51,0.00,,,33.01,VWS V14.01,2013-02-20 15:39:00,
2013-02-20 10:40:00,14.4,-0.4,29.35,WNW,292,5.6,7.2,51,0.00,,,33.01,VWS V14.01,2013-02-20 15:40:00,
2013-02-20 10:41:00,14.4,-0.4,29.35,NNW,338,3.6,5.6,51,0.00,,,33.01,VWS V14.01,2013-02-20 15:41:00,
2013-02-20 10:42:00,14.5,-0.7,29.35,West,270,7.8,9.6,50,0.00,,,33.01,VWS V14.01,2013-02-20 15:42:00,
2013-02-20 10:43:00,14.5,-0.7,29.35,NNW,338,7.6,7.8,50,0.00,,,33.01,VWS V14.01,2013-02-20 15:43:00,
2013-02-20 10:44:00,14.5,-0.7,29.35,SW,225,4.3,7.8,50,0.00,,,33.01,VWS V14.01,2013-02-20 15:44:00,
2013-02-20 10:45:00,14.5,-0.7,29.35,NNW,338,5.4,7.6,50,0.00,,,33.01,VWS V14.01,2013-02-20 15:45:00,
2013-02-20 10:46:00,14.5,-0.7,29.35,WNW,292,3.8,8.1,50,0.00,,,33.01,VWS V14.01,2013-02-20 15:46:00,
2013-02-20 10:47:00,14.5,-0.7,29.35,West,270,6.3,15.9,50,0.00,,,33.01,VWS V14.01,2013-02-20 15:47:00,
2013-02-20 10:48:00,14.4,-0.9,29.35,NNE,22,6.5,9.2,50,0.00,,,33.01,VWS V14.01,2013-02-20 15:48:00,
2013-02-20 10:49:00,14.4,-0.9,29.35,NNW,338,9.4,9.4,50,0.00,,,33.01,VWS V14.01,2013-02-20 15:49:00,
2013-02-20 10:50:00,14.4,-0.9,29.35,WSW,248,2.9,9.4,50,0.00,,,33.01,VWS V14.01,2013-02-20 15:50:00,
2013-02-20 10:51:00,14.5,-0.7,29.35,NNW,338,7.2,8.7,50,0.00,,,33.01,VWS V14.01,2013-02-20 15:51:00,
2013-02-20 10:52:00,14.5,-0.7,29.35,NW,315,7.4,8.5,50,0.00,,,33.01,VWS V14.01,2013-02-20 15:52:00,
2013-02-20 10:53:00,14.4,-0.9,29.35,NW,315,2.7,11.0,50,0.00,,,33.01,VWS V14.01,2013-02-20 15:53:00,
2013-02-20 10:54:00,14.5,-0.7,29.35,WNW,292,10.1,10.1,50,0.00,,,33.01,VWS V14.01,2013-02-20 15:54:00,
2013-02-20 10:55:00,14.9,-0.4,29.35,NNW,338,5.6,11.0,50,0.00,,,33.01,VWS V14.01,2013-02-20 15:55:00,
2013-02-20 10:56:00,16.0,-0.7,29.35,NNW,338,4.0,9.6,47,0.00,,,33.01,VWS V14.01,2013-02-20 15:56:00,
2013-02-20 10:57:00,14.7,-1.0,29.35,West,270,9.4,9.4,49,0.00,,,33.01,VWS V14.01,2013-02-20 15:57:00,
2013-02-20 10:58:00,14.9,-0.8,29.35,NNW,338,3.8,10.1,49,0.00,,,33.01,VWS V14.01,2013-02-20 15:58:00,
2013-02-20 10:59:00,14.9,-0.8,29.35,WNW,292,8.5,8.5,49,0.00,,,33.01,VWS V14.01,2013-02-20 15:59:00,
2013-02-20 11:00:00,14.7,-1.0,29.35,NW,315,5.6,8.5,49,0.00,,,33.01,VWS V14.01,2013-02-20 16:00:00,
2013-02-20 11:01:00,14.4,-0.9,29.35,WNW,292,12.1,12.1,50,0.00,,,33.01,VWS V14.01,2013-02-20 16:01:00,
2013-02-20 11:02:00,14.4,-1.3,29.35,WSW,248,9.8,12.1,49,0.00,,,33.01,VWS V14.01,2013-02-20 16:02:00,
2013-02-20 11:03:00,14.5,-1.1,29.35,North,0,6.3,9.8,49,0.00,,,33.01,VWS V14.01,2013-02-20 16:03:00,
2013-02-20 11:04:00,14.5,-1.6,29.35,NNW,338,6.7,7.6,48,0.00,,,33.01,VWS V14.01,2013-02-20 16:04:00,
2013-02-20 11:05:00,14.9,-0.8,29.35,NW,315,4.3,6.7,49,0.00,,,33.01,VWS V14.01,2013-02-20 16:05:00,
2013-02-20 11:06:00,14.9,-0.8,29.35,NNW,338,6.5,6.5,49,0.00,,,33.01,VWS V14.01,2013-02-20 16:06:00,
2013-02-20 11:07:00,15.1,-0.6,29.38,NW,315,12.8,12.8,49,0.00,,,33.01,VWS V14.01,2013-02-20 16:07:00,
2013-02-20 11:08:00,14.9,-0.8,29.38,North,0,8.5,12.8,49,0.00,,,33.01,VWS V14.01,2013-02-20 16:08:00,
2013-02-20 11:09:00,14.9,-0.8,29.38,North,0,6.3,8.5,49,0.00,,,33.01,VWS V14.01,2013-02-20 16:09:00,
2013-02-20 11:10:00,15.3,-0.5,29.38,NNW,338,3.6,7.4,49,0.00,,,33.01,VWS V14.01,2013-02-20 16:10:00,
2013-02-20 11:11:00,16.9,0.2,29.38,North,0,3.1,3.8,47,0.00,,,33.01,VWS V14.01,2013-02-20 16:11:00,
2013-02-20 11:12:00,17.1,0.8,29.38,NW,315,3.8,4.3,48,0.00,,,33.01,VWS V14.01,2013-02-20 16:12:00,
2013-02-20 11:13:00,15.4,-0.3,29.38,WNW,292,3.8,8.7,49,0.00,,,33.01,VWS V14.01,2013-02-20 16:13:00,
2013-02-20 11:14:00,15.1,-0.6,29.38,NW,315,11.0,11.0,49,0.00,,,33.01,VWS V14.01,2013-02-20 16:14:00,
2013-02-20 11:15:00,15.1,-0.6,29.38,NNW,338,7.4,11.0,49,0.00,,,33.01,VWS V14.01,2013-02-20 16:15:00,
2013-02-20 11:16:00,14.5,-1.6,29.38,North,0,11.9,11.9,48,0.00,,,33.01,VWS V14.01,2013-02-20 16:16:00,
2013-02-20 11:17:00,14.9,-1.2,29.38,NNW,338,6.3,11.9,48,0.00,,,33.01,VWS V14.01,2013-02-20 16:17:00,
2013-02-20 11:18:00,15.1,-1.1,29.38,NW,315,3.4,7.8,48,0.00,,,33.01,VWS V14.01,2013-02-20 16:18:00,
2013-02-20 11:19:00,14.9,-1.2,29.38,NNW,338,6.3,12.1,48,0.00,,,33.01,VWS V14.01,2013-02-20 16:19:00,
2013-02-20 11:20:00,15.3,-0.9,29.38,NNW,338,4.7,6.3,48,0.00,,,33.01,VWS V14.01,2013-02-20 16:20:00,
2013-02-20 11:21:00,15.3,-0.9,29.38,NNW,338,6.5,8.5,48,0.00,,,33.01,VWS V14.01,2013-02-20 16:21:00,
2013-02-20 11:22:00,15.4,-0.3,29.35,NW,315,4.0,6.5,49,0.00,,,33.01,VWS V14.01,2013-02-20 16:22:00,
2013-02-20 11:23:00,14.9,-1.7,29.35,WNW,292,6.9,10.3,47,0.00,,,33.01,VWS V14.01,2013-02-20 16:23:00,
2013-02-20 11:24:00,14.9,-1.7,29.35,WNW,292,6.9,10.3,47,0.00,,,33.01,VWS V14.01,2013-02-20 16:24:00,
2013-02-20 11:25:00,15.3,-1.3,29.35,NW,315,6.3,7.4,47,0.00,,,33.01,VWS V14.01,2013-02-20 16:25:00,
2013-02-20 11:26:00,15.3,-1.3,29.35,WNW,292,7.6,7.6,47,0.00,,,33.01,VWS V14.01,2013-02-20 16:26:00,
2013-02-20 11:27:00,15.3,-1.3,29.35,NNW,338,4.3,7.6,47,0.00,,,33.01,VWS V14.01,2013-02-20 16:27:00,
2013-02-20 11:28:00,15.8,-0.9,29.35,WNW,292,6.3,9.8,47,0.00,,,33.01,VWS V14.01,2013-02-20 16:28:00,
2013-02-20 11:29:00,15.8,-0.9,29.35,NNW,338,4.3,9.8,47,0.00,,,33.01,VWS V14.01,2013-02-20 16:29:00,
2013-02-20 11:30:00,15.8,-0.9,29.35,West,270,3.8,10.7,47,0.00,,,33.01,VWS V14.01,2013-02-20 16:30:00,
2013-02-20 11:31:00,16.0,-0.7,29.35,West,270,10.1,10.1,47,0.00,,,33.01,VWS V14.01,2013-02-20 16:31:00,
2013-02-20 11:32:00,16.0,-0.7,29.35,NW,315,7.4,10.1,47,0.00,,,33.01,VWS V14.01,2013-02-20 16:32:00,
2013-02-20 11:33:00,16.3,-0.3,29.35,WNW,292,5.6,5.6,47,0.00,,,33.01,VWS V14.01,2013-02-20 16:33:00,
2013-02-20 11:34:00,17.1,0.3,29.38,WNW,292,9.4,9.4,47,0.00,,,33.01,VWS V14.01,2013-02-20 16:34:00,
2013-02-20 11:35:00,16.3,-0.3,29.35,NW,315,3.6,5.6,47,0.00,,,33.01,VWS V14.01,2013-02-20 16:35:00,
2013-02-20 11:36:00,16.5,-0.2,29.35,NNW,338,6.0,7.6,47,0.00,,,33.01,VWS V14.01,2013-02-20 16:36:00,
2013-02-20 11:37:00,16.5,-0.2,29.35,WNW,292,4.5,8.5,47,0.00,,,33.01,VWS V14.01,2013-02-20 16:37:00,
2013-02-20 11:38:00,16.5,-0.2,29.35,NW,315,3.8,7.8,47,0.00,,,33.01,VWS V14.01,2013-02-20 16:38:00,
2013-02-20 11:39:00,16.5,-0.2,29.35,NW,315,3.8,7.8,47,0.00,,,33.01,VWS V14.01,2013-02-20 16:39:00,
2013-02-20 11:40:00,16.7,-0.5,29.35,NNW,338,7.8,7.8,46,0.00,,,33.01,VWS V14.01,2013-02-20 16:40:00,
2013-02-20 11:41:00,17.1,0.8,29.38,WNW,292,5.4,5.8,48,0.00,,,33.01,VWS V14.01,2013-02-20 16:41:00,
2013-02-20 11:42:00,16.9,-0.3,29.35,NNW,338,4.9,4.9,46,0.00,,,33.01,VWS V14.01,2013-02-20 16:42:00,
2013-02-20 11:43:00,16.5,-0.6,29.35,West,270,3.1,6.3,46,0.00,,,33.01,VWS V14.01,2013-02-20 16:43:00,
2013-02-20 11:44:00,16.5,-0.6,29.35,NW,315,3.6,6.3,46,0.00,,,33.01,VWS V14.01,2013-02-20 16:44:00,
2013-02-20 11:45:00,16.5,-0.6,29.35,NW,315,3.6,3.6,46,0.00,,,33.01,VWS V14.01,2013-02-20 16:45:00,
2013-02-20 11:46:00,16.9,0.2,29.35,North,0,4.0,8.5,47,0.00,,,33.01,VWS V14.01,2013-02-20 16:46:00,
2013-02-20 11:47:00,16.9,0.2,29.35,NNW,338,6.7,6.7,47,0.00,,,33.01,VWS V14.01,2013-02-20 16:47:00,
2013-02-20 11:48:00,16.2,-0.5,29.35,WNW,292,11.0,11.0,47,0.00,,,33.01,VWS V14.01,2013-02-20 16:48:00,
2013-02-20 11:49:00,16.2,-0.5,29.35,NNW,338,3.4,11.0,47,0.00,,,33.01,VWS V14.01,2013-02-20 16:49:00,
2013-02-20 11:50:00,16.2,-0.5,29.35,WSW,248,3.8,7.6,47,0.00,,,33.01,VWS V14.01,2013-02-20 16:50:00,
2013-02-20 11:51:00,16.2,-0.5,29.35,North,0,6.0,11.0,47,0.00,,,33.01,VWS V14.01,2013-02-20 16:51:00,
2013-02-20 11:52:00,16.0,-0.7,29.35,NNW,338,4.0,6.0,47,0.00,,,33.01,VWS V14.01,2013-02-20 16:52:00,
2013-02-20 11:53:00,15.8,-0.4,29.35,North,0,4.0,4.0,48,0.00,,,33.01,VWS V14.01,2013-02-20 16:53:00,
2013-02-20 11:54:00,16.0,-0.7,29.35,WNW,292,9.6,9.6,47,0.00,,,33.01,VWS V14.01,2013-02-20 16:54:00,
2013-02-20 11:55:00,16.9,0.2,29.38,WNW,292,3.6,6.9,47,0.00,,,33.01,VWS V14.01,2013-02-20 16:55:00,
2013-02-20 11:56:00,16.0,-0.7,29.35,NNW,338,4.0,9.6,47,0.00,,,33.01,VWS V14.01,2013-02-20 16:56:00,
2013-02-20 11:57:00,16.0,-0.7,29.35,WNW,292,4.0,8.7,47,0.00,,,33.01,VWS V14.01,2013-02-20 16:57:00,
2013-02-20 11:58:00,16.5,-0.2,29.35,West,270,5.8,5.8,47,0.00,,,33.01,VWS V14.01,2013-02-20 16:58:00,
2013-02-20 11:59:00,16.5,-0.2,29.35,West,270,5.8,5.8,47,0.00,,,33.01,VWS V14.01,2013-02-20 16:59:00,
2013-02-20 12:00:00,16.2,-0.1,29.35,NW,315,3.4,5.8,48,0.00,,,33.01,VWS V14.01,2013-02-20 17:00:00,
2013-02-20 12:01:00,16.2,-0.1,29.35,ENE,68,4.0,4.9,48,0.00,,,33.01,VWS V14.01,2013-02-20 17:01:00,
2013-02-20 12:02:00,16.2,-0.1,29.35,ENE,68,4.0,4.0,48,0.00,,,33.01,VWS V14.01,2013-02-20 17:02:00,
2013-02-20 12:03:00,16.0,-0.2,29.35,NNW,338,3.6,4.7,48,0.00,,,33.01,VWS V14.01,2013-02-20 17:03:00,
2013-02-20 12:04:00,17.1,0.8,29.38,WNW,292,4.3,8.7,48,0.00,,,33.01,VWS V14.01,2013-02-20 17:04:00,
2013-02-20 12:05:00,16.0,-0.2,29.35,NW,315,3.6,7.4,48,0.00,,,33.01,VWS V14.01,2013-02-20 17:05:00,
2013-02-20 12:06:00,16.0,-0.2,29.35,WSW,248,10.3,10.3,48,0.00,,,33.01,VWS V14.01,2013-02-20 17:06:00,
2013-02-20 12:07:00,16.0,-0.2,29.38,West,270,7.6,10.3,48,0.00,,,33.01,VWS V14.01,2013-02-20 17:07:00,
2013-02-20 12:08:00,16.2,-0.5,29.38,North,0,3.6,3.6,47,0.00,,,33.01,VWS V14.01,2013-02-20 17:08:00,
2013-02-20 12:09:00,16.2,-0.5,29.38,North,0,7.6,7.6,47,0.00,,,33.01,VWS V14.01,2013-02-20 17:09:00,
2013-02-20 12:10:00,16.3,-0.3,29.38,NNW,338,3.8,7.6,47,0.00,,,33.01,VWS V14.01,2013-02-20 17:10:00,
2013-02-20 12:11:00,16.9,0.2,29.38,North,0,3.1,3.8,47,0.00,,,33.01,VWS V14.01,2013-02-20 17:11:00,
2013-02-20 12:12:00,18.1,1.3,29.38,West,270,4.3,6.5,47,0.00,,,33.01,VWS V14.01,2013-02-20 17:12:00,
2013-02-20 12:13:00,16.7,0.0,29.38,WNW,292,12.1,12.1,47,0.00,,,33.01,VWS V14.01,2013-02-20 17:13:00,
2013-02-20 12:14:00,16.7,0.0,29.38,NW,315,3.4,12.1,47,0.00,,,33.01,VWS V14.01,2013-02-20 17:14:00,
2013-02-20 12:15:00,16.7,0.0,29.38,NW,315,4.3,5.4,47,0.00,,,33.01,VWS V14.01,2013-02-20 17:15:00,
2013-02-20 12:16:00,17.1,0.3,29.38,NNW,338,4.7,4.7,47,0.00,,,33.01,VWS V14.01,2013-02-20 17:16:00,
2013-02-20 12:17:00,16.9,0.2,29.38,NNW,338,5.6,6.0,47,0.00,,,33.01,VWS V14.01,2013-02-20 17:17:00,
2013-02-20 12:18:00,16.9,0.2,29.38,NNW,338,6.5,7.2,47,0.00,,,33.01,VWS V14.01,2013-02-20 17:18:00,
2013-02-20 12:19:00,16.7,0.0,29.38,NW,315,6.3,6.5,47,0.00,,,33.01,VWS V14.01,2013-02-20 17:19:00,
2013-02-20 12:20:00,16.7,0.0,29.38,WNW,292,7.8,9.4,47,0.00,,,33.01,VWS V14.01,2013-02-20 17:20:00,
2013-02-20 12:21:00,16.5,-0.2,29.38,WNW,292,8.1,8.1,47,0.00,,,33.01,VWS V14.01,2013-02-20 17:21:00,
2013-02-20 12:22:00,16.3,-0.3,29.38,NW,315,2.7,8.1,47,0.00,,,33.01,VWS V14.01,2013-02-20 17:22:00,
2013-02-20 12:23:00,16.7,0.0,29.38,WNW,292,5.4,6.7,47,0.00,,,33.01,VWS V14.01,2013-02-20 17:23:00,
2013-02-20 12:24:00,17.2,0.5,29.38,WNW,292,3.4,6.7,47,0.00,,,33.01,VWS V14.01,2013-02-20 17:24:00,
2013-02-20 12:25:00,17.1,0.3,29.38,WNW,292,5.6,5.8,47,0.00,,,33.01,VWS V14.01,2013-02-20 17:25:00,
2013-02-20 12:26:00,17.8,1.0,29.38,NW,315,2.7,8.5,47,0.00,,,33.01,VWS V14.01,2013-02-20 17:26:00,
2013-02-20 12:27:00,17.8,1.0,29.38,NNW,338,2.0,2.7,47,0.00,,,33.01,VWS V14.01,2013-02-20 17:27:00,
2013-02-20 12:28:00,17.6,0.8,29.38,NW,315,8.7,8.7,47,0.00,,,33.01,VWS V14.01,2013-02-20 17:28:00,
2013-02-20 12:29:00,17.6,0.8,29.38,WSW,248,6.0,8.7,47,0.00,,,33.01,VWS V14.01,2013-02-20 17:29:00,
2013-02-20 12:30:00,17.6,0.8,29.38,West,270,7.4,7.6,47,0.00,,,33.01,VWS V14.01,2013-02-20 17:30:00,
2013-02-20 12:31:00,17.6,1.3,29.38,West,270,3.4,7.4,48,0.00,,,33.01,VWS V14.01,2013-02-20 17:31:00,
2013-02-20 12:32:00,17.2,0.5,29.38,North,0,7.8,13.0,47,0.00,,,33.01,VWS V14.01,2013-02-20 17:32:00,
2013-02-20 12:33:00,17.1,0.3,29.38,WNW,292,4.3,5.6,47,0.00,,,33.01,VWS V14.01,2013-02-20 17:33:00,
2013-02-20 12:34:00,17.1,0.3,29.38,WNW,292,9.4,9.4,47,0.00,,,33.01,VWS V14.01,2013-02-20 17:34:00,
2013-02-20 12:36:00,16.5,-0.6,29.38,WNW,292,6.0,7.6,46,0.00,,,33.01,VWS V14.01,2013-02-20 17:36:00,
2013-02-20 12:37:00,16.2,-0.5,29.38,NW,315,4.9,7.6,47,0.00,,,33.01,VWS V14.01,2013-02-20 17:37:00,
2013-02-20 12:38:00,16.7,0.0,29.38,NNW,338,3.8,5.4,47,0.00,,,33.01,VWS V14.01,2013-02-20 17:38:00,
2013-02-20 12:39:00,17.1,0.8,29.38,NW,315,4.0,5.4,48,0.00,,,33.01,VWS V14.01,2013-02-20 17:39:00,
2013-02-20 12:40:00,17.4,1.1,29.38,NW,315,3.1,4.0,48,0.00,,,33.01,VWS V14.01,2013-02-20 17:40:00,
2013-02-20 12:41:00,17.1,0.8,29.38,WNW,292,5.4,5.8,48,0.00,,,33.01,VWS V14.01,2013-02-20 17:41:00,
2013-02-20 12:42:00,17.4,1.1,29.38,WNW,292,3.4,5.4,48,0.00,,,33.01,VWS V14.01,2013-02-20 17:42:00,
2013-02-20 12:43:00,17.4,1.1,29.38,ENE,68,3.8,5.4,48,0.00,,,33.01,VWS V14.01,2013-02-20 17:43:00,
2013-02-20 12:44:00,17.4,1.1,29.38,NW,315,2.9,5.4,48,0.00,,,33.01,VWS V14.01,2013-02-20 17:44:00,
2013-02-20 12:45:00,17.8,1.4,29.38,NNW,338,3.6,3.6,48,0.00,,,33.01,VWS V14.01,2013-02-20 17:45:00,
2013-02-20 12:46:00,17.6,1.3,29.38,NW,315,3.8,3.8,48,0.00,,,33.01,VWS V14.01,2013-02-20 17:46:00,
2013-02-20 12:47:00,17.6,1.3,29.38,NW,315,3.8,3.8,48,0.00,,,33.01,VWS V14.01,2013-02-20 17:47:00,
2013-02-20 12:48:00,16.9,0.2,29.38,WNW,292,6.5,10.1,47,0.00,,,33.01,VWS V14.01,2013-02-20 17:48:00,
2013-02-20 12:49:00,16.9,0.2,29.38,WNW,292,6.5,10.1,47,0.00,,,33.01,VWS V14.01,2013-02-20 17:49:00,
2013-02-20 12:50:00,16.7,0.4,29.38,NNW,338,4.3,6.5,48,0.00,,,33.01,VWS V14.01,2013-02-20 17:50:00,
2013-02-20 12:51:00,16.7,0.0,29.38,West,270,4.7,8.5,47,0.00,,,33.01,VWS V14.01,2013-02-20 17:51:00,
2013-02-20 12:52:00,16.7,0.0,29.38,NNW,338,6.0,8.1,47,0.00,,,33.01,VWS V14.01,2013-02-20 17:52:00,
2013-02-20 12:53:00,16.9,0.2,29.38,West,270,3.8,6.0,47,0.00,,,33.01,VWS V14.01,2013-02-20 17:53:00,
2013-02-20 12:54:00,16.9,0.2,29.38,NW,315,4.0,4.0,47,0.00,,,33.01,VWS V14.01,2013-02-20 17:54:00,
2013-02-20 12:55:00,18.1,1.3,29.38,NW,315,4.7,5.8,47,0.00,,,33.01,VWS V14.01,2013-02-20 17:55:00,
2013-02-20 12:56:00,16.9,0.2,29.38,WNW,292,3.6,3.8,47,0.00,,,33.01,VWS V14.01,2013-02-20 17:56:00,
2013-02-20 12:57:00,17.4,1.1,29.38,WNW,292,5.4,5.4,48,0.00,,,33.01,VWS V14.01,2013-02-20 17:57:00,
2013-02-20 12:58:00,17.2,0.9,29.38,NW,315,5.6,7.4,48,0.00,,,33.01,VWS V14.01,2013-02-20 17:58:00,
2013-02-20 12:59:00,17.2,0.9,29.38,NW,315,5.6,7.4,48,0.00,,,33.01,VWS V14.01,2013-02-20 17:59:00,
2013-02-20 13:00:00,17.2,0.5,29.38,SW,225,10.3,10.3,47,0.00,,,33.01,VWS V14.01,2013-02-20 18:00:00,
2013-02-20 13:01:00,17.2,0.5,29.38,WNW,292,2.7,10.3,47,0.00,,,33.01,VWS V14.01,2013-02-20 18:01:00,
2013-02-20 13:02:00,16.9,0.2,29.38,WNW,292,6.3,6.3,47,0.00,,,33.01,VWS V14.01,2013-02-20 18:02:00,
2013-02-20 13:03:00,17.1,0.8,29.38,WNW,292,3.1,9.6,48,0.00,,,33.01,VWS V14.01,2013-02-20 18:03:00,
2013-02-20 13:04:00,17.1,0.8,29.38,WNW,292,4.3,8.7,48,0.00,,,33.01,VWS V14.01,2013-02-20 18:04:00,
2013-02-20 13:05:00,17.1,0.8,29.38,North,0,5.8,7.2,48,0.00,,,33.01,VWS V14.01,2013-02-20 18:05:00,
2013-02-20 13:06:00,16.9,0.2,29.38,West,270,3.4,10.3,47,0.00,,,33.01,VWS V14.01,2013-02-20 18:06:00,
2013-02-20 13:07:00,16.9,0.2,29.38,WNW,292,4.3,4.3,47,0.00,,,33.01,VWS V14.01,2013-02-20 18:07:00,
2013-02-20 13:08:00,17.6,0.8,29.38,WNW,292,4.0,4.3,47,0.00,,,33.01,VWS V14.01,2013-02-20 18:08:00,
2013-02-20 13:09:00,17.6,0.8,29.38,NW,315,4.3,4.3,47,0.00,,,33.01,VWS V14.01,2013-02-20 18:09:00,
2013-02-20 13:10:00,18.1,1.3,29.38,NW,315,5.4,5.8,47,0.00,,,33.01,VWS V14.01,2013-02-20 18:10:00,
2013-02-20 13:11:00,17.4,1.1,29.38,West,270,4.0,6.3,48,0.00,,,33.01,VWS V14.01,2013-02-20 18:11:00,
2013-02-20 13:12:00,18.1,1.3,29.38,West,270,4.3,6.5,47,0.00,,,33.01,VWS V14.01,2013-02-20 18:12:00,
2013-02-20 13:13:00,17.8,1.0,29.38,WNW,292,2.9,6.0,47,0.00,,,33.01,VWS V14.01,2013-02-20 18:13:00,
2013-02-20 13:14:00,17.6,0.8,29.38,WSW,248,6.0,9.8,47,0.00,,,33.01,VWS V14.01,2013-02-20 18:14:00,
2013-02-20 13:15:00,17.8,1.0,29.38,WSW,248,5.4,6.0,47,0.00,,,33.01,VWS V14.01,2013-02-20 18:15:00,
2013-02-20 13:16:00,18.0,1.1,29.38,WNW,292,5.4,5.6,47,0.00,,,33.01,VWS V14.01,2013-02-20 18:16:00,
2013-02-20 13:17:00,17.6,0.8,29.38,NE,45,5.8,6.0,47,0.00,,,33.01,VWS V14.01,2013-02-20 18:17:00,
2013-02-20 13:18:00,18.1,0.9,29.38,WNW,292,2.5,6.0,46,0.00,,,33.01,VWS V14.01,2013-02-20 18:18:00,
2013-02-20 13:19:00,17.6,0.8,29.38,NNW,338,6.5,6.5,47,0.00,,,33.01,VWS V14.01,2013-02-20 18:19:00,
2013-02-20 13:20:00,17.6,0.8,29.38,WNW,292,2.2,6.5,47,0.00,,,33.01,VWS V14.01,2013-02-20 18:20:00,
2013-02-20 13:21:00,17.4,0.6,29.38,NW,315,7.4,7.4,47,0.00,,,33.01,VWS V14.01,2013-02-20 18:21:00,
2013-02-20 13:22:00,17.4,0.6,29.38,West,270,3.6,7.4,47,0.00,,,33.01,VWS V14.01,2013-02-20 18:22:00,
2013-02-20 13:23:00,17.8,1.0,29.38,NW,315,3.4,3.8,47,0.00,,,33.01,VWS V14.01,2013-02-20 18:23:00,
2013-02-20 13:24:00,18.3,1.5,29.38,NNW,338,7.8,7.8,47,0.00,,,33.01,VWS V14.01,2013-02-20 18:24:00,
2013-02-20 13:25:00,17.4,0.6,29.38,NW,315,9.0,10.7,47,0.00,,,33.01,VWS V14.01,2013-02-20 18:25:00,
2013-02-20 13:26:00,17.4,0.6,29.38,NNW,338,3.1,9.0,47,0.00,,,33.01,VWS V14.01,2013-02-20 18:26:00,
2013-02-20 13:27:00,17.4,0.6,29.38,WNW,292,3.1,5.6,47,0.00,,,33.01,VWS V14.01,2013-02-20 18:27:00,
2013-02-20 13:28:00,17.8,1.0,29.38,WNW,292,2.9,3.1,47,0.00,,,33.01,VWS V14.01,2013-02-20 18:28:00,
2013-02-20 13:29:00,17.8,1.0,29.38,West,270,5.8,5.8,47,0.00,,,33.01,VWS V14.01,2013-02-20 18:29:00,
2013-02-20 13:30:00,17.6,0.8,29.38,West,270,7.4,7.6,47,0.00,,,33.01,VWS V14.01,2013-02-20 18:30:00,
2013-02-20 13:31:00,16.7,0.4,29.38,WNW,292,6.3,9.2,48,0.00,,,33.01,VWS V14.01,2013-02-20 18:31:00,
2013-02-20 13:32:00,17.8,1.0,29.38,WNW,292,8.1,10.5,47,0.00,,,33.01,VWS V14.01,2013-02-20 18:32:00,
2013-02-20 13:33:00,17.6,0.8,29.38,WNW,292,5.8,8.1,47,0.00,,,33.01,VWS V14.01,2013-02-20 18:33:00,
2013-02-20 13:34:00,17.6,0.8,29.38,WNW,292,7.4,8.1,47,0.00,,,33.01,VWS V14.01,2013-02-20 18:34:00,
2013-02-20 13:35:00,17.1,1.2,29.38,WSW,248,4.3,5.6,49,0.00,,,33.01,VWS V14.01,2013-02-20 18:35:00,
2013-02-20 13:36:00,17.6,0.8,29.38,WNW,292,8.5,8.5,47,0.00,,,33.01,VWS V14.01,2013-02-20 18:36:00,
2013-02-20 13:37:00,17.6,0.8,29.38,North,0,6.5,8.5,47,0.00,,,33.01,VWS V14.01,2013-02-20 18:37:00,
2013-02-20 13:38:00,17.6,0.8,29.38,West,270,6.5,7.6,47,0.00,,,33.01,VWS V14.01,2013-02-20 18:38:00,
2013-02-20 13:39:00,17.6,0.8,29.38,West,270,7.8,9.4,47,0.00,,,33.01,VWS V14.01,2013-02-20 18:39:00,
2013-02-20 13:40:00,17.6,0.8,29.38,WNW,292,3.6,7.8,47,0.00,,,33.01,VWS V14.01,2013-02-20 18:40:00,
2013-02-20 13:41:00,17.6,0.3,29.38,West,270,3.8,7.2,46,0.00,,,33.01,VWS V14.01,2013-02-20 18:41:00,
2013-02-20 13:42:00,17.6,0.8,29.38,NW,315,3.1,3.8,47,0.00,,,33.01,VWS V14.01,2013-02-20 18:42:00,
2013-02-20 13:43:00,17.6,0.8,29.38,NW,315,3.1,3.1,47,0.00,,,33.01,VWS V14.01,2013-02-20 18:43:00,
2013-02-20 13:44:00,18.1,1.3,29.38,WSW,248,4.9,5.4,47,0.00,,,33.01,VWS V14.01,2013-02-20 18:44:00,
2013-02-20 13:45:00,17.8,1.9,29.38,West,270,4.0,8.1,49,0.00,,,33.01,VWS V14.01,2013-02-20 18:45:00,
2013-02-20 13:46:00,18.0,1.1,29.38,WNW,292,3.4,9.6,47,0.00,,,33.01,VWS V14.01,2013-02-20 18:46:00,
2013-02-20 13:47:00,18.0,1.1,29.38,WNW,292,5.8,8.1,47,0.00,,,33.01,VWS V14.01,2013-02-20 18:47:00,
2013-02-20 13:48:00,17.6,0.8,29.38,WNW,292,4.5,6.3,47,0.00,,,33.01,VWS V14.01,2013-02-20 18:48:00,
2013-02-20 13:49:00,17.6,0.8,29.38,WNW,292,6.0,6.0,47,0.00,,,33.01,VWS V14.01,2013-02-20 18:49:00,
2013-02-20 13:50:00,17.4,0.6,29.38,WSW,248,4.9,7.4,47,0.00,,,33.01,VWS V14.01,2013-02-20 18:50:00,
2013-02-20 13:51:00,17.4,0.6,29.38,NNW,338,2.7,9.6,47,0.00,,,33.01,VWS V14.01,2013-02-20 18:51:00,
2013-02-20 13:52:00,17.4,0.6,29.38,NW,315,6.5,6.5,47,0.00,,,33.01,VWS V14.01,2013-02-20 18:52:00,
2013-02-20 13:53:00,17.6,0.8,29.38,NW,315,6.0,6.5,47,0.00,,,33.01,VWS V14.01,2013-02-20 18:53:00,
2013-02-20 13:54:00,18.1,1.3,29.38,NNW,338,3.4,3.4,47,0.00,,,33.01,VWS V14.01,2013-02-20 18:54:00,
2013-02-20 13:55:00,18.1,1.3,29.38,NW,315,4.7,5.8,47,0.00,,,33.01,VWS V14.01,2013-02-20 18:55:00,
2013-02-20 13:56:00,16.9,1.0,29.38,West,270,5.8,7.2,49,0.00,,,33.01,VWS V14.01,2013-02-20 18:56:00,
2013-02-20 13:57:00,17.8,1.0,29.38,WNW,292,4.9,6.3,47,0.00,,,33.01,VWS V14.01,2013-02-20 18:57:00,
2013-02-20 13:58:00,16.7,1.3,29.38,WNW,292,6.3,10.7,50,0.00,,,33.01,VWS V14.01,2013-02-20 18:58:00,
2013-02-20 13:59:00,17.8,1.0,29.38,NW,315,2.7,4.9,47,0.00,,,33.01,VWS V14.01,2013-02-20 18:59:00,
2013-02-20 14:00:00,17.8,1.0,29.38,NW,315,2.7,4.9,47,0.00,,,33.01,VWS V14.01,2013-02-20 19:00:00,
2013-02-20 14:01:00,17.8,1.0,29.38,NW,315,3.6,3.6,47,0.00,,,33.01,VWS V14.01,2013-02-20 19:01:00,
2013-02-20 14:02:00,17.4,0.6,29.38,NNW,338,3.6,10.7,47,0.00,,,33.01,VWS V14.01,2013-02-20 19:02:00,
2013-02-20 14:03:00,17.4,0.6,29.38,NW,315,7.2,11.0,47,0.00,,,33.01,VWS V14.01,2013-02-20 19:03:00,
2013-02-20 14:04:00,17.4,0.6,29.38,WNW,292,2.7,7.2,47,0.00,,,33.01,VWS V14.01,2013-02-20 19:04:00,
2013-02-20 14:05:00,18.0,1.1,29.38,NNW,338,2.9,3.4,47,0.00,,,33.01,VWS V14.01,2013-02-20 19:05:00,
2013-02-20 14:06:00,17.8,1.0,29.38,WNW,292,4.0,6.3,47,0.00,,,33.01,VWS V14.01,2013-02-20 19:06:00,
2013-02-20 14:07:00,18.0,1.1,29.38,WNW,292,3.6,4.0,47,0.00,,,33.01,VWS V14.01,2013-02-20 19:07:00,
2013-02-20 14:08:00,17.8,1.0,29.38,NW,315,5.4,11.0,47,0.00,,,33.01,VWS V14.01,2013-02-20 19:08:00,
2013-02-20 14:09:00,17.4,0.6,29.38,NW,315,6.0,6.0,47,0.00,,,33.01,VWS V14.01,2013-02-20 19:09:00,
2013-02-20 14:10:00,17.1,0.3,29.38,WNW,292,6.3,6.5,47,0.00,,,33.01,VWS V14.01,2013-02-20 19:10:00,
2013-02-20 14:11:00,17.4,1.1,29.38,West,270,4.0,6.3,48,0.00,,,33.01,VWS V14.01,2013-02-20 19:11:00,
2013-02-20 14:12:00,17.4,1.1,29.38,WNW,292,6.9,7.2,48,0.00,,,33.01,VWS V14.01,2013-02-20 19:12:00,
2013-02-20 14:13:00,17.4,1.1,29.38,NW,315,5.8,6.9,48,0.00,,,33.01,VWS V14.01,2013-02-20 19:13:00,
2013-02-20 14:14:00,17.4,0.6,29.38,WNW,292,6.3,6.3,47,0.00,,,33.01,VWS V14.01,2013-02-20 19:14:00,
2013-02-20 14:15:00,17.4,0.6,29.38,WNW,292,7.6,8.5,47,0.00,,,33.01,VWS V14.01,2013-02-20 19:15:00,
2013-02-20 14:16:00,17.4,0.6,29.38,WNW,292,4.3,7.6,47,0.00,,,33.01,VWS V14.01,2013-02-20 19:16:00,
2013-02-20 14:17:00,17.4,0.6,29.38,WNW,292,8.5,8.5,47,0.00,,,33.01,VWS V14.01,2013-02-20 19:17:00,
2013-02-20 14:18:00,17.6,1.3,29.38,NNW,338,4.3,8.5,48,0.00,,,33.01,VWS V14.01,2013-02-20 19:18:00,
2013-02-20 14:19:00,17.6,1.3,29.38,NW,315,5.6,5.6,48,0.00,,,33.01,VWS V14.01,2013-02-20 19:19:00,
2013-02-20 14:20:00,17.6,1.3,29.38,North,0,3.4,6.0,48,0.00,,,33.01,VWS V14.01,2013-02-20 19:20:00,
2013-02-20 14:21:00,17.4,1.1,29.38,North,0,9.4,9.4,48,0.00,,,33.01,VWS V14.01,2013-02-20 19:21:00,
2013-02-20 14:22:00,17.6,1.3,29.38,West,270,3.1,9.4,48,0.00,,,33.01,VWS V14.01,2013-02-20 19:22:00,
2013-02-20 14:23:00,17.6,1.3,29.38,WNW,292,3.6,4.3,48,0.00,,,33.01,VWS V14.01,2013-02-20 19:23:00,
2013-02-20 14:24:00,17.4,1.1,29.38,West,270,5.8,5.8,48,0.00,,,33.01,VWS V14.01,2013-02-20 19:24:00,
2013-02-20 14:25:00,17.4,1.1,29.38,WSW,248,10.5,10.5,48,0.00,,,33.01,VWS V14.01,2013-02-20 19:25:00,
2013-02-20 14:26:00,17.8,3.2,29.35,NW,315,0.9,2.7,52,0.00,,,33.01,VWS V14.01,2013-02-20 19:26:00,
2013-02-20 14:27:00,17.1,0.8,29.38,NW,315,5.8,10.5,48,0.00,,,33.01,VWS V14.01,2013-02-20 19:27:00,
2013-02-20 14:28:00,16.9,0.6,29.38,West,270,11.2,11.2,48,0.00,,,33.01,VWS V14.01,2013-02-20 19:28:00,
2013-02-20 14:29:00,16.7,0.4,29.38,WSW,248,9.2,9.2,48,0.00,,,33.01,VWS V14.01,2013-02-20 19:29:00,
2013-02-20 14:30:00,16.7,0.4,29.38,WSW,248,9.2,9.2,48,0.00,,,33.01,VWS V14.01,2013-02-20 19:30:00,
2013-02-20 14:31:00,16.7,0.4,29.38,WNW,292,6.3,9.2,48,0.00,,,33.01,VWS V14.01,2013-02-20 19:31:00,
2013-02-20 14:32:00,17.1,1.2,29.38,NW,315,5.6,6.5,49,0.00,,,33.01,VWS V14.01,2013-02-20 19:32:00,
2013-02-20 14:33:00,17.1,1.2,29.38,NW,315,5.6,5.6,49,0.00,,,33.01,VWS V14.01,2013-02-20 19:33:00,
2013-02-20 14:34:00,17.1,1.2,29.38,WNW,292,4.7,5.6,49,0.00,,,33.01,VWS V14.01,2013-02-20 19:34:00,
2013-02-20 14:35:00,17.1,1.2,29.38,WSW,248,4.3,5.6,49,0.00,,,33.01,VWS V14.01,2013-02-20 19:35:00,
2013-02-20 14:36:00,17.1,1.2,29.38,WNW,292,4.0,7.6,49,0.00,,,33.01,VWS V14.01,2013-02-20 19:36:00,
2013-02-20 14:37:00,17.4,1.5,29.38,NW,315,2.9,5.8,49,0.00,,,33.01,VWS V14.01,2013-02-20 19:37:00,
2013-02-20 14:38:00,17.4,1.5,29.38,NW,315,3.4,4.9,49,0.00,,,33.01,VWS V14.01,2013-02-20 19:38:00,
2013-02-20 14:39:00,17.8,1.9,29.38,NNW,338,3.6,3.6,49,0.00,,,33.01,VWS V14.01,2013-02-20 19:39:00,
2013-02-20 14:40:00,17.8,1.9,29.38,NNW,338,2.0,3.6,49,0.00,,,33.01,VWS V14.01,2013-02-20 19:40:00,
2013-02-20 14:41:00,17.8,1.9,29.38,NNW,338,2.2,2.2,49,0.00,,,33.01,VWS V14.01,2013-02-20 19:41:00,
2013-02-20 14:42:00,17.8,1.9,29.38,West,270,3.1,3.6,49,0.00,,,33.01,VWS V14.01,2013-02-20 19:42:00,
2013-02-20 14:43:00,18.0,2.0,29.38,WNW,292,3.6,4.0,49,0.00,,,33.01,VWS V14.01,2013-02-20 19:43:00,
2013-02-20 14:44:00,17.8,1.9,29.38,NW,315,3.1,3.6,49,0.00,,,33.01,VWS V14.01,2013-02-20 19:44:00,
2013-02-20 14:45:00,17.2,3.5,29.38,NW,315,4.0,8.5,54,0.00,,,33.01,VWS V14.01,2013-02-20 19:45:00,
2013-02-20 14:46:00,17.8,1.9,29.38,SW,225,2.7,4.0,49,0.00,,,33.01,VWS V14.01,2013-02-20 19:46:00,
2013-02-20 14:47:00,17.6,2.1,29.38,WNW,292,6.0,6.0,50,0.00,,,33.01,VWS V14.01,2013-02-20 19:47:00,
2013-02-20 14:48:00,17.6,2.1,29.38,NNW,338,3.8,6.0,50,0.00,,,33.01,VWS V14.01,2013-02-20 19:48:00,
2013-02-20 14:49:00,17.6,2.1,29.38,WNW,292,2.9,5.8,50,0.00,,,33.01,VWS V14.01,2013-02-20 19:49:00,
2013-02-20 14:50:00,17.6,2.1,29.38,NNE,22,7.2,7.2,50,0.00,,,33.01,VWS V14.01,2013-02-20 19:50:00,
2013-02-20 14:51:00,17.4,2.0,29.38,NW,315,4.5,7.6,50,0.00,,,33.01,VWS V14.01,2013-02-20 19:51:00,
2013-02-20 14:52:00,17.4,2.0,29.38,NNW,338,2.9,4.5,50,0.00,,,33.01,VWS V14.01,2013-02-20 19:52:00,
2013-02-20 14:53:00,17.4,2.0,29.38,WNW,292,3.6,7.2,50,0.00,,,33.01,VWS V14.01,2013-02-20 19:53:00,
2013-02-20 14:54:00,17.1,1.6,29.38,WNW,292,6.0,6.0,50,0.00,,,33.01,VWS V14.01,2013-02-20 19:54:00,
2013-02-20 14:55:00,17.1,1.6,29.38,WNW,292,6.0,6.0,50,0.00,,,33.01,VWS V14.01,2013-02-20 19:55:00,
2013-02-20 14:56:00,16.9,1.0,29.38,West,270,5.8,7.2,49,0.00,,,33.01,VWS V14.01,2013-02-20 19:56:00,
2013-02-20 14:57:00,16.7,0.9,29.38,WNW,292,8.5,8.7,49,0.00,,,33.01,VWS V14.01,2013-02-20 19:57:00,
2013-02-20 14:58:00,16.7,1.3,29.38,WNW,292,6.3,10.7,50,0.00,,,33.01,VWS V14.01,2013-02-20 19:58:00,
2013-02-20 14:59:00,16.9,1.5,29.38,NW,315,5.4,5.4,50,0.00,,,33.01,VWS V14.01,2013-02-20 19:59:00,
2013-02-20 15:00:00,16.9,1.5,29.38,NW,315,2.5,5.4,50,0.00,,,33.01,VWS V14.01,2013-02-20 20:00:00,
2013-02-20 15:01:00,17.2,1.8,29.38,WNW,292,8.7,8.7,50,0.00,,,33.01,VWS V14.01,2013-02-20 20:01:00,
2013-02-20 15:02:00,17.2,2.2,29.38,WSW,248,3.4,8.7,51,0.00,,,33.01,VWS V14.01,2013-02-20 20:02:00,
2013-02-20 15:03:00,17.1,2.1,29.38,WNW,292,5.8,6.3,51,0.00,,,33.01,VWS V14.01,2013-02-20 20:03:00,
2013-02-20 15:04:00,17.1,2.1,29.38,West,270,7.8,7.8,51,0.00,,,33.01,VWS V14.01,2013-02-20 20:04:00,
2013-02-20 15:05:00,17.1,2.1,29.38,West,270,7.8,7.8,51,0.00,,,33.01,VWS V14.01,2013-02-20 20:05:00,
2013-02-20 15:06:00,16.9,1.5,29.38,North,0,7.6,7.8,50,0.00,,,33.01,VWS V14.01,2013-02-20 20:06:00,
2013-02-20 15:07:00,16.9,1.5,29.38,NNW,338,4.3,7.6,50,0.00,,,33.01,VWS V14.01,2013-02-20 20:07:00,
2013-02-20 15:08:00,17.2,1.8,29.38,NNW,338,2.9,6.5,50,0.00,,,33.01,VWS V14.01,2013-02-20 20:08:00,
2013-02-20 15:09:00,17.6,2.1,29.38,West,270,5.4,5.4,50,0.00,,,33.01,VWS V14.01,2013-02-20 20:09:00,
2013-02-20 15:10:00,17.6,2.1,29.38,West,270,6.3,6.3,50,0.00,,,33.01,VWS V14.01,2013-02-20 20:10:00,
2013-02-20 15:11:00,16.9,1.5,29.38,WSW,248,8.5,8.5,50,0.00,,,33.01,VWS V14.01,2013-02-20 20:11:00,
2013-02-20 15:12:00,17.1,1.6,29.38,WNW,292,6.5,8.5,50,0.00,,,33.01,VWS V14.01,2013-02-20 20:12:00,
2013-02-20 15:13:00,17.2,1.8,29.38,North,0,4.0,6.5,50,0.00,,,33.01,VWS V14.01,2013-02-20 20:13:00,
2013-02-20 15:14:00,17.4,2.4,29.38,WNW,292,3.8,4.7,51,0.00,,,33.01,VWS V14.01,2013-02-20 20:14:00,
2013-02-20 15:15:00,17.4,2.4,29.38,West,270,3.4,4.7,51,0.00,,,33.01,VWS V14.01,2013-02-20 20:15:00,
2013-02-20 15:16:00,17.4,2.4,29.38,West,270,2.5,3.4,51,0.00,,,33.01,VWS V14.01,2013-02-20 20:16:00,
2013-02-20 15:17:00,17.6,2.6,29.38,WNW,292,7.2,7.2,51,0.00,,,33.01,VWS V14.01,2013-02-20 20:17:00,
2013-02-20 15:18:00,17.4,2.4,29.38,West,270,2.7,7.2,51,0.00,,,33.01,VWS V14.01,2013-02-20 20:18:00,
2013-02-20 15:19:00,17.2,2.2,29.38,NW,315,1.6,10.5,51,0.00,,,33.01,VWS V14.01,2013-02-20 20:19:00,
2013-02-20 15:20:00,17.6,2.6,29.38,NW,315,1.6,10.5,51,0.00,,,33.01,VWS V14.01,2013-02-20 20:20:00,
2013-02-20 15:21:00,17.6,2.6,29.38,WNW,292,3.4,5.6,51,0.00,,,33.01,VWS V14.01,2013-02-20 20:21:00,
2013-02-20 15:22:00,17.4,2.4,29.35,NNW,338,5.6,7.6,51,0.00,,,33.01,VWS V14.01,2013-02-20 20:22:00,
2013-02-20 15:23:00,17.4,2.4,29.35,NNW,338,2.5,7.2,51,0.00,,,33.01,VWS V14.01,2013-02-20 20:23:00,
2013-02-20 15:24:00,17.6,3.0,29.35,ENE,68,3.4,3.4,52,0.00,,,33.01,VWS V14.01,2013-02-20 20:24:00,
2013-02-20 15:25:00,17.6,3.0,29.35,NW,315,2.7,3.4,52,0.00,,,33.01,VWS V14.01,2013-02-20 20:25:00,
2013-02-20 15:26:00,16.2,4.0,29.38,WNW,292,1.3,6.3,58,0.00,,,33.01,VWS V14.01,2013-02-20 20:26:00,
2013-02-20 15:27:00,17.6,3.0,29.35,NNW,338,3.8,5.8,52,0.00,,,33.01,VWS V14.01,2013-02-20 20:27:00,
2013-02-20 15:28:00,17.4,2.8,29.35,North,0,8.7,8.7,52,0.00,,,33.01,VWS V14.01,2013-02-20 20:28:00,
2013-02-20 15:29:00,17.6,3.0,29.35,NW,315,2.7,6.0,52,0.00,,,33.01,VWS V14.01,2013-02-20 20:29:00,
2013-02-20 15:30:00,17.6,3.0,29.35,WNW,292,3.1,6.0,52,0.00,,,33.01,VWS V14.01,2013-02-20 20:30:00,
2013-02-20 15:31:00,17.4,2.8,29.35,NW,315,3.6,8.1,52,0.00,,,33.01,VWS V14.01,2013-02-20 20:31:00,
2013-02-20 15:32:00,17.2,2.7,29.35,NW,315,6.5,6.5,52,0.00,,,33.01,VWS V14.01,2013-02-20 20:32:00,
2013-02-20 15:33:00,16.9,1.9,29.35,NW,315,4.3,8.1,51,0.00,,,33.01,VWS V14.01,2013-02-20 20:33:00,
2013-02-20 15:34:00,17.1,2.5,29.35,NW,315,7.2,7.2,52,0.00,,,33.01,VWS V14.01,2013-02-20 20:34:00,
2013-02-20 15:35:00,17.1,2.5,29.35,WNW,292,4.0,7.2,52,0.00,,,33.01,VWS V14.01,2013-02-20 20:35:00,
2013-02-20 15:36:00,17.1,2.5,29.35,NNW,338,4.0,4.7,52,0.00,,,33.01,VWS V14.01,2013-02-20 20:36:00,
2013-02-20 15:37:00,17.1,2.5,29.38,North,0,2.5,4.9,52,0.00,,,33.01,VWS V14.01,2013-02-20 20:37:00,
2013-02-20 15:38:00,16.9,2.3,29.38,NNW,338,2.9,5.8,52,0.00,,,33.01,VWS V14.01,2013-02-20 20:38:00,
2013-02-20 15:39:00,17.2,2.7,29.38,North,0,3.8,3.8,52,0.00,,,33.01,VWS V14.01,2013-02-20 20:39:00,
2013-02-20 15:40:00,17.2,2.7,29.38,North,0,3.8,3.8,52,0.00,,,33.01,VWS V14.01,2013-02-20 20:40:00,
2013-02-20 15:41:00,17.2,3.1,29.38,WNW,292,3.4,4.7,53,0.00,,,33.01,VWS V14.01,2013-02-20 20:41:00,
2013-02-20 15:42:00,17.4,3.2,29.38,NNW,338,2.0,5.6,53,0.00,,,33.01,VWS V14.01,2013-02-20 20:42:00,
2013-02-20 15:43:00,17.4,3.2,29.38,NW,315,0.9,4.9,53,0.00,,,33.01,VWS V14.01,2013-02-20 20:43:00,
2013-02-20 15:44:00,17.2,3.5,29.38,WNW,292,8.5,8.5,54,0.00,,,33.01,VWS V14.01,2013-02-20 20:44:00,
2013-02-20 15:45:00,17.2,3.5,29.38,NW,315,4.0,8.5,54,0.00,,,33.01,VWS V14.01,2013-02-20 20:45:00,
2013-02-20 15:46:00,17.1,3.3,29.38,WNW,292,8.7,8.7,54,0.00,,,33.01,VWS V14.01,2013-02-20 20:46:00,
2013-02-20 15:47:00,16.9,2.7,29.38,NNE,22,2.7,8.7,53,0.00,,,33.01,VWS V14.01,2013-02-20 20:47:00,
2013-02-20 15:48:00,17.1,3.3,29.38,NW,315,3.8,5.6,54,0.00,,,33.01,VWS V14.01,2013-02-20 20:48:00,
2013-02-20 15:49:00,17.1,3.3,29.38,NW,315,5.6,5.6,54,0.00,,,33.01,VWS V14.01,2013-02-20 20:49:00,
2013-02-20 15:50:00,17.1,3.3,29.38,NW,315,4.7,5.6,54,0.00,,,33.01,VWS V14.01,2013-02-20 20:50:00,
2013-02-20 15:51:00,16.7,3.0,29.38,West,270,4.3,7.8,54,0.00,,,33.01,VWS V14.01,2013-02-20 20:51:00,
2013-02-20 15:52:00,16.7,3.0,29.38,WNW,292,2.9,6.3,54,0.00,,,33.01,VWS V14.01,2013-02-20 20:52:00,
2013-02-20 15:53:00,16.7,3.0,29.38,NW,315,4.0,5.4,54,0.00,,,33.01,VWS V14.01,2013-02-20 20:53:00,
2013-02-20 15:54:00,16.9,3.1,29.38,NW,315,2.0,4.0,54,0.00,,,33.01,VWS V14.01,2013-02-20 20:54:00,
2013-02-20 15:55:00,16.9,3.1,29.38,WNW,292,3.1,3.6,54,0.00,,,33.01,VWS V14.01,2013-02-20 20:55:00,
2013-02-20 15:56:00,16.9,3.1,29.38,WNW,292,4.3,4.3,54,0.00,,,33.01,VWS V14.01,2013-02-20 20:56:00,
2013-02-20 15:57:00,16.7,3.0,29.38,NNW,338,3.1,4.3,54,0.00,,,33.01,VWS V14.01,2013-02-20 20:57:00,
2013-02-20 15:58:00,16.7,3.0,29.38,NW,315,4.0,4.3,54,0.00,,,33.01,VWS V14.01,2013-02-20 20:58:00,
2013-02-20 15:59:00,16.7,3.0,29.38,WNW,292,3.4,4.9,54,0.00,,,33.01,VWS V14.01,2013-02-20 20:59:00,
2013-02-20 16:00:00,16.7,3.0,29.38,NW,315,2.0,3.4,54,0.00,,,33.01,VWS V14.01,2013-02-20 21:00:00,
2013-02-20 16:01:00,16.5,2.8,29.38,NW,315,8.1,8.1,54,0.00,,,33.01,VWS V14.01,2013-02-20 21:01:00,
2013-02-20 16:02:00,15.6,3.8,29.41,NNW,338,4.9,5.6,59,0.00,,,33.01,VWS V14.01,2013-02-20 21:02:00,
2013-02-20 16:03:00,16.2,2.5,29.38,North,0,4.7,6.9,54,0.00,,,33.01,VWS V14.01,2013-02-20 21:03:00,
2013-02-20 16:04:00,16.3,3.0,29.38,NNW,338,7.2,7.2,55,0.00,,,33.01,VWS V14.01,2013-02-20 21:04:00,
2013-02-20 16:05:00,16.3,3.0,29.38,NW,315,2.7,7.2,55,0.00,,,33.01,VWS V14.01,2013-02-20 21:05:00,
2013-02-20 16:06:00,16.2,2.8,29.38,NNW,338,6.3,6.3,55,0.00,,,33.01,VWS V14.01,2013-02-20 21:06:00,
2013-02-20 16:07:00,16.2,2.8,29.38,NW,315,4.3,7.4,55,0.00,,,33.01,VWS V14.01,2013-02-20 21:07:00,
2013-02-20 16:08:00,15.3,3.2,29.44,NNW,338,5.4,6.3,58,0.00,,,33.01,VWS V14.01,2013-02-20 21:08:00,
2013-02-20 16:09:00,16.2,3.2,29.38,NW,315,5.6,5.6,56,0.00,,,33.01,VWS V14.01,2013-02-20 21:09:00,
2013-02-20 16:10:00,16.0,3.1,29.38,NNW,338,3.4,7.2,56,0.00,,,33.01,VWS V14.01,2013-02-20 21:10:00,
2013-02-20 16:11:00,16.2,3.2,29.38,North,0,7.4,7.4,56,0.00,,,33.01,VWS V14.01,2013-02-20 21:11:00,
2013-02-20 16:12:00,16.2,3.2,29.38,NNW,338,6.3,11.0,56,0.00,,,33.01,VWS V14.01,2013-02-20 21:12:00,
2013-02-20 16:13:00,16.2,3.2,29.38,NNW,338,5.6,6.3,56,0.00,,,33.01,VWS V14.01,2013-02-20 21:13:00,
2013-02-20 16:14:00,16.2,3.2,29.38,WNW,292,2.9,5.6,56,0.00,,,33.01,VWS V14.01,2013-02-20 21:14:00,
2013-02-20 16:15:00,16.2,3.2,29.38,NW,315,2.9,2.9,56,0.00,,,33.01,VWS V14.01,2013-02-20 21:15:00,
2013-02-20 16:16:00,16.2,3.2,29.38,WNW,292,3.8,3.8,56,0.00,,,33.01,VWS V14.01,2013-02-20 21:16:00,
2013-02-20 16:17:00,16.3,3.4,29.38,NNW,338,2.5,4.5,56,0.00,,,33.01,VWS V14.01,2013-02-20 21:17:00,
2013-02-20 16:18:00,16.3,3.8,29.38,NW,315,3.1,6.9,57,0.00,,,33.01,VWS V14.01,2013-02-20 21:18:00,
2013-02-20 16:19:00,16.2,3.6,29.38,West,270,4.9,4.9,57,0.00,,,33.01,VWS V14.01,2013-02-20 21:19:00,
2013-02-20 16:20:00,16.2,3.6,29.38,WNW,292,7.6,7.6,57,0.00,,,33.01,VWS V14.01,2013-02-20 21:20:00,
2013-02-20 16:21:00,16.0,3.5,29.38,NNW,338,4.0,7.6,57,0.00,,,33.01,VWS V14.01,2013-02-20 21:21:00,
2013-02-20 16:22:00,16.0,3.5,29.38,NW,315,8.7,10.5,57,0.00,,,33.01,VWS V14.01,2013-02-20 21:22:00,
2013-02-20 16:23:00,15.8,3.7,29.38,WNW,292,4.3,8.7,58,0.00,,,33.01,VWS V14.01,2013-02-20 21:23:00,
2013-02-20 16:24:00,15.8,3.7,29.38,NNE,22,2.7,6.3,58,0.00,,,33.01,VWS V14.01,2013-02-20 21:24:00,
2013-02-20 16:25:00,16.2,4.0,29.38,NNW,338,6.3,6.3,58,0.00,,,33.01,VWS V14.01,2013-02-20 21:25:00,
2013-02-20 16:26:00,16.2,4.0,29.38,WNW,292,1.3,6.3,58,0.00,,,33.01,VWS V14.01,2013-02-20 21:26:00,
2013-02-20 16:27:00,16.2,4.0,29.38,WNW,292,6.5,6.5,58,0.00,,,33.01,VWS V14.01,2013-02-20 21:27:00,
2013-02-20 16:28:00,16.2,4.0,29.38,WNW,292,6.5,6.5,58,0.00,,,33.01,VWS V14.01,2013-02-20 21:28:00,
2013-02-20 16:29:00,15.8,3.7,29.38,WSW,248,6.3,6.5,58,0.00,,,33.01,VWS V14.01,2013-02-20 21:29:00,
2013-02-20 16:30:00,16.0,3.8,29.38,WNW,292,6.0,6.0,58,0.00,,,33.01,VWS V14.01,2013-02-20 21:30:00,
2013-02-20 16:31:00,16.0,3.8,29.38,WNW,292,4.7,6.0,58,0.00,,,33.01,VWS V14.01,2013-02-20 21:31:00,
2013-02-20 16:32:00,16.0,3.8,29.38,NE,45,3.1,4.7,58,0.00,,,33.01,VWS V14.01,2013-02-20 21:32:00,
2013-02-20 16:33:00,16.0,3.8,29.38,NW,315,2.5,4.0,58,0.00,,,33.01,VWS V14.01,2013-02-20 21:33:00,
2013-02-20 16:34:00,15.8,3.7,29.38,WNW,292,3.8,3.8,58,0.00,,,33.01,VWS V14.01,2013-02-20 21:34:00,
2013-02-20 16:35:00,15.8,4.0,29.38,WNW,292,5.8,8.1,59,0.00,,,33.01,VWS V14.01,2013-02-20 21:35:00,
2013-02-20 16:36:00,15.8,4.0,29.38,WNW,292,5.8,8.1,59,0.00,,,33.01,VWS V14.01,2013-02-20 21:36:00,
2013-02-20 16:37:00,15.8,4.0,29.38,WNW,292,5.8,5.8,59,0.00,,,33.01,VWS V14.01,2013-02-20 21:37:00,
2013-02-20 16:38:00,15.8,4.0,29.38,WNW,292,7.6,7.6,59,0.00,,,33.01,VWS V14.01,2013-02-20 21:38:00,
2013-02-20 16:39:00,16.0,4.2,29.41,West,270,3.1,7.6,59,0.00,,,33.01,VWS V14.01,2013-02-20 21:39:00,
2013-02-20 16:40:00,16.0,4.2,29.41,North,0,5.6,5.6,59,0.00,,,33.01,VWS V14.01,2013-02-20 21:40:00,
2013-02-20 16:41:00,16.0,4.2,29.41,WNW,292,7.4,7.4,59,0.00,,,33.01,VWS V14.01,2013-02-20 21:41:00,
2013-02-20 16:42:00,15.1,4.8,29.44,NW,315,3.8,8.5,63,0.00,,,33.01,VWS V14.01,2013-02-20 21:42:00,
2013-02-20 16:43:00,16.0,4.2,29.41,NW,315,3.4,7.4,59,0.00,,,33.01,VWS V14.01,2013-02-20 21:43:00,
2013-02-20 16:44:00,16.0,4.2,29.41,NW,315,3.4,3.4,59,0.00,,,33.01,VWS V14.01,2013-02-20 21:44:00,
2013-02-20 16:45:00,16.0,4.2,29.41,NW,315,3.4,6.0,59,0.00,,,33.01,VWS V14.01,2013-02-20 21:45:00,
2013-02-20 16:46:00,16.0,4.2,29.41,NW,315,3.4,6.0,59,0.00,,,33.01,VWS V14.01,2013-02-20 21:46:00,
2013-02-20 16:47:00,16.0,4.2,29.41,NW,315,3.4,3.4,59,0.00,,,33.01,VWS V14.01,2013-02-20 21:47:00,
2013-02-20 16:48:00,16.0,4.2,29.41,WSW,248,4.3,4.3,59,0.00,,,33.01,VWS V14.01,2013-02-20 21:48:00,
2013-02-20 16:49:00,16.0,4.2,29.41,WNW,292,5.4,5.6,59,0.00,,,33.01,VWS V14.01,2013-02-20 21:49:00,
2013-02-20 16:50:00,15.8,4.4,29.41,North,0,7.2,7.2,60,0.00,,,33.01,VWS V14.01,2013-02-20 21:50:00,
2013-02-20 16:51:00,15.8,4.4,29.41,NW,315,6.5,7.2,60,0.00,,,33.01,VWS V14.01,2013-02-20 21:51:00,
2013-02-20 16:52:00,15.8,4.4,29.41,WSW,248,8.5,8.5,60,0.00,,,33.01,VWS V14.01,2013-02-20 21:52:00,
2013-02-20 16:53:00,15.8,4.4,29.41,NNW,338,6.3,8.5,60,0.00,,,33.01,VWS V14.01,2013-02-20 21:53:00,
2013-02-20 16:54:00,15.8,4.4,29.41,West,270,6.5,6.5,60,0.00,,,33.01,VWS V14.01,2013-02-20 21:54:00,
2013-02-20 16:55:00,15.8,4.4,29.41,WNW,292,3.1,4.0,60,0.00,,,33.01,VWS V14.01,2013-02-20 21:55:00,
2013-02-20 16:56:00,15.8,4.4,29.41,WNW,292,2.9,6.9,60,0.00,,,33.01,VWS V14.01,2013-02-20 21:56:00,
2013-02-20 16:57:00,15.8,4.0,29.41,WNW,292,3.1,4.0,59,0.00,,,33.01,VWS V14.01,2013-02-20 21:57:00,
2013-02-20 16:58:00,15.8,4.0,29.41,NW,315,4.3,6.3,59,0.00,,,33.01,VWS V14.01,2013-02-20 21:58:00,
2013-02-20 16:59:00,15.8,4.0,29.41,WNW,292,3.8,4.3,59,0.00,,,33.01,VWS V14.01,2013-02-20 21:59:00,
2013-02-20 17:00:00,15.8,4.0,29.41,NW,315,3.8,4.3,59,0.00,,,33.01,VWS V14.01,2013-02-20 22:00:00,
2013-02-20 17:01:00,15.6,3.8,29.41,NNW,338,3.4,4.3,59,0.00,,,33.01,VWS V14.01,2013-02-20 22:01:00,
2013-02-20 17:02:00,15.6,3.8,29.41,NNW,338,4.9,5.6,59,0.00,,,33.01,VWS V14.01,2013-02-20 22:02:00,
2013-02-20 17:03:00,15.8,6.1,29.44,NW,315,3.4,3.4,65,0.00,,,33.01,VWS V14.01,2013-02-20 22:03:00,
2013-02-20 17:04:00,15.8,6.1,29.44,West,270,3.4,3.4,65,0.00,,,33.01,VWS V14.01,2013-02-20 22:04:00,
2013-02-20 17:05:00,15.4,3.7,29.41,NNE,22,9.6,9.6,59,0.00,,,33.01,VWS V14.01,2013-02-20 22:05:00,
2013-02-20 17:06:00,15.3,3.2,29.41,NNW,338,4.0,9.6,58,0.00,,,33.01,VWS V14.01,2013-02-20 22:06:00,
2013-02-20 17:07:00,15.3,3.2,29.44,NW,315,3.4,4.0,58,0.00,,,33.01,VWS V14.01,2013-02-20 22:07:00,
2013-02-20 17:08:00,15.3,3.2,29.44,NNW,338,5.4,6.3,58,0.00,,,33.01,VWS V14.01,2013-02-20 22:08:00,
2013-02-20 17:09:00,15.3,3.2,29.44,WNW,292,3.4,7.8,58,0.00,,,33.01,VWS V14.01,2013-02-20 22:09:00,
2013-02-20 17:10:00,15.3,3.2,29.44,NNW,338,6.5,6.5,58,0.00,,,33.01,VWS V14.01,2013-02-20 22:10:00,
2013-02-20 17:11:00,15.3,3.2,29.44,West,270,3.8,6.5,58,0.00,,,33.01,VWS V14.01,2013-02-20 22:11:00,
2013-02-20 17:12:00,15.3,3.5,29.44,WNW,292,6.3,6.3,59,0.00,,,33.01,VWS V14.01,2013-02-20 22:12:00,
2013-02-20 17:13:00,16.0,7.0,29.44,NW,315,4.7,8.5,67,0.00,,,33.01,VWS V14.01,2013-02-20 22:13:00,
2013-02-20 17:14:00,15.1,3.7,29.44,NNW,338,2.7,5.6,60,0.00,,,33.01,VWS V14.01,2013-02-20 22:14:00,
2013-02-20 17:15:00,15.3,3.9,29.44,NNE,22,6.3,6.3,60,0.00,,,33.01,VWS V14.01,2013-02-20 22:15:00,
2013-02-20 17:16:00,15.3,3.9,29.44,NNW,338,5.4,6.3,60,0.00,,,33.01,VWS V14.01,2013-02-20 22:16:00,
2013-02-20 17:17:00,16.2,7.2,29.44,WNW,292,3.8,8.5,67,0.00,,,33.01,VWS V14.01,2013-02-20 22:17:00,
2013-02-20 17:18:00,16.2,7.2,29.44,WNW,292,3.4,5.8,67,0.00,,,33.01,VWS V14.01,2013-02-20 22:18:00,
2013-02-20 17:19:00,15.3,3.9,29.44,NNW,338,5.4,5.4,60,0.00,,,33.01,VWS V14.01,2013-02-20 22:19:00,
2013-02-20 17:20:00,15.1,3.7,29.44,NNW,338,5.8,10.3,60,0.00,,,33.01,VWS V14.01,2013-02-20 22:20:00,
2013-02-20 17:21:00,15.1,3.7,29.44,WNW,292,6.0,10.3,60,0.00,,,33.01,VWS V14.01,2013-02-20 22:21:00,
2013-02-20 17:22:00,15.1,3.7,29.44,NW,315,4.0,6.0,60,0.00,,,33.01,VWS V14.01,2013-02-20 22:22:00,
2013-02-20 17:23:00,15.1,3.7,29.44,West,270,9.2,9.2,60,0.00,,,33.01,VWS V14.01,2013-02-20 22:23:00,
2013-02-20 17:24:00,15.1,3.7,29.44,WNW,292,3.1,9.6,60,0.00,,,33.01,VWS V14.01,2013-02-20 22:24:00,
2013-02-20 17:25:00,15.1,3.7,29.44,WNW,292,4.3,5.4,60,0.00,,,33.01,VWS V14.01,2013-02-20 22:25:00,
2013-02-20 17:26:00,15.1,3.7,29.44,North,0,6.0,8.1,60,0.00,,,33.01,VWS V14.01,2013-02-20 22:26:00,
2013-02-20 17:27:00,15.1,3.7,29.44,NW,315,3.1,9.6,60,0.00,,,33.01,VWS V14.01,2013-02-20 22:27:00,
2013-02-20 17:28:00,15.1,3.7,29.44,WNW,292,5.6,5.6,60,0.00,,,33.01,VWS V14.01,2013-02-20 22:28:00,
2013-02-20 17:29:00,15.1,3.7,29.44,NNW,338,3.8,5.6,60,0.00,,,33.01,VWS V14.01,2013-02-20 22:29:00,
2013-02-20 17:30:00,15.1,3.7,29.44,WNW,292,3.4,4.3,60,0.00,,,33.01,VWS V14.01,2013-02-20 22:30:00,
2013-02-20 17:31:00,15.1,3.7,29.44,SW,225,5.8,5.8,60,0.00,,,33.01,VWS V14.01,2013-02-20 22:31:00,
2013-02-20 17:32:00,15.1,4.1,29.44,NW,315,7.6,7.6,61,0.00,,,33.01,VWS V14.01,2013-02-20 22:32:00,
2013-02-20 17:33:00,15.1,4.1,29.44,NNW,338,4.7,9.6,61,0.00,,,33.01,VWS V14.01,2013-02-20 22:33:00,
2013-02-20 17:34:00,15.1,4.1,29.44,WNW,292,7.2,7.2,61,0.00,,,33.01,VWS V14.01,2013-02-20 22:34:00,
2013-02-20 17:35:00,15.1,4.1,29.44,NW,315,4.3,8.1,61,0.00,,,33.01,VWS V14.01,2013-02-20 22:35:00,
2013-02-20 17:36:00,15.1,4.4,29.44,North,0,4.3,8.1,62,0.00,,,33.01,VWS V14.01,2013-02-20 22:36:00,
2013-02-20 17:37:00,15.1,4.4,29.44,WSW,248,7.6,10.5,62,0.00,,,33.01,VWS V14.01,2013-02-20 22:37:00,
2013-02-20 17:38:00,15.1,4.4,29.44,NNW,338,3.6,7.6,62,0.00,,,33.01,VWS V14.01,2013-02-20 22:38:00,
2013-02-20 17:39:00,15.1,4.4,29.44,NW,315,4.3,8.1,62,0.00,,,33.01,VWS V14.01,2013-02-20 22:39:00,
2013-02-20 17:40:00,15.1,4.4,29.44,West,270,8.5,8.5,62,0.00,,,33.01,VWS V14.01,2013-02-20 22:40:00,
2013-02-20 17:41:00,15.1,4.4,29.44,West,270,8.5,8.5,62,0.00,,,33.01,VWS V14.01,2013-02-20 22:41:00,
2013-02-20 17:42:00,15.1,4.8,29.44,NW,315,3.8,8.5,63,0.00,,,33.01,VWS V14.01,2013-02-20 22:42:00,
2013-02-20 17:43:00,15.1,4.8,29.44,NW,315,3.4,6.3,63,0.00,,,33.01,VWS V14.01,2013-02-20 22:43:00,
2013-02-20 17:44:00,16.7,7.3,29.47,WNW,292,5.6,12.3,66,0.00,,,33.01,VWS V14.01,2013-02-20 22:44:00,
2013-02-20 17:45:00,15.1,4.8,29.44,NNW,338,3.4,5.8,63,0.00,,,33.01,VWS V14.01,2013-02-20 22:45:00,
2013-02-20 17:46:00,15.1,4.8,29.44,NNW,338,3.4,5.8,63,0.00,,,33.01,VWS V14.01,2013-02-20 22:46:00,
2013-02-20 17:47:00,15.3,4.9,29.44,North,0,2.9,5.8,63,0.00,,,33.01,VWS V14.01,2013-02-20 22:47:00,
2013-02-20 17:48:00,15.3,4.9,29.44,NW,315,11.0,11.0,63,0.00,,,33.01,VWS V14.01,2013-02-20 22:48:00,
2013-02-20 17:49:00,16.9,7.8,29.47,WNW,292,4.9,5.6,67,0.00,,,33.01,VWS V14.01,2013-02-20 22:49:00,
2013-02-20 17:50:00,15.3,5.3,29.44,NNW,338,2.2,6.5,64,0.00,,,33.01,VWS V14.01,2013-02-20 22:50:00,
2013-02-20 17:51:00,17.1,8.0,29.47,NW,315,8.1,10.1,67,0.00,,,33.01,VWS V14.01,2013-02-20 22:51:00,
2013-02-20 17:52:00,15.3,5.3,29.44,WNW,292,7.8,7.8,64,0.00,,,33.01,VWS V14.01,2013-02-20 22:52:00,
2013-02-20 17:53:00,15.4,5.4,29.44,NW,315,4.0,10.5,64,0.00,,,33.01,VWS V14.01,2013-02-20 22:53:00,
2013-02-20 17:54:00,15.4,5.4,29.44,NNW,338,6.0,6.0,64,0.00,,,33.01,VWS V14.01,2013-02-20 22:54:00,
2013-02-20 17:55:00,15.4,5.4,29.44,North,0,3.8,8.5,64,0.00,,,33.01,VWS V14.01,2013-02-20 22:55:00,
2013-02-20 17:56:00,15.4,5.4,29.44,WNW,292,4.3,8.5,64,0.00,,,33.01,VWS V14.01,2013-02-20 22:56:00,
2013-02-20 17:57:00,15.4,5.8,29.44,NW,315,4.9,4.9,65,0.00,,,33.01,VWS V14.01,2013-02-20 22:57:00,
2013-02-20 17:58:00,17.1,7.7,29.47,NW,315,4.9,10.5,66,0.00,,,33.01,VWS V14.01,2013-02-20 22:58:00,
2013-02-20 17:59:00,15.6,6.0,29.44,West,270,4.7,4.9,65,0.00,,,33.01,VWS V14.01,2013-02-20 22:59:00,
2013-02-20 18:00:00,15.6,6.0,29.44,NNE,22,2.9,2.9,65,0.00,,,33.01,VWS V14.01,2013-02-20 23:00:00,
2013-02-20 18:01:00,15.6,6.0,29.44,NNE,22,2.9,2.9,65,0.00,,,33.01,VWS V14.01,2013-02-20 23:01:00,
2013-02-20 18:02:00,15.6,6.0,29.44,NNE,22,2.9,2.9,65,0.00,,,33.01,VWS V14.01,2013-02-20 23:02:00,
2013-02-20 18:03:00,15.8,6.1,29.44,NW,315,3.4,3.4,65,0.00,,,33.01,VWS V14.01,2013-02-20 23:03:00,
2013-02-20 18:04:00,15.8,6.1,29.44,West,270,3.4,3.4,65,0.00,,,33.01,VWS V14.01,2013-02-20 23:04:00,
2013-02-20 18:05:00,15.8,6.5,29.44,NW,315,4.0,4.7,66,0.00,,,33.01,VWS V14.01,2013-02-20 23:05:00,
2013-02-20 18:06:00,15.8,6.5,29.44,NNW,338,3.1,4.7,66,0.00,,,33.01,VWS V14.01,2013-02-20 23:06:00,
2013-02-20 18:07:00,15.8,6.5,29.44,NNW,338,4.3,8.1,66,0.00,,,33.01,VWS V14.01,2013-02-20 23:07:00,
2013-02-20 18:08:00,15.8,6.5,29.44,WNW,292,6.5,6.5,66,0.00,,,33.01,VWS V14.01,2013-02-20 23:08:00,
2013-02-20 18:09:00,15.8,6.5,29.44,WNW,292,3.4,13.2,66,0.00,,,33.01,VWS V14.01,2013-02-20 23:09:00,
2013-02-20 18:10:00,16.0,6.6,29.44,WNW,292,4.9,7.6,66,0.00,,,33.01,VWS V14.01,2013-02-20 23:10:00,
2013-02-20 18:11:00,17.4,8.0,29.47,NW,315,6.0,10.3,66,0.00,,,33.01,VWS V14.01,2013-02-20 23:11:00,
2013-02-20 18:12:00,16.0,7.0,29.44,NNW,338,8.5,8.5,67,0.00,,,33.01,VWS V14.01,2013-02-20 23:12:00,
2013-02-20 18:13:00,16.0,7.0,29.44,NW,315,4.7,8.5,67,0.00,,,33.01,VWS V14.01,2013-02-20 23:13:00,
2013-02-20 18:14:00,17.4,8.0,29.47,NW,315,4.7,10.3,66,0.00,,,33.01,VWS V14.01,2013-02-20 23:14:00,
2013-02-20 18:15:00,16.2,7.2,29.44,NW,315,8.5,8.5,67,0.00,,,33.01,VWS V14.01,2013-02-20 23:15:00,
2013-02-20 18:16:00,16.2,7.2,29.44,NW,315,8.5,8.5,67,0.00,,,33.01,VWS V14.01,2013-02-20 23:16:00,
2013-02-20 18:17:00,16.2,7.2,29.44,WNW,292,3.8,8.5,67,0.00,,,33.01,VWS V14.01,2013-02-20 23:17:00,
2013-02-20 18:18:00,16.2,7.2,29.44,WNW,292,3.4,5.8,67,0.00,,,33.01,VWS V14.01,2013-02-20 23:18:00,
2013-02-20 18:19:00,16.2,7.5,29.44,North,0,4.0,6.5,68,0.00,,,33.01,VWS V14.01,2013-02-20 23:19:00,
2013-02-20 18:20:00,16.2,7.5,29.44,WNW,292,2.0,5.8,68,0.00,,,33.01,VWS V14.01,2013-02-20 23:20:00,
2013-02-20 18:21:00,16.2,7.5,29.44,NNW,338,4.3,4.3,68,0.00,,,33.01,VWS V14.01,2013-02-20 23:21:00,
2013-02-20 18:22:00,16.2,7.5,29.47,NW,315,3.4,4.3,68,0.00,,,33.01,VWS V14.01,2013-02-20 23:22:00,
2013-02-20 18:23:00,16.2,7.5,29.47,NW,315,3.4,3.4,68,0.00,,,33.01,VWS V14.01,2013-02-20 23:23:00,
2013-02-20 18:24:00,16.2,7.5,29.47,WSW,248,5.8,5.8,68,0.00,,,33.01,VWS V14.01,2013-02-20 23:24:00,
2013-02-20 18:25:00,16.2,7.5,29.47,NNW,338,3.8,5.8,68,0.00,,,33.01,VWS V14.01,2013-02-20 23:25:00,
2013-02-20 18:26:00,16.5,7.8,29.47,NNW,338,3.6,5.4,68,0.00,,,33.01,VWS V14.01,2013-02-20 23:26:00,
2013-02-20 18:27:00,16.5,7.8,29.47,WNW,292,8.7,8.7,68,0.00,,,33.01,VWS V14.01,2013-02-20 23:27:00,
2013-02-20 18:28:00,16.5,7.8,29.47,WNW,292,16.8,16.8,68,0.00,,,33.01,VWS V14.01,2013-02-20 23:28:00,
2013-02-20 18:29:00,16.5,7.8,29.47,NNW,338,7.8,16.8,68,0.00,,,33.01,VWS V14.01,2013-02-20 23:29:00,
2013-02-20 18:30:00,16.5,7.8,29.47,NNW,338,4.9,7.8,68,0.00,,,33.01,VWS V14.01,2013-02-20 23:30:00,
2013-02-20 18:31:00,16.5,7.8,29.47,NNW,338,6.0,6.0,68,0.00,,,33.01,VWS V14.01,2013-02-20 23:31:00,
2013-02-20 18:32:00,16.5,7.8,29.47,WNW,292,11.0,13.2,68,0.00,,,33.01,VWS V14.01,2013-02-20 23:32:00,
2013-02-20 18:33:00,16.7,8.0,29.47,WNW,292,6.3,11.0,68,0.00,,,33.01,VWS V14.01,2013-02-20 23:33:00,
2013-02-20 18:34:00,16.7,8.0,29.47,NW,315,7.8,7.8,68,0.00,,,33.01,VWS V14.01,2013-02-20 23:34:00,
2013-02-20 18:35:00,16.7,7.7,29.47,NW,315,8.1,14.1,67,0.00,,,33.01,VWS V14.01,2013-02-20 23:35:00,
2013-02-20 18:36:00,16.7,7.3,29.47,WNW,292,11.9,11.9,66,0.00,,,33.01,VWS V14.01,2013-02-20 23:36:00,
2013-02-20 18:37:00,18.1,9.0,29.47,North,0,4.0,6.3,67,0.00,,,33.01,VWS V14.01,2013-02-20 23:37:00,
2013-02-20 18:38:00,16.7,7.3,29.47,WNW,292,4.9,5.8,66,0.00,,,33.01,VWS V14.01,2013-02-20 23:38:00,
2013-02-20 18:39:00,18.1,8.7,29.47,West,270,5.8,10.5,66,0.00,,,33.01,VWS V14.01,2013-02-20 23:39:00,
2013-02-20 18:40:00,16.7,7.3,29.47,NNW,338,3.6,4.9,66,0.00,,,33.01,VWS V14.01,2013-02-20 23:40:00,
2013-02-20 18:41:00,16.7,7.3,29.47,SSE,158,7.8,9.4,66,0.00,,,33.01,VWS V14.01,2013-02-20 23:41:00,
2013-02-20 18:42:00,16.7,7.3,29.47,NW,315,11.0,11.0,66,0.00,,,33.01,VWS V14.01,2013-02-20 23:42:00,
2013-02-20 18:43:00,16.7,7.3,29.47,WNW,292,12.3,12.3,66,0.00,,,33.01,VWS V14.01,2013-02-20 23:43:00,
2013-02-20 18:44:00,16.7,7.3,29.47,WNW,292,5.6,12.3,66,0.00,,,33.01,VWS V14.01,2013-02-20 23:44:00,
2013-02-20 18:45:00,16.9,7.5,29.47,North,0,3.4,9.8,66,0.00,,,33.01,VWS V14.01,2013-02-20 23:45:00,
2013-02-20 18:46:00,16.9,7.5,29.47,NW,315,5.6,8.5,66,0.00,,,33.01,VWS V14.01,2013-02-20 23:46:00,
2013-02-20 18:47:00,18.1,8.0,29.47,NW,315,10.1,15.4,64,0.00,,,33.01,VWS V14.01,2013-02-20 23:47:00,
2013-02-20 18:48:00,16.9,7.8,29.47,North,0,4.3,5.8,67,0.00,,,33.01,VWS V14.01,2013-02-20 23:48:00,
2013-02-20 18:49:00,16.9,7.8,29.47,WNW,292,4.9,5.6,67,0.00,,,33.01,VWS V14.01,2013-02-20 23:49:00,
2013-02-20 18:50:00,17.1,8.0,29.47,WNW,292,10.1,10.1,67,0.00,,,33.01,VWS V14.01,2013-02-20 23:50:00,
2013-02-20 18:51:00,17.1,8.0,29.47,NW,315,8.1,10.1,67,0.00,,,33.01,VWS V14.01,2013-02-20 23:51:00,
2013-02-20 18:52:00,17.1,8.0,29.47,WNW,292,3.6,8.1,67,0.00,,,33.01,VWS V14.01,2013-02-20 23:52:00,
2013-02-20 18:53:00,17.1,8.0,29.47,WNW,292,3.6,3.6,67,0.00,,,33.01,VWS V14.01,2013-02-20 23:53:00,
2013-02-20 18:54:00,18.3,8.2,29.47,NNW,338,3.1,6.5,64,0.00,,,33.01,VWS V14.01,2013-02-20 23:54:00,
2013-02-20 18:55:00,17.1,8.0,29.47,NE,45,5.6,7.8,67,0.00,,,33.01,VWS V14.01,2013-02-20 23:55:00,
2013-02-20 18:56:00,17.1,8.0,29.47,WNW,292,6.9,6.9,67,0.00,,,33.01,VWS V14.01,2013-02-20 23:56:00,
2013-02-20 18:57:00,17.1,8.0,29.47,NW,315,9.8,9.8,67,0.00,,,33.01,VWS V14.01,2013-02-20 23:57:00,
2013-02-20 18:58:00,17.1,7.7,29.47,NW,315,4.9,10.5,66,0.00,,,33.01,VWS V14.01,2013-02-20 23:58:00,
2013-02-20 18:59:00,17.1,7.3,29.47,WNW,292,3.6,7.6,65,0.00,,,33.01,VWS V14.01,2013-02-20 23:59:00,
2013-02-20 19:00:00,17.1,7.3,29.47,NNW,338,2.7,3.6,65,0.00,,,33.01,VWS V14.01,2013-02-21 00:00:00,
2013-02-20 19:01:00,17.1,7.3,29.47,North,0,12.5,12.5,65,0.00,,,33.01,VWS V14.01,2013-02-21 00:01:00,
2013-02-20 19:02:00,17.1,7.3,29.47,North,0,5.4,12.5,65,0.00,,,33.01,VWS V14.01,2013-02-21 00:02:00,
2013-02-20 19:03:00,17.1,7.3,29.47,NNW,338,8.5,8.5,65,0.00,,,33.01,VWS V14.01,2013-02-21 00:03:00,
2013-02-20 19:04:00,17.1,7.3,29.47,WNW,292,7.6,10.7,65,0.00,,,33.01,VWS V14.01,2013-02-21 00:04:00,
2013-02-20 19:05:00,17.1,7.3,29.47,NNW,338,3.8,14.3,65,0.00,,,33.01,VWS V14.01,2013-02-21 00:05:00,
2013-02-20 19:06:00,17.1,7.3,29.47,NW,315,6.0,6.0,65,0.00,,,33.01,VWS V14.01,2013-02-21 00:06:00,
2013-02-20 19:07:00,18.5,9.7,29.47,East,90,6.5,6.5,68,0.00,,,33.01,VWS V14.01,2013-02-21 00:07:00,
2013-02-20 19:08:00,17.1,7.3,29.47,WNW,292,4.0,6.0,65,0.00,,,33.01,VWS V14.01,2013-02-21 00:08:00,
2013-02-20 19:09:00,17.4,8.0,29.47,WNW,292,7.6,7.6,66,0.00,,,33.01,VWS V14.01,2013-02-21 00:09:00,
2013-02-20 19:10:00,17.4,8.0,29.47,WNW,292,8.5,8.5,66,0.00,,,33.01,VWS V14.01,2013-02-21 00:10:00,
2013-02-20 19:11:00,17.4,8.0,29.47,NW,315,6.0,10.3,66,0.00,,,33.01,VWS V14.01,2013-02-21 00:11:00,
2013-02-20 19:12:00,17.4,8.0,29.47,NNE,22,5.6,7.2,66,0.00,,,33.01,VWS V14.01,2013-02-21 00:12:00,
2013-02-20 19:13:00,17.4,8.0,29.47,NNW,338,10.3,10.3,66,0.00,,,33.01,VWS V14.01,2013-02-21 00:13:00,
2013-02-20 19:14:00,17.4,8.0,29.47,NW,315,4.7,10.3,66,0.00,,,33.01,VWS V14.01,2013-02-21 00:14:00,
2013-02-20 19:15:00,17.4,8.0,29.47,NW,315,4.0,10.3,66,0.00,,,33.01,VWS V14.01,2013-02-21 00:15:00,
2013-02-20 19:16:00,17.4,8.0,29.47,NW,315,5.6,5.6,66,0.00,,,33.01,VWS V14.01,2013-02-21 00:16:00,
2013-02-20 19:17:00,17.4,8.0,29.47,NNW,338,7.6,7.6,66,0.00,,,33.01,VWS V14.01,2013-02-21 00:17:00,
2013-02-20 19:18:00,17.6,8.2,29.47,NW,315,9.8,21.3,66,0.00,,,33.01,VWS V14.01,2013-02-21 00:18:00,
2013-02-20 19:19:00,17.6,8.2,29.47,WNW,292,7.2,9.8,66,0.00,,,33.01,VWS V14.01,2013-02-21 00:19:00,
2013-02-20 19:20:00,17.6,8.2,29.47,WNW,292,4.9,7.2,66,0.00,,,33.01,VWS V14.01,2013-02-21 00:20:00,
2013-02-20 19:21:00,17.6,8.2,29.47,NNE,22,8.1,8.1,66,0.00,,,33.01,VWS V14.01,2013-02-21 00:21:00,
2013-02-20 19:22:00,17.6,8.2,29.47,NNE,22,8.1,8.1,66,0.00,,,33.01,VWS V14.01,2013-02-21 00:22:00,
2013-02-20 19:23:00,17.6,8.2,29.47,NNE,22,8.1,8.1,66,0.00,,,33.01,VWS V14.01,2013-02-21 00:23:00,
2013-02-20 19:24:00,17.8,8.7,29.47,North,0,8.1,8.5,67,0.00,,,33.01,VWS V14.01,2013-02-21 00:24:00,
2013-02-20 19:25:00,17.8,8.7,29.47,NW,315,6.3,10.1,67,0.00,,,33.01,VWS V14.01,2013-02-21 00:25:00,
2013-02-20 19:26:00,17.8,8.7,29.47,WNW,292,4.0,4.9,67,0.00,,,33.01,VWS V14.01,2013-02-21 00:26:00,
2013-02-20 19:27:00,17.8,8.7,29.47,WNW,292,2.7,4.9,67,0.00,,,33.01,VWS V14.01,2013-02-21 00:27:00,
2013-02-20 19:28:00,18.0,8.9,29.47,NNE,22,3.6,4.9,67,0.00,,,33.01,VWS V14.01,2013-02-21 00:28:00,
2013-02-20 19:29:00,18.0,9.2,29.47,WNW,292,7.2,14.3,68,0.00,,,33.01,VWS V14.01,2013-02-21 00:29:00,
2013-02-20 19:30:00,18.7,9.6,29.47,NNW,338,7.8,7.8,67,0.00,,,33.01,VWS V14.01,2013-02-21 00:30:00,
2013-02-20 19:31:00,18.0,9.2,29.47,NE,45,3.6,8.5,68,0.00,,,33.01,VWS V14.01,2013-02-21 00:31:00,
2013-02-20 19:32:00,18.0,9.2,29.47,North,0,2.7,8.5,68,0.00,,,33.01,VWS V14.01,2013-02-21 00:32:00,
2013-02-20 19:33:00,18.0,9.2,29.47,West,270,4.3,7.8,68,0.00,,,33.01,VWS V14.01,2013-02-21 00:33:00,
2013-02-20 19:34:00,18.0,9.2,29.47,North,0,6.5,7.6,68,0.00,,,33.01,VWS V14.01,2013-02-21 00:34:00,
2013-02-20 19:35:00,18.1,9.4,29.47,NW,315,7.2,7.8,68,0.00,,,33.01,VWS V14.01,2013-02-21 00:35:00,
2013-02-20 19:36:00,18.1,9.0,29.47,North,0,4.0,6.3,67,0.00,,,33.01,VWS V14.01,2013-02-21 00:36:00,
2013-02-20 19:37:00,18.1,9.0,29.47,North,0,4.0,6.3,67,0.00,,,33.01,VWS V14.01,2013-02-21 00:37:00,
2013-02-20 19:38:00,18.9,9.4,29.47,WNW,292,6.9,6.9,66,0.00,,,33.01,VWS V14.01,2013-02-21 00:38:00,
2013-02-20 19:39:00,18.1,8.7,29.47,West,270,5.8,10.5,66,0.00,,,33.01,VWS V14.01,2013-02-21 00:39:00,
2013-02-20 19:40:00,18.1,8.4,29.47,WNW,292,12.8,12.8,65,0.00,,,33.01,VWS V14.01,2013-02-21 00:40:00,
2013-02-20 19:41:00,18.1,8.4,29.47,North,0,7.2,7.2,65,0.00,,,33.01,VWS V14.01,2013-02-21 00:41:00,
2013-02-20 19:42:00,18.1,8.4,29.47,North,0,7.2,7.2,65,0.00,,,33.01,VWS V14.01,2013-02-21 00:42:00,
2013-02-20 19:43:00,18.1,8.4,29.47,NNW,338,4.0,9.6,65,0.00,,,33.01,VWS V14.01,2013-02-21 00:43:00,
2013-02-20 19:44:00,18.1,8.0,29.47,WSW,248,7.4,8.5,64,0.00,,,33.01,VWS V14.01,2013-02-21 00:44:00,
2013-02-20 19:45:00,18.0,7.8,29.47,NNW,338,6.0,7.4,64,0.00,,,33.01,VWS V14.01,2013-02-21 00:45:00,
2013-02-20 19:46:00,18.1,8.0,29.47,NNW,338,15.4,15.4,64,0.00,,,33.01,VWS V14.01,2013-02-21 00:46:00,
2013-02-20 19:47:00,18.1,8.0,29.47,NW,315,10.1,15.4,64,0.00,,,33.01,VWS V14.01,2013-02-21 00:47:00,
2013-02-20 19:48:00,18.1,8.0,29.47,WNW,292,11.4,11.4,64,0.00,,,33.01,VWS V14.01,2013-02-21 00:48:00,
2013-02-20 19:49:00,18.1,8.0,29.47,West,270,10.5,17.9,64,0.00,,,33.01,VWS V14.01,2013-02-21 00:49:00,
2013-02-20 19:50:00,18.1,8.0,29.47,NW,315,7.4,10.5,64,0.00,,,33.01,VWS V14.01,2013-02-21 00:50:00,
2013-02-20 19:51:00,18.1,8.0,29.47,North,0,5.8,5.8,64,0.00,,,33.01,VWS V14.01,2013-02-21 00:51:00,
2013-02-20 19:52:00,18.3,8.2,29.47,NNW,338,4.3,7.2,64,0.00,,,33.01,VWS V14.01,2013-02-21 00:52:00,
2013-02-20 19:53:00,18.3,8.2,29.47,North,0,6.5,6.5,64,0.00,,,33.01,VWS V14.01,2013-02-21 00:53:00,
2013-02-20 19:54:00,18.9,9.4,29.50,North,0,5.6,5.6,66,0.00,,,33.01,VWS V14.01,2013-02-21 00:54:00,
2013-02-20 19:55:00,18.3,8.5,29.47,West,270,5.4,9.4,65,0.00,,,33.01,VWS V14.01,2013-02-21 00:55:00,
2013-02-20 19:56:00,18.3,8.9,29.47,WSW,248,5.6,8.7,66,0.00,,,33.01,VWS V14.01,2013-02-21 00:56:00,
2013-02-20 19:57:00,18.3,8.9,29.47,WNW,292,5.4,8.7,66,0.00,,,33.01,VWS V14.01,2013-02-21 00:57:00,
2013-02-20 19:58:00,18.3,8.9,29.47,WNW,292,6.3,6.3,66,0.00,,,33.01,VWS V14.01,2013-02-21 00:58:00,
2013-02-20 19:59:00,18.3,9.2,29.47,WNW,292,3.4,8.1,67,0.00,,,33.01,VWS V14.01,2013-02-21 00:59:00,
2013-02-20 20:00:00,18.3,9.2,29.47,WNW,292,5.6,5.6,67,0.00,,,33.01,VWS V14.01,2013-02-21 01:00:00,
2013-02-20 20:01:00,18.3,9.2,29.47,NNW,338,4.3,6.7,67,0.00,,,33.01,VWS V14.01,2013-02-21 01:01:00,
2013-02-20 20:02:00,18.3,9.2,29.47,NW,315,8.7,8.7,67,0.00,,,33.01,VWS V14.01,2013-02-21 01:02:00,
2013-02-20 20:03:00,18.3,9.2,29.47,NW,315,4.3,8.7,67,0.00,,,33.01,VWS V14.01,2013-02-21 01:03:00,
2013-02-20 20:04:00,18.5,9.4,29.47,WNW,292,6.0,9.6,67,0.00,,,33.01,VWS V14.01,2013-02-21 01:04:00,
2013-02-20 20:05:00,19.0,9.9,29.50,North,0,5.4,7.8,67,0.00,,,33.01,VWS V14.01,2013-02-21 01:05:00,
2013-02-20 20:06:00,18.5,9.7,29.47,East,90,6.5,6.5,68,0.00,,,33.01,VWS V14.01,2013-02-21 01:06:00,
2013-02-20 20:07:00,18.5,9.7,29.47,East,90,6.5,6.5,68,0.00,,,33.01,VWS V14.01,2013-02-21 01:07:00,
2013-02-20 20:08:00,18.5,9.7,29.47,NNW,338,13.2,13.2,68,0.00,,,33.01,VWS V14.01,2013-02-21 01:08:00,
2013-02-20 20:09:00,18.5,9.4,29.47,North,0,6.0,13.2,67,0.00,,,33.01,VWS V14.01,2013-02-21 01:09:00,
2013-02-20 20:10:00,18.5,9.4,29.47,NNW,338,5.8,10.7,67,0.00,,,33.01,VWS V14.01,2013-02-21 01:10:00,
2013-02-20 20:11:00,18.5,9.1,29.47,WNW,292,9.2,9.2,66,0.00,,,33.01,VWS V14.01,2013-02-21 01:11:00,
2013-02-20 20:12:00,18.5,9.1,29.47,NNW,338,6.0,9.2,66,0.00,,,33.01,VWS V14.01,2013-02-21 01:12:00,
2013-02-20 20:13:00,18.7,9.2,29.47,NNW,338,3.8,7.8,66,0.00,,,33.01,VWS V14.01,2013-02-21 01:13:00,
2013-02-20 20:14:00,18.7,9.2,29.47,WNW,292,13.0,13.0,66,0.00,,,33.01,VWS V14.01,2013-02-21 01:14:00,
2013-02-20 20:15:00,18.7,9.2,29.47,WNW,292,5.6,13.0,66,0.00,,,33.01,VWS V14.01,2013-02-21 01:15:00,
2013-02-20 20:16:00,18.7,9.6,29.47,NNW,338,9.2,9.2,67,0.00,,,33.01,VWS V14.01,2013-02-21 01:16:00,
2013-02-20 20:17:00,18.7,9.6,29.47,NNW,338,6.9,9.2,67,0.00,,,33.01,VWS V14.01,2013-02-21 01:17:00,
2013-02-20 20:18:00,18.7,9.6,29.47,WNW,292,6.0,11.0,67,0.00,,,33.01,VWS V14.01,2013-02-21 01:18:00,
2013-02-20 20:19:00,18.7,9.6,29.47,WNW,292,10.3,10.3,67,0.00,,,33.01,VWS V14.01,2013-02-21 01:19:00,
2013-02-20 20:20:00,19.2,9.7,29.47,NNW,338,5.4,9.8,66,0.00,,,33.01,VWS V14.01,2013-02-21 01:20:00,
2013-02-20 20:21:00,19.2,9.7,29.47,WNW,292,8.7,12.5,66,0.00,,,33.01,VWS V14.01,2013-02-21 01:21:00,
2013-02-20 20:22:00,18.7,9.6,29.47,North,0,5.4,5.4,67,0.00,,,33.01,VWS V14.01,2013-02-21 01:22:00,
2013-02-20 20:23:00,18.7,9.6,29.47,NW,315,13.4,13.4,67,0.00,,,33.01,VWS V14.01,2013-02-21 01:23:00,
2013-02-20 20:24:00,18.7,9.6,29.47,NNW,338,3.4,13.4,67,0.00,,,33.01,VWS V14.01,2013-02-21 01:24:00,
2013-02-20 20:25:00,18.7,9.9,29.47,North,0,3.8,7.6,68,0.00,,,33.01,VWS V14.01,2013-02-21 01:25:00,
2013-02-20 20:26:00,18.7,9.9,29.47,WNW,292,5.4,7.8,68,0.00,,,33.01,VWS V14.01,2013-02-21 01:26:00,
2013-02-20 20:27:00,18.7,9.9,29.47,NW,315,5.4,7.6,68,0.00,,,33.01,VWS V14.01,2013-02-21 01:27:00,
2013-02-20 20:28:00,18.7,9.9,29.47,North,0,6.3,9.4,68,0.00,,,33.01,VWS V14.01,2013-02-21 01:28:00,
2013-02-20 20:29:00,18.7,9.6,29.47,NNW,338,7.8,10.3,67,0.00,,,33.01,VWS V14.01,2013-02-21 01:29:00,
2013-02-20 20:30:00,18.7,9.6,29.47,NNW,338,7.8,7.8,67,0.00,,,33.01,VWS V14.01,2013-02-21 01:30:00,
2013-02-20 20:31:00,18.7,9.6,29.47,NW,315,5.4,7.8,67,0.00,,,33.01,VWS V14.01,2013-02-21 01:31:00,
2013-02-20 20:32:00,18.7,9.2,29.47,North,0,3.8,5.6,66,0.00,,,33.01,VWS V14.01,2013-02-21 01:32:00,
2013-02-20 20:33:00,18.7,9.2,29.47,NNW,338,10.5,10.5,66,0.00,,,33.01,VWS V14.01,2013-02-21 01:33:00,
2013-02-20 20:34:00,18.7,9.2,29.47,WNW,292,8.5,10.5,66,0.00,,,33.01,VWS V14.01,2013-02-21 01:34:00,
2013-02-20 20:35:00,18.7,9.2,29.47,WNW,292,8.5,8.5,66,0.00,,,33.01,VWS V14.01,2013-02-21 01:35:00,
2013-02-20 20:36:00,18.7,9.2,29.47,NNE,22,5.8,8.5,66,0.00,,,33.01,VWS V14.01,2013-02-21 01:36:00,
2013-02-20 20:37:00,18.9,9.4,29.47,WNW,292,6.9,6.9,66,0.00,,,33.01,VWS V14.01,2013-02-21 01:37:00,
2013-02-20 20:38:00,18.9,9.4,29.47,WNW,292,6.9,6.9,66,0.00,,,33.01,VWS V14.01,2013-02-21 01:38:00,
2013-02-20 20:39:00,18.9,9.4,29.47,WNW,292,6.9,6.9,66,0.00,,,33.01,VWS V14.01,2013-02-21 01:39:00,
2013-02-20 20:40:00,18.9,9.4,29.47,NNW,338,13.0,13.0,66,0.00,,,33.01,VWS V14.01,2013-02-21 01:40:00,
2013-02-20 20:41:00,18.9,9.1,29.47,NNW,338,4.0,13.0,65,0.00,,,33.01,VWS V14.01,2013-02-21 01:41:00,
2013-02-20 20:42:00,18.7,8.9,29.47,NNW,338,5.8,8.7,65,0.00,,,33.01,VWS V14.01,2013-02-21 01:42:00,
2013-02-20 20:43:00,18.7,8.9,29.47,WNW,292,6.5,8.7,65,0.00,,,33.01,VWS V14.01,2013-02-21 01:43:00,
2013-02-20 20:44:00,18.9,9.1,29.47,NW,315,8.1,8.1,65,0.00,,,33.01,VWS V14.01,2013-02-21 01:44:00,
2013-02-20 20:45:00,18.9,9.1,29.47,WNW,292,5.6,8.1,65,0.00,,,33.01,VWS V14.01,2013-02-21 01:45:00,
2013-02-20 20:46:00,18.9,9.1,29.47,NNW,338,10.3,10.7,65,0.00,,,33.01,VWS V14.01,2013-02-21 01:46:00,
2013-02-20 20:47:00,18.9,9.1,29.47,WSW,248,5.6,6.3,65,0.00,,,33.01,VWS V14.01,2013-02-21 01:47:00,
2013-02-20 20:48:00,18.9,9.1,29.47,WNW,292,7.2,7.2,65,0.00,,,33.01,VWS V14.01,2013-02-21 01:48:00,
2013-02-20 20:49:00,18.9,9.1,29.47,WNW,292,5.6,7.2,65,0.00,,,33.01,VWS V14.01,2013-02-21 01:49:00,
2013-02-20 20:50:00,18.9,9.4,29.47,NNW,338,4.3,7.2,66,0.00,,,33.01,VWS V14.01,2013-02-21 01:50:00,
2013-02-20 20:51:00,18.9,9.4,29.47,NNW,338,8.7,8.7,66,0.00,,,33.01,VWS V14.01,2013-02-21 01:51:00,
2013-02-20 20:52:00,18.9,9.4,29.50,NNW,338,6.3,7.6,66,0.00,,,33.01,VWS V14.01,2013-02-21 01:52:00,
2013-02-20 20:53:00,18.9,9.4,29.50,NNW,338,4.9,7.6,66,0.00,,,33.01,VWS V14.01,2013-02-21 01:53:00,
2013-02-20 20:54:00,18.9,9.4,29.50,North,0,5.6,5.6,66,0.00,,,33.01,VWS V14.01,2013-02-21 01:54:00,
2013-02-20 20:55:00,19.0,9.9,29.50,WNW,292,6.3,8.1,67,0.00,,,33.01,VWS V14.01,2013-02-21 01:55:00,
2013-02-20 20:56:00,19.0,9.9,29.50,NW,315,7.6,7.6,67,0.00,,,33.01,VWS V14.01,2013-02-21 01:56:00,
2013-02-20 20:57:00,19.0,10.2,29.50,NNW,338,7.4,10.1,68,0.00,,,33.01,VWS V14.01,2013-02-21 01:57:00,
2013-02-20 20:58:00,19.0,10.2,29.50,SSW,202,6.0,10.1,68,0.00,,,33.01,VWS V14.01,2013-02-21 01:58:00,
2013-02-20 20:59:00,19.0,9.9,29.50,NW,315,5.8,13.2,67,0.00,,,33.01,VWS V14.01,2013-02-21 01:59:00,
2013-02-20 21:00:00,19.0,9.9,29.50,NW,315,5.8,5.8,67,0.00,,,33.01,VWS V14.01,2013-02-21 02:00:00,
2013-02-20 21:01:00,19.0,9.9,29.50,NNW,338,6.3,12.1,67,0.00,,,33.01,VWS V14.01,2013-02-21 02:01:00,
2013-02-20 21:02:00,19.0,9.9,29.50,NW,315,10.3,10.3,67,0.00,,,33.01,VWS V14.01,2013-02-21 02:02:00,
2013-02-20 21:03:00,19.0,9.9,29.50,WNW,292,8.7,10.3,67,0.00,,,33.01,VWS V14.01,2013-02-21 02:03:00,
2013-02-20 21:04:00,19.0,9.9,29.50,NNW,338,6.7,14.1,67,0.00,,,33.01,VWS V14.01,2013-02-21 02:04:00,
2013-02-20 21:05:00,19.0,9.9,29.50,North,0,5.4,7.8,67,0.00,,,33.01,VWS V14.01,2013-02-21 02:05:00,
2013-02-20 21:06:00,19.0,9.9,29.50,NNW,338,13.2,13.2,67,0.00,,,33.01,VWS V14.01,2013-02-21 02:06:00,
2013-02-20 21:07:00,19.0,9.6,29.47,NNW,338,14.5,14.5,66,0.00,,,33.01,VWS V14.01,2013-02-21 02:07:00,
2013-02-20 21:08:00,19.0,9.6,29.47,NW,315,4.5,14.5,66,0.00,,,33.01,VWS V14.01,2013-02-21 02:08:00,
2013-02-20 21:09:00,19.0,9.6,29.47,NNW,338,6.5,6.5,66,0.00,,,33.01,VWS V14.01,2013-02-21 02:09:00,
2013-02-20 21:10:00,19.2,9.7,29.47,NNW,338,12.8,12.8,66,0.00,,,33.01,VWS V14.01,2013-02-21 02:10:00,
2013-02-20 21:11:00,19.2,9.7,29.47,NNW,338,6.3,12.8,66,0.00,,,33.01,VWS V14.01,2013-02-21 02:11:00,
2013-02-20 21:12:00,19.0,9.6,29.47,NNE,22,7.8,7.8,66,0.00,,,33.01,VWS V14.01,2013-02-21 02:12:00,
2013-02-20 21:13:00,19.0,9.6,29.47,NW,315,2.9,7.8,66,0.00,,,33.01,VWS V14.01,2013-02-21 02:13:00,
2013-02-20 21:14:00,19.0,9.9,29.47,NNW,338,7.6,11.0,67,0.00,,,33.01,VWS V14.01,2013-02-21 02:14:00,
2013-02-20 21:15:00,19.0,9.6,29.47,NW,315,7.6,8.1,66,0.00,,,33.01,VWS V14.01,2013-02-21 02:15:00,
2013-02-20 21:16:00,19.2,9.7,29.47,WSW,248,6.0,8.1,66,0.00,,,33.01,VWS V14.01,2013-02-21 02:16:00,
2013-02-20 21:17:00,19.2,9.7,29.47,NNW,338,7.8,7.8,66,0.00,,,33.01,VWS V14.01,2013-02-21 02:17:00,
2013-02-20 21:18:00,19.2,9.7,29.47,WNW,292,4.7,7.8,66,0.00,,,33.01,VWS V14.01,2013-02-21 02:18:00,
2013-02-20 21:19:00,19.2,9.7,29.47,NNW,338,5.8,6.5,66,0.00,,,33.01,VWS V14.01,2013-02-21 02:19:00,
2013-02-20 21:20:00,19.2,9.7,29.47,NNW,338,5.4,9.8,66,0.00,,,33.01,VWS V14.01,2013-02-21 02:20:00,
2013-02-20 21:21:00,19.2,9.7,29.47,WNW,292,8.7,12.5,66,0.00,,,33.01,VWS V14.01,2013-02-21 02:21:00,
2013-02-20 21:22:00,19.2,9.7,29.47,East,90,5.8,5.8,66,0.00,,,33.01,VWS V14.01,2013-02-21 02:22:00,
2013-02-20 21:23:00,19.2,10.1,29.47,NW,315,3.6,5.8,67,0.00,,,33.01,VWS V14.01,2013-02-21 02:23:00,
2013-02-20 21:24:00,19.2,10.1,29.47,NW,315,10.7,10.7,67,0.00,,,33.01,VWS V14.01,2013-02-21 02:24:00,
2013-02-20 21:25:00,19.2,10.4,29.47,NNW,338,7.6,10.7,68,0.00,,,33.01,VWS V14.01,2013-02-21 02:25:00,
2013-02-20 21:26:00,19.2,10.4,29.47,NNW,338,5.4,7.6,68,0.00,,,33.01,VWS V14.01,2013-02-21 02:26:00,
2013-02-20 21:27:00,19.2,10.4,29.47,NE,45,2.0,6.3,68,0.00,,,33.01,VWS V14.01,2013-02-21 02:27:00,
2013-02-20 21:28:00,19.2,10.4,29.47,North,0,5.4,6.3,68,0.00,,,33.01,VWS V14.01,2013-02-21 02:28:00,
2013-02-20 21:29:00,19.0,10.6,29.47,NW,315,3.4,5.6,69,0.00,,,33.01,VWS V14.01,2013-02-21 02:29:00,
2013-02-20 21:30:00,19.0,10.6,29.47,North,0,6.9,9.8,69,0.00,,,33.01,VWS V14.01,2013-02-21 02:30:00,
2013-02-20 21:31:00,19.2,10.7,29.47,NNE,22,10.5,10.5,69,0.00,,,33.01,VWS V14.01,2013-02-21 02:31:00,
2013-02-20 21:32:00,19.2,11.1,29.47,NE,45,3.6,3.6,70,0.00,,,33.01,VWS V14.01,2013-02-21 02:32:00,
2013-02-20 21:33:00,19.0,10.9,29.47,NNW,338,4.0,4.0,70,0.00,,,33.01,VWS V14.01,2013-02-21 02:33:00,
2013-02-20 21:34:00,18.3,10.8,29.50,WNW,292,2.7,3.8,72,0.00,,,33.01,VWS V14.01,2013-02-21 02:34:00,
2013-02-20 21:35:00,19.0,10.9,29.47,NNW,338,2.0,3.6,70,0.00,,,33.01,VWS V14.01,2013-02-21 02:35:00,
2013-02-20 21:36:00,19.0,10.9,29.47,North,0,5.8,5.8,70,0.00,,,33.01,VWS V14.01,2013-02-21 02:36:00,
2013-02-20 21:37:00,19.0,11.2,29.47,North,0,5.8,5.8,71,0.00,,,33.01,VWS V14.01,2013-02-21 02:37:00,
2013-02-20 21:38:00,19.0,11.2,29.50,North,0,1.6,5.8,71,0.00,,,33.01,VWS V14.01,2013-02-21 02:38:00,
2013-02-20 21:39:00,18.9,11.0,29.50,West,270,4.0,4.3,71,0.00,,,33.01,VWS V14.01,2013-02-21 02:39:00,
2013-02-20 21:40:00,18.9,11.0,29.50,WNW,292,6.0,6.0,71,0.00,,,33.01,VWS V14.01,2013-02-21 02:40:00,
2013-02-20 21:41:00,18.9,11.0,29.50,NNW,338,5.6,7.6,71,0.00,,,33.01,VWS V14.01,2013-02-21 02:41:00,
2013-02-20 21:42:00,18.9,11.0,29.50,North,0,2.7,5.6,71,0.00,,,33.01,VWS V14.01,2013-02-21 02:42:00,
2013-02-20 21:43:00,18.9,11.0,29.50,ENE,68,5.6,5.6,71,0.00,,,33.01,VWS V14.01,2013-02-21 02:43:00,
2013-02-20 21:44:00,18.9,11.0,29.50,North,0,4.9,6.5,71,0.00,,,33.01,VWS V14.01,2013-02-21 02:44:00,
2013-02-20 21:45:00,18.7,11.2,29.50,NNW,338,3.8,5.6,72,0.00,,,33.01,VWS V14.01,2013-02-21 02:45:00,
2013-02-20 21:46:00,18.7,11.2,29.50,NNW,338,3.4,3.8,72,0.00,,,33.01,VWS V14.01,2013-02-21 02:46:00,
2013-02-20 21:47:00,18.7,11.2,29.50,NNW,338,5.4,5.8,72,0.00,,,33.01,VWS V14.01,2013-02-21 02:47:00,
2013-02-20 21:48:00,18.7,11.2,29.50,NNE,22,3.8,5.8,72,0.00,,,33.01,VWS V14.01,2013-02-21 02:48:00,
2013-02-20 21:49:00,18.7,11.2,29.50,NNE,22,1.6,5.8,72,0.00,,,33.01,VWS V14.01,2013-02-21 02:49:00,
2013-02-20 21:50:00,18.5,11.0,29.50,NW,315,2.5,6.5,72,0.00,,,33.01,VWS V14.01,2013-02-21 02:50:00,
2013-02-20 21:51:00,18.5,11.0,29.50,North,0,4.9,4.9,72,0.00,,,33.01,VWS V14.01,2013-02-21 02:51:00,
2013-02-20 21:52:00,18.5,11.0,29.50,West,270,4.9,6.0,72,0.00,,,33.01,VWS V14.01,2013-02-21 02:52:00,
2013-02-20 21:53:00,18.1,10.6,29.50,WNW,292,4.7,4.9,72,0.00,,,33.01,VWS V14.01,2013-02-21 02:53:00,
2013-02-20 21:54:00,18.5,11.0,29.50,NNE,22,2.5,6.9,72,0.00,,,33.01,VWS V14.01,2013-02-21 02:54:00,
2013-02-20 21:55:00,18.5,11.0,29.50,NNW,338,3.1,4.3,72,0.00,,,33.01,VWS V14.01,2013-02-21 02:55:00,
2013-02-20 21:56:00,18.5,11.0,29.50,North,0,4.9,4.9,72,0.00,,,33.01,VWS V14.01,2013-02-21 02:56:00,
2013-02-20 21:57:00,18.5,11.0,29.50,NNE,22,8.5,8.5,72,0.00,,,33.01,VWS V14.01,2013-02-21 02:57:00,
2013-02-20 21:58:00,18.1,10.3,29.50,North,0,3.4,6.0,71,0.00,,,33.01,VWS V14.01,2013-02-21 02:58:00,
2013-02-20 21:59:00,18.5,11.0,29.50,North,0,7.4,8.5,72,0.00,,,33.01,VWS V14.01,2013-02-21 02:59:00,
2013-02-20 22:00:00,18.1,10.3,29.50,NNE,22,5.4,5.4,71,0.00,,,33.01,VWS V14.01,2013-02-21 03:00:00,
2013-02-20 22:01:00,18.5,11.0,29.50,NNW,338,4.0,7.4,72,0.00,,,33.01,VWS V14.01,2013-02-21 03:01:00,
2013-02-20 22:02:00,18.3,10.8,29.50,NNE,22,4.9,6.3,72,0.00,,,33.01,VWS V14.01,2013-02-21 03:02:00,
2013-02-20 22:03:00,18.3,10.8,29.50,NNE,22,5.6,6.3,72,0.00,,,33.01,VWS V14.01,2013-02-21 03:03:00,
2013-02-20 22:04:00,18.3,10.8,29.50,NNE,22,6.3,6.5,72,0.00,,,33.01,VWS V14.01,2013-02-21 03:04:00,
2013-02-20 22:05:00,18.3,10.8,29.50,NNE,22,4.9,7.4,72,0.00,,,33.01,VWS V14.01,2013-02-21 03:05:00,
2013-02-20 22:06:00,18.3,10.8,29.50,NE,45,3.8,7.2,72,0.00,,,33.01,VWS V14.01,2013-02-21 03:06:00,
2013-02-20 22:07:00,18.3,10.8,29.50,NNW,338,4.3,4.3,72,0.00,,,33.01,VWS V14.01,2013-02-21 03:07:00,
2013-02-20 22:08:00,18.3,10.8,29.50,North,0,4.0,4.3,72,0.00,,,33.01,VWS V14.01,2013-02-21 03:08:00,
2013-02-20 22:09:00,18.1,10.6,29.50,NNW,338,5.6,6.3,72,0.00,,,33.01,VWS V14.01,2013-02-21 03:09:00,
2013-02-20 22:10:00,18.1,10.6,29.50,NNW,338,2.7,5.6,72,0.00,,,33.01,VWS V14.01,2013-02-21 03:10:00,
2013-02-20 22:11:00,18.1,10.6,29.50,NE,45,3.8,3.8,72,0.00,,,33.01,VWS V14.01,2013-02-21 03:11:00,
2013-02-20 22:12:00,18.1,10.6,29.50,NNW,338,2.7,2.7,72,0.00,,,33.01,VWS V14.01,2013-02-21 03:12:00,
2013-02-20 22:13:00,18.1,10.6,29.50,NNW,338,2.9,2.9,72,0.00,,,33.01,VWS V14.01,2013-02-21 03:13:00,
2013-02-20 22:14:00,18.1,10.6,29.50,NNW,338,4.0,6.5,72,0.00,,,33.01,VWS V14.01,2013-02-21 03:14:00,
2013-02-20 22:15:00,18.1,10.6,29.50,NNW,338,5.4,5.4,72,0.00,,,33.01,VWS V14.01,2013-02-21 03:15:00,
2013-02-20 22:16:00,18.1,10.6,29.50,North,0,7.6,7.8,72,0.00,,,33.01,VWS V14.01,2013-02-21 03:16:00,
2013-02-20 22:17:00,18.1,10.6,29.50,North,0,4.0,7.6,72,0.00,,,33.01,VWS V14.01,2013-02-21 03:17:00,
2013-02-20 22:18:00,18.1,10.6,29.50,NNE,22,2.5,4.0,72,0.00,,,33.01,VWS V14.01,2013-02-21 03:18:00,
2013-02-20 22:19:00,18.3,10.8,29.50,SW,225,3.4,4.7,72,0.00,,,33.01,VWS V14.01,2013-02-21 03:19:00,
2013-02-20 22:20:00,18.3,10.8,29.50,NNW,338,3.8,3.8,72,0.00,,,33.01,VWS V14.01,2013-02-21 03:20:00,
2013-02-20 22:21:00,18.3,10.8,29.50,NNW,338,4.0,4.3,72,0.00,,,33.01,VWS V14.01,2013-02-21 03:21:00,
2013-02-20 22:22:00,18.1,11.0,29.50,NNW,338,3.1,4.0,73,0.00,,,33.01,VWS V14.01,2013-02-21 03:22:00,
2013-02-20 22:23:00,18.3,11.1,29.50,NNW,338,4.3,4.3,73,0.00,,,33.01,VWS V14.01,2013-02-21 03:23:00,
2013-02-20 22:24:00,18.1,11.0,29.50,North,0,3.6,5.6,73,0.00,,,33.01,VWS V14.01,2013-02-21 03:24:00,
2013-02-20 22:25:00,18.1,10.6,29.50,NNW,338,5.8,6.0,72,0.00,,,33.01,VWS V14.01,2013-02-21 03:25:00,
2013-02-20 22:26:00,18.1,10.6,29.50,NNE,22,4.0,6.3,72,0.00,,,33.01,VWS V14.01,2013-02-21 03:26:00,
2013-02-20 22:27:00,18.1,10.6,29.50,WNW,292,4.9,4.9,72,0.00,,,33.01,VWS V14.01,2013-02-21 03:27:00,
2013-02-20 22:28:00,18.0,10.5,29.50,NNE,22,3.4,6.3,72,0.00,,,33.01,VWS V14.01,2013-02-21 03:28:00,
2013-02-20 22:29:00,18.3,10.8,29.50,NW,315,3.8,4.0,72,0.00,,,33.01,VWS V14.01,2013-02-21 03:29:00,
2013-02-20 22:30:00,18.3,10.8,29.50,NW,315,3.8,3.8,72,0.00,,,33.01,VWS V14.01,2013-02-21 03:30:00,
2013-02-20 22:31:00,18.3,10.8,29.50,North,0,4.7,4.7,72,0.00,,,33.01,VWS V14.01,2013-02-21 03:31:00,
2013-02-20 22:32:00,18.3,10.8,29.50,NNW,338,3.4,4.7,72,0.00,,,33.01,VWS V14.01,2013-02-21 03:32:00,
2013-02-20 22:33:00,18.3,10.8,29.50,North,0,3.8,4.9,72,0.00,,,33.01,VWS V14.01,2013-02-21 03:33:00,
2013-02-20 22:34:00,18.3,10.8,29.50,WNW,292,2.7,3.8,72,0.00,,,33.01,VWS V14.01,2013-02-21 03:34:00,
2013-02-20 22:35:00,18.3,10.8,29.50,NE,45,4.9,4.9,72,0.00,,,33.01,VWS V14.01,2013-02-21 03:35:00,
2013-02-20 22:36:00,18.3,10.8,29.50,NNE,22,2.7,4.9,72,0.00,,,33.01,VWS V14.01,2013-02-21 03:36:00,
2013-02-20 22:37:00,18.3,10.8,29.50,North,0,3.6,3.6,72,0.00,,,33.01,VWS V14.01,2013-02-21 03:37:00,
2013-02-20 22:38:00,18.1,10.6,29.50,North,0,4.0,7.8,72,0.00,,,33.01,VWS V14.01,2013-02-21 03:38:00,
2013-02-20 22:39:00,18.1,10.6,29.50,NNW,338,2.9,5.4,72,0.00,,,33.01,VWS V14.01,2013-02-21 03:39:00,
2013-02-20 22:40:00,18.3,10.8,29.50,North,0,6.0,11.4,72,0.00,,,33.01,VWS V14.01,2013-02-21 03:40:00,
2013-02-20 22:41:00,18.3,10.8,29.50,NNE,22,4.3,6.0,72,0.00,,,33.01,VWS V14.01,2013-02-21 03:41:00,
2013-02-20 22:42:00,18.3,10.8,29.50,WNW,292,5.8,6.3,72,0.00,,,33.01,VWS V14.01,2013-02-21 03:42:00,
2013-02-20 22:43:00,18.1,10.6,29.50,NNE,22,3.4,5.8,72,0.00,,,33.01,VWS V14.01,2013-02-21 03:43:00,
2013-02-20 22:44:00,18.1,10.6,29.50,NNW,338,4.0,6.0,72,0.00,,,33.01,VWS V14.01,2013-02-21 03:44:00,
2013-02-20 22:45:00,18.1,10.6,29.50,NNE,22,4.3,4.7,72,0.00,,,33.01,VWS V14.01,2013-02-21 03:45:00,
2013-02-20 22:46:00,18.1,10.6,29.50,ENE,68,4.5,5.4,72,0.00,,,33.01,VWS V14.01,2013-02-21 03:46:00,
2013-02-20 22:47:00,18.1,10.6,29.50,NNE,22,2.9,4.5,72,0.00,,,33.01,VWS V14.01,2013-02-21 03:47:00,
2013-02-20 22:48:00,18.1,10.6,29.50,NW,315,4.9,4.9,72,0.00,,,33.01,VWS V14.01,2013-02-21 03:48:00,
2013-02-20 22:49:00,18.1,10.6,29.50,NNE,22,1.3,5.6,72,0.00,,,33.01,VWS V14.01,2013-02-21 03:49:00,
2013-02-20 22:50:00,18.1,10.6,29.50,NNE,22,4.0,4.0,72,0.00,,,33.01,VWS V14.01,2013-02-21 03:50:00,
2013-02-20 22:51:00,17.4,9.9,29.50,NNE,22,5.6,5.6,72,0.00,,,33.01,VWS V14.01,2013-02-21 03:51:00,
2013-02-20 22:52:00,18.1,10.6,29.50,NNE,22,4.9,6.5,72,0.00,,,33.01,VWS V14.01,2013-02-21 03:52:00,
2013-02-20 22:53:00,18.1,10.6,29.50,WNW,292,4.7,4.9,72,0.00,,,33.01,VWS V14.01,2013-02-21 03:53:00,
2013-02-20 22:54:00,18.1,10.6,29.50,NE,45,6.3,6.3,72,0.00,,,33.01,VWS V14.01,2013-02-21 03:54:00,
2013-02-20 22:55:00,18.1,10.6,29.50,NNE,22,3.6,6.3,72,0.00,,,33.01,VWS V14.01,2013-02-21 03:55:00,
2013-02-20 22:56:00,18.1,10.3,29.50,NNE,22,5.4,10.1,71,0.00,,,33.01,VWS V14.01,2013-02-21 03:56:00,
2013-02-20 22:57:00,18.1,10.3,29.50,North,0,6.0,6.0,71,0.00,,,33.01,VWS V14.01,2013-02-21 03:57:00,
2013-02-20 22:58:00,18.1,10.3,29.50,North,0,3.4,6.0,71,0.00,,,33.01,VWS V14.01,2013-02-21 03:58:00,
2013-02-20 22:59:00,18.1,10.3,29.50,WNW,292,4.9,4.9,71,0.00,,,33.01,VWS V14.01,2013-02-21 03:59:00,
2013-02-20 23:00:00,18.1,10.3,29.50,NNE,22,5.4,5.4,71,0.00,,,33.01,VWS V14.01,2013-02-21 04:00:00,
2013-02-20 23:01:00,18.1,10.3,29.50,NNE,22,5.6,5.6,71,0.00,,,33.01,VWS V14.01,2013-02-21 04:01:00,
2013-02-20 23:02:00,18.1,10.3,29.50,NNE,22,3.4,5.6,71,0.00,,,33.01,VWS V14.01,2013-02-21 04:02:00,
2013-02-20 23:03:00,18.1,10.3,29.50,NNE,22,3.4,3.4,71,0.00,,,33.01,VWS V14.01,2013-02-21 04:03:00,
2013-02-20 23:04:00,18.1,10.3,29.50,NNE,22,3.6,4.9,71,0.00,,,33.01,VWS V14.01,2013-02-21 04:04:00,
2013-02-20 23:05:00,18.1,10.3,29.50,NE,45,4.5,4.5,71,0.00,,,33.01,VWS V14.01,2013-02-21 04:05:00,
2013-02-20 23:06:00,18.1,10.6,29.50,NNW,338,5.8,7.6,72,0.00,,,33.01,VWS V14.01,2013-02-21 04:06:00,
2013-02-20 23:07:00,18.1,10.6,29.50,NE,45,3.8,5.8,72,0.00,,,33.01,VWS V14.01,2013-02-21 04:07:00,
2013-02-20 23:08:00,18.1,10.6,29.50,North,0,4.3,4.3,72,0.00,,,33.01,VWS V14.01,2013-02-21 04:08:00,
2013-02-20 23:09:00,18.1,10.6,29.50,North,0,3.1,4.3,72,0.00,,,33.01,VWS V14.01,2013-02-21 04:09:00,
2013-02-20 23:10:00,18.1,10.6,29.50,NE,45,3.1,4.0,72,0.00,,,33.01,VWS V14.01,2013-02-21 04:10:00,
2013-02-20 23:11:00,18.1,10.6,29.50,NNE,22,7.8,7.8,72,0.00,,,33.01,VWS V14.01,2013-02-21 04:11:00,
2013-02-20 23:12:00,17.1,9.6,29.50,North,0,4.9,4.9,72,0.00,,,0.00,VWS V14.01,2013-02-21 04:12:00,
2013-02-20 23:13:00,18.1,10.6,29.50,NNE,22,4.7,4.7,72,0.00,,,33.01,VWS V14.01,2013-02-21 04:13:00,
2013-02-20 23:14:00,18.1,10.6,29.50,NNE,22,4.7,4.7,72,0.00,,,33.01,VWS V14.01,2013-02-21 04:14:00,
2013-02-20 23:15:00,18.1,10.6,29.50,NNE,22,3.1,4.7,72,0.00,,,33.01,VWS V14.01,2013-02-21 04:15:00,
2013-02-20 23:16:00,18.1,10.6,29.50,North,0,5.4,5.4,72,0.00,,,33.01,VWS V14.01,2013-02-21 04:16:00,
2013-02-20 23:17:00,18.1,10.6,29.50,North,0,4.7,5.4,72,0.00,,,33.01,VWS V14.01,2013-02-21 04:17:00,
2013-02-20 23:18:00,18.1,10.6,29.50,NNE,22,4.9,5.8,72,0.00,,,33.01,VWS V14.01,2013-02-21 04:18:00,
2013-02-20 23:19:00,18.1,10.6,29.50,NNE,22,4.9,5.8,72,0.00,,,33.01,VWS V14.01,2013-02-21 04:19:00,
2013-02-20 23:20:00,18.1,10.6,29.50,NNE,22,4.9,4.9,72,0.00,,,33.01,VWS V14.01,2013-02-21 04:20:00,
2013-02-20 23:21:00,18.1,10.6,29.50,NW,315,3.8,4.9,72,0.00,,,33.01,VWS V14.01,2013-02-21 04:21:00,
2013-02-20 23:22:00,18.1,10.6,29.50,NW,315,6.0,6.0,72,0.00,,,33.01,VWS V14.01,2013-02-21 04:22:00,
2013-02-20 23:23:00,18.1,10.6,29.50,NNW,338,4.3,5.8,72,0.00,,,33.01,VWS V14.01,2013-02-21 04:23:00,
2013-02-20 23:24:00,18.1,10.6,29.50,North,0,4.7,5.8,72,0.00,,,33.01,VWS V14.01,2013-02-21 04:24:00,
2013-02-20 23:25:00,18.1,10.6,29.50,North,0,4.7,4.7,72,0.00,,,33.01,VWS V14.01,2013-02-21 04:25:00,
2013-02-20 23:26:00,16.9,9.4,29.50,NNE,22,1.1,2.9,72,0.00,,,0.00,VWS V14.01,2013-02-21 04:26:00,
2013-02-20 23:27:00,18.1,10.6,29.50,North,0,4.7,4.7,72,0.00,,,33.01,VWS V14.01,2013-02-21 04:27:00,
2013-02-20 23:28:00,18.0,10.5,29.50,North,0,5.4,5.4,72,0.00,,,33.01,VWS V14.01,2013-02-21 04:28:00,
2013-02-20 23:29:00,16.9,9.4,29.50,North,0,3.1,4.7,72,0.00,,,0.00,VWS V14.01,2013-02-21 04:29:00,
2013-02-20 23:30:00,18.0,10.5,29.50,NNE,22,2.9,5.4,72,0.00,,,33.01,VWS V14.01,2013-02-21 04:30:00,
2013-02-20 23:31:00,18.0,10.2,29.50,North,0,13.2,13.2,71,0.00,,,33.01,VWS V14.01,2013-02-21 04:31:00,
2013-02-20 23:32:00,18.0,10.2,29.50,NNE,22,3.4,13.2,71,0.00,,,33.01,VWS V14.01,2013-02-21 04:32:00,
2013-02-20 23:33:00,18.0,10.2,29.50,NNE,22,4.0,4.9,71,0.00,,,33.01,VWS V14.01,2013-02-21 04:33:00,
2013-02-20 23:34:00,18.0,10.2,29.50,NNW,338,3.1,4.9,71,0.00,,,33.01,VWS V14.01,2013-02-21 04:34:00,
2013-02-20 23:35:00,18.0,10.2,29.50,NNW,338,3.1,6.5,71,0.00,,,33.01,VWS V14.01,2013-02-21 04:35:00,
2013-02-20 23:36:00,17.8,10.0,29.50,North,0,4.7,5.4,71,0.00,,,33.01,VWS V14.01,2013-02-21 04:36:00,
2013-02-20 23:37:00,17.8,10.0,29.50,NW,315,2.7,4.7,71,0.00,,,33.01,VWS V14.01,2013-02-21 04:37:00,
2013-02-20 23:38:00,17.8,10.0,29.50,NNE,22,3.4,3.4,71,0.00,,,33.01,VWS V14.01,2013-02-21 04:38:00,
2013-02-20 23:39:00,17.8,10.0,29.50,North,0,3.8,3.8,71,0.00,,,33.01,VWS V14.01,2013-02-21 04:39:00,
2013-02-20 23:40:00,17.8,10.0,29.50,NNE,22,2.7,6.0,71,0.00,,,33.01,VWS V14.01,2013-02-21 04:40:00,
2013-02-20 23:41:00,17.8,10.0,29.50,NNE,22,6.3,6.3,71,0.00,,,33.01,VWS V14.01,2013-02-21 04:41:00,
2013-02-20 23:42:00,17.8,10.0,29.50,NNE,22,6.3,6.3,71,0.00,,,33.01,VWS V14.01,2013-02-21 04:42:00,
2013-02-20 23:43:00,17.6,10.1,29.50,North,0,4.7,6.3,72,0.00,,,33.01,VWS V14.01,2013-02-21 04:43:00,
2013-02-20 23:44:00,17.6,10.1,29.50,NNE,22,3.1,6.3,72,0.00,,,33.01,VWS V14.01,2013-02-21 04:44:00,
2013-02-20 23:45:00,17.6,10.1,29.50,NNW,338,3.1,4.9,72,0.00,,,33.01,VWS V14.01,2013-02-21 04:45:00,
2013-02-20 23:46:00,16.9,9.1,29.50,NW,315,4.7,7.8,71,0.00,,,0.00,VWS V14.01,2013-02-21 04:46:00,
2013-02-20 23:47:00,17.6,10.1,29.50,North,0,3.1,3.1,72,0.00,,,33.01,VWS V14.01,2013-02-21 04:47:00,
2013-02-20 23:48:00,17.6,10.1,29.50,WNW,292,3.1,4.0,72,0.00,,,33.01,VWS V14.01,2013-02-21 04:48:00,
2013-02-20 23:49:00,16.9,9.1,29.50,North,0,3.1,4.0,71,0.00,,,0.00,VWS V14.01,2013-02-21 04:49:00,
2013-02-20 23:50:00,17.4,9.9,29.50,NNE,22,1.3,3.8,72,0.00,,,33.01,VWS V14.01,2013-02-21 04:50:00,
2013-02-20 23:51:00,17.4,9.9,29.50,NNE,22,5.6,5.6,72,0.00,,,33.01,VWS V14.01,2013-02-21 04:51:00,
2013-02-20 23:52:00,17.4,9.9,29.50,NNE,22,6.9,6.9,72,0.00,,,33.01,VWS V14.01,2013-02-21 04:52:00,
2013-02-20 23:53:00,17.4,9.9,29.50,WSW,248,2.9,3.6,72,0.00,,,33.01,VWS V14.01,2013-02-21 04:53:00,
2013-02-20 23:54:00,17.4,9.9,29.50,WSW,248,2.9,3.6,72,0.00,,,33.01,VWS V14.01,2013-02-21 04:54:00,
2013-02-20 23:55:00,16.7,8.6,29.50,NE,45,4.9,7.8,70,0.00,,,0.00,VWS V14.01,2013-02-21 04:55:00,
2013-02-20 23:56:00,17.4,9.9,29.50,ENE,68,4.0,6.0,72,0.00,,,33.01,VWS V14.01,2013-02-21 04:56:00,
2013-02-20 23:57:00,17.4,9.9,29.50,North,0,4.3,5.4,72,0.00,,,33.01,VWS V14.01,2013-02-21 04:57:00,
2013-02-20 23:58:00,17.4,9.9,29.50,North,0,2.9,4.3,72,0.00,,,33.01,VWS V14.01,2013-02-21 04:58:00,
2013-02-20 23:59:00,17.4,9.9,29.50,North,0,2.9,4.7,72,0.00,,,33.01,VWS V14.01,2013-02-21 04:59:00,